     2              OBSERVATION DATA    GPS                 RINEX VERSION / TYPE
teqc 2000Feb29 20010929 17:43:08UTC                         PGM / RUN BY / DATE
                                                            COMMENT
L2: 1 -> 1; 150 -> 5; 250 -> 9                              COMMENT
L2: 1 -> 1; 150 -> 5; 250 -> 9                              COMMENT
L2: 1 -> 1; 150 -> 5; 250 -> 9                              COMMENT
L2: 1 -> 1; 150 -> 5; 250 -> 9                              COMMENT
L2: 1 -> 1; 150 -> 5; 250 -> 9                              COMMENT
Original Marker Name: PK02                                  COMMENT
Campaign Name: postHector                                   COMMENT
4-Character Station Name: PK02                              COMMENT
6-Character Antenna Code: DMRCHT                            COMMENT
Vertical Measurement Point: BCR                             COMMENT
Vertical Offset to Rinex Ref. Point: 0.0348                 COMMENT
Radial Measurement Point: ECF                               COMMENT
Radial Offset to Rinex Ref. Point: 0.1897                   COMMENT
Antenna Height from Field Measurement: 0.7420 m             COMMENT
Additional Antenna Identification Info.:                    COMMENT
Turborogue and Ashtech Choke Ring                           COMMENT
Original XYZ: 0.0000 0.0000 0.0000                          COMMENT
New XYZ position is based on association with SCEC monument COMMENT
E1F2T8V9+0011. Position of that monument is believed to be  COMMENT
valid to within 1 m horizontally; vertical accuracy         COMMENT
should be no worse than 3-times this value.                 COMMENT
                                                            COMMENT
Revised Rinex header created by UCSD GPS archive for        COMMENT
GSAC on 03-Oct-2001 (2001:276) 16:06:39 GMT                 COMMENT
For assistance contact dagnew@ucsd.edu                      COMMENT
or anderson@python.ucsd.edu                                 COMMENT
                                                            COMMENT
PK02 99                                                     MARKER NAME
PFO SCRIPPS INSTITUTION OF OCEANOGRAPHY                     OBSERVER / AGENCY
LP03317 ASHTECH Z-XII3 CC00                                 REC # / TYPE / VERS
LP03317 DORNE-MARGOL. TYPE T                                ANT # / TYPE
 -2314393.8856 -4698726.5985  3628259.0748                  APPROX POSITION XYZ
        0.6825        0.0000        0.0000                  ANTENNA: DELTA H/E/N
     1     1     0                                          WAVELENGTH FACT L1/2
     7    C1    L1    L2    P1    P2    S1    S2            # / TYPES OF OBSERV
     0                                                      INTERVAL
  2001     9    24    21    28   30.000000                  TIME OF FIRST OBS
  2001     9    24    23    59   30.000000                  TIME OF LAST OBS
                                                            END OF HEADER
 01  9 24 21 28 30.0000000  0  2G 1G13
  20526766.780      -61140.16649    -43356.48347  20526766.126    20526777.628
       244.000         212.000
  22004486.315     -193498.46349   -143872.67546  22004486.411    22004498.858
       230.000         184.000
 01  9 24 21 29  0.0000000  0  2G 1G13
  20523212.432      -79817.20449    -57910.01848  20523212.056    20523223.510
       243.000         214.000
  21991462.491     -261944.97249   -197207.55246  21991463.127    21991473.750
       239.000         184.000
 01  9 24 21 29 30.0000000  0  2G 1G13
                  -1058534.81849   -820848.89847                  20320947.880
       245.000         192.000
  21779690.210    -1374818.78549  -1064381.86646  21779689.315    21779701.513
       230.000         187.000
 01  9 24 21 30  0.0000000  0  2G 1G13
  20318112.909    -1073376.89249   -832414.12847  20318112.074    20318123.593
       245.000         210.000
  21767341.827    -1439705.75449  -1114943.02746  21767341.193    21767352.652
       229.000         179.000
 01  9 24 21 30 30.0000000  0  2G 1G13
  20315342.477    -1087933.40549   -843756.84547  20315342.141    20315353.512
       244.000         212.000
  21755022.298    -1504444.84249  -1165388.94946  21755022.361    21755033.060
       230.000         182.000
 01  9 24 21 31  0.0000000  0  2G 1G13
  20306324.968    -1135323.29049   -880684.01748  20306324.024    20306335.354
       245.000         213.000
  21736428.852    -1602155.02649  -1241526.67546  21736428.873    21736440.090
       237.000         187.000
 01  9 24 21 31 30.0000000  0  2G 1G13
  20257949.745    -1389537.48849  -1078772.98448  20257949.094    20257960.384
       245.000         213.000
  21678451.615    -1906827.59849  -1478933.80546  21678451.380    21678462.002
       235.000         187.000
 01  9 24 21 32  0.0000000  0  2G 1G13
  20230663.639    -1532926.55149  -1190504.70848  20230663.063    20230673.997
       245.000         213.000
  21641537.398    -2100812.45349  -1630090.73846  21641536.856    21641548.393
       234.000         185.000
 01  9 24 21 32 30.0000000  0  2G 1G13
  20214940.462    -1615552.19449  -1254888.32248  20214940.028    20214951.171
       245.000         213.000
  21616159.978    -2234171.46049  -1734006.75747  21616160.803    21616171.073
       238.000         189.000
 01  9 24 21 33  0.0000000  0  2G 1G13
  20205567.777    -1664805.69149  -1293267.65848  20205567.257    20205578.733
       245.000         213.000
  21597107.057    -2334295.52749  -1812025.42747  21597106.954    21597118.509
       237.000         189.000
 01  9 24 21 33 30.0000000  0  2G 1G13
  20199693.708    -1695674.36449  -1317321.16748  20199693.004    20199704.137
       244.000         213.000
  21581526.537    -2416172.00849  -1875825.18747  21581526.650    21581538.450
       238.000         190.000
 01  9 24 21 34  0.0000000  0  3G22G 1G13
  20747095.369    -1435071.46749  -1127681.72447  20747095.625    20747108.439
       235.000         195.000
  20195757.629    -1716358.52849  -1333438.69148  20195757.148    20195768.378
       245.000         213.000
  21567857.835    -2488001.31149  -1931796.00446  21567856.803    21567867.158
       233.000         185.000
 01  9 24 21 34 30.0000000  0  3G22G 1G13
  20757533.894    -1380220.16449  -1084940.49847  20757533.079    20757546.212
       236.000         196.000
  20192906.209    -1731343.27549  -1345115.11748  20192905.373    20192916.874
       244.000         213.000
  21555247.289    -2554268.46249  -1983432.68246  21555247.623    21555259.782
       236.000         187.000
 01  9 24 21 35  0.0000000  0  3G22G 1G13
  20809395.182    -1107688.88949   -872578.50447  20809394.206    20809407.117
       238.000         196.000
  20231421.232    -1528945.19649  -1187402.32448  20231420.969    20231432.075
       245.000         213.000
  21583977.561    -2403289.61149  -1865786.70047  21583978.083    21583989.159
       234.000         189.000
 01  9 24 21 35 30.0000000  0  3G22G 1G13
  20850470.662     -891836.18549   -704381.63647  20850469.970    20850482.406
       236.000         196.000
  20259094.784    -1383519.82049  -1074083.84248  20259093.941    20259105.843
       244.000         213.000
  21601840.365    -2309420.46449  -1792641.87046  21601840.677    21601851.282
       235.000         186.000
 01  9 24 21 36  0.0000000  0  3G22G 1G13
  20877328.978     -750695.60649   -594402.00147  20877328.376    20877340.611
       237.000         196.000
  20272495.783    -1313097.16449  -1019209.04448  20272495.294    20272506.215
       245.000         213.000
  21605404.367    -2290691.23949  -1778047.54246  21605403.440    21605416.274
       232.000         187.000
 01  9 24 21 36 30.0000000  0  4G22G 1G20G13
  21180928.741      844731.77549    648788.12347  21180927.959    21180940.310
       237.000         195.000
  20562584.140      211327.30049    168654.17648  20562583.380    20562594.954
       244.000         213.000
  21370800.046     -926002.37149   -740182.81147  21370799.054    21370812.674
       238.000         198.000
  21885629.988     -818095.30749   -630570.16346  21885630.663    21885640.054
       236.000         185.000
 01  9 24 21 37  0.0000000  0  4G22G 1G20G13
  21186921.058      876221.35049    673325.41647  21186920.180    21186933.276
       236.000         195.000
  20555010.612      171527.94149    137641.68948  20555009.993    20555021.382
       245.000         213.000
  21380826.041     -873316.82349   -699129.28447  21380825.313    21380837.969
       239.000         197.000
  21868167.499     -909861.39449   -702076.12046  21868166.673    21868179.387
       230.000         187.000
 01  9 24 21 37 30.0000000  0  4G22G 1G20G13
  21195188.453      919666.38749    707178.63847  21195187.587    21195200.507
       237.000         197.000
  20549658.762      143403.81549    115726.77548  20549658.487    20549669.291
       246.000         214.000
  21393103.400     -808799.23749   -648855.96147  21393102.443    21393116.111
       239.000         197.000
  21852900.518     -990088.92949   -764591.00246  21852899.952    21852911.585
       233.000         186.000
 01  9 24 21 38  0.0000000  0  4G22G 1G20G13
  21204747.320      969898.39649    746320.41447  21204746.440    21204759.165
       238.000         196.000
  20545545.901      121789.96849     98884.82448  20545545.185    20545556.708
       245.000         214.000
  21406648.584     -737618.19849   -593390.37047  21406647.936    21406661.386
       238.000         197.000
  21838846.679    -1063942.22449   -822138.93346  21838846.491    21838857.909
       236.000         187.000
 01  9 24 21 38 30.0000000  0  4G22G 1G20G13
  21215059.098     1024087.08349    788545.32047  21215058.371    21215070.987
       235.000         195.000
  20542133.946      103859.82749     84913.28648  20542133.217    20542144.925
       245.000         214.000
  21420923.326     -662603.82549   -534937.74847  21420922.884    21420935.962
       240.000         196.000
  21825467.870    -1134248.06849   -876922.65046  21825467.713    21825477.983
       233.000         185.000
 01  9 24 21 39  0.0000000  0  4G22G 1G20G13
  21225829.115     1080683.55149    832646.40847  21225828.415    21225841.427
       236.000         195.000
  20539128.867       88068.04549     72607.99648  20539128.337    20539139.171
       245.000         214.000
  21435632.919     -585305.28249   -474705.25647  21435632.081    21435645.480
       238.000         197.000
  21812470.198    -1202551.59449   -930146.12546  21812470.511    21812481.695
       236.000         187.000
 01  9 24 21 39 30.0000000  0  5G22G 1G 3G20G13
  21236895.708     1138838.47049    877961.87447  21236894.594    21236907.515
       236.000         195.000
  20536369.753       73568.59249     61309.70948  20536368.958    20536380.443
       244.000         214.000
                  -1391193.88749  -1072579.26643
       206.000          74.000
  21450615.375     -506571.95849   -413354.76047  21450615.408    21450628.207
       239.000         196.000
  21799692.459    -1269698.77249   -982468.50047  21799692.667    21799703.771
       237.000         190.000
 01  9 24 21 40  0.0000000  0  6G22G 1G 3G20G27G13
  21248170.260     1198086.64249    924129.23347  21248169.338    21248182.678
       236.000         195.000
  20533768.715       59900.08949     50658.93548  20533768.138    20533779.410
       246.000         214.000
                  -1459851.03849   -975310.01643
       206.000          74.000
  21465782.486     -426869.09149   -351248.77247  21465781.699    21465795.711
       237.000         196.000
  23290268.554    -1412893.72549  -1094314.63646  23290268.653    23290284.947
       221.000         166.000
  21787047.104    -1336150.73749  -1034249.20847  21787046.791    21787057.626
       236.000         188.000
 01  9 24 21 40 30.0000000  0  6G22G 1G 3G20G27G13
  21259602.559     1258163.46749    970942.29047  21259601.924    21259614.774
       237.000         195.000
  20531276.136       46801.51749     40452.25748  20531275.334    20531286.676
       244.000         214.000
                  -1528066.24549  -1028464.36843
       207.000          74.000
  21481083.592     -346461.63649   -288593.75247  21481083.226    21481096.133
       239.000         195.000
  23278307.682    -1475760.52149  -1143301.62046  23278304.775    23278321.537
       222.000         169.000
  21774484.392    -1402168.29149  -1085691.37447  21774484.498    21774494.740
       238.000         191.000
 01  9 24 21 41  0.0000000  0  6G22G 1G 3G20G27G13
  21271166.008     1318929.24449   1018292.18847  21271165.249    21271178.241
       236.000         195.000
  20528866.040       34136.71249     30583.58448  20528865.302    20528876.913
       244.000         214.000
                  -1595973.92449  -1081378.01843
       206.000          74.000
  21496492.346     -265489.28949   -225498.54247  21496491.479    21496505.264
       238.000         195.000
  23266402.462    -1538317.28149  -1192046.99446  23266401.515    23266416.274
       223.000         168.000
  21761978.396    -1467887.50349  -1136901.09947  21761978.236    21761989.171
       237.000         188.000
 01  9 24 21 41 30.0000000  0  6G22G 1G 3G20G27G13
  21282847.360     1380314.67549   1066124.94547  21282846.332    21282859.797
       236.000         194.000
  20526526.105       21840.03449     21001.76248  20526525.422    20526536.735
       244.000         213.000
                  -1663638.07949   -985565.23943
       209.000          74.000
  21511995.109     -184021.41749   -162017.22647  21511994.616    21512007.612
       237.000         194.000
  23254544.142    -1600631.29149  -1240603.19946  23254542.835    23254559.261
       224.000         168.000
  21749516.799    -1533373.83149  -1187929.30547  21749516.973    21749528.863
       238.000         194.000
 01  9 24 21 42  0.0000000  0  6G22G 1G 3G20G27G13
  21294638.806     1442278.53749   1114408.42347  21294638.069    21294650.919
       237.000         194.000
  20524249.078        9874.05249     11677.62348  20524248.379    20524259.617
       244.000         213.000
                  -1731094.38449  -1038128.60243
       205.000          74.000
  21527584.533     -102099.14949    -98181.83747  21527584.333    21527598.126
       237.000         194.000
  23242724.950    -1662741.25049  -1289000.44546  23242722.918    23242738.920
       222.000         169.000
  21737092.223    -1598664.80449  -1238805.30947  21737092.344    21737101.524
       238.000         190.000
 01  9 24 21 42 30.0000000  0  6G22G 1G 3G20G27G13
  21306535.777     1504797.26249   1163124.25647  21306535.153    21306548.480
       236.000         194.000
  20522031.106       -1781.28849      2595.54348  20522030.694    20522042.158
       245.000         213.000
                  -1798361.08849  -1090543.97043
       209.000          74.000
  21543255.972      -19746.25449    -34010.90347  21543255.744    21543269.239
       238.000         194.000
  23230940.281    -1724668.53149  -1337255.29746  23230939.545    23230955.565
       222.000         169.000
  21724701.215    -1663779.76449  -1289544.14547  21724700.513    21724712.737
       236.000         191.000
 01  9 24 21 43  0.0000000  0  6G22G 1G 3G20G27G13
  21318535.334     1567854.86649   1212259.98647  21318534.376    21318547.490
       235.000         194.000
  20519869.998      -13138.20149     -6253.99748  20519869.610    20519880.524
       245.000         213.000
                  -1865448.80549  -1142819.84744                  24198102.037
       205.000         131.000
  21559006.281       63021.28449     30483.14247  21559005.881    21559019.356
       237.000         194.000
  23219187.925    -1786426.82449  -1385378.48546  23219187.891    23219203.274
       223.000         170.000
  21712341.368    -1728730.66349  -1340155.18247  21712341.629    21712350.445
       240.000         192.000
 01  9 24 21 43 30.0000000  0  6G22G 1G 3G20G27G13
  21330635.138     1631439.39149   1261806.30147  21330633.849    21330647.093
       233.000         193.000
  20517764.089      -24205.08849    -14877.53548  20517763.268    20517774.822
       244.000         213.000
  24185348.428    -1932364.04349  -1194961.33445  24185348.322    24185370.497
       208.000         139.000
  21574833.097      146191.19249     95290.71547  21574832.914    21574846.092
       238.000         194.000
  23207465.749    -1848026.08349  -1433377.75846  23207464.537    23207480.621
       223.000         170.000
  21700011.274    -1793525.92849  -1390644.93147  21700010.176    21700021.976
       235.000         190.000
 01  9 24 21 44  0.0000000  0  6G22G 1G 3G20G27G13
  21342833.984     1695544.83349   1311758.53647  21342832.914    21342846.366
       235.000         193.000
  20515712.862      -34984.23049    -23276.86548  20515712.388    20515723.785
       245.000         214.000
  24172647.640    -1999107.32249  -1246968.82645  24172646.565    24172667.758
       208.000         139.000
  21590735.352      229757.48049    160407.15647  21590735.045    21590748.182
       237.000         193.000
  23195773.362    -1909469.65249  -1481255.69646  23195771.731    23195788.889
       223.000         172.000
  21687710.215    -1858167.47849  -1441014.86547  21687710.111    21687721.723
       236.000         192.000
 01  9 24 21 44 30.0000000  0  6G22G 1G 3G20G27G13
  21355130.903     1760165.88749   1362112.54947  21355130.101    21355142.996
       235.000         192.000
  20513716.179      -45477.33449    -31453.29548  20513715.350    20513726.531
       245.000         213.000
  24159979.447    -2065678.63449  -1298842.30745  24159977.845    24160000.122
       209.000         139.000
  21606712.050      313714.72149    225828.23147  21606711.795    21606725.282
       237.000         193.000
  23184109.951    -1970760.81449  -1529014.86346  23184108.636    23184123.634
       223.000         173.000
  21675438.280    -1922657.05349  -1491266.38247  21675438.706    21675448.814
       240.000         194.000
 01  9 24 21 45  0.0000000  0  6G22G 1G 3G20G27G13
  21367525.200     1825298.32849   1412865.03847  21367524.121    21367537.591
       235.000         192.000
  20511773.783      -55684.58149    -39406.98848  20511773.175    20511784.510
       245.000         214.000
  24147344.305    -2132076.36549  -1350580.55945  24147343.512    24147365.443
       208.000         140.000
  21622762.311      398058.66349    291550.62747  21622762.143    21622775.113
       236.000         192.000
  23172475.110    -2031901.46949  -1576656.77946  23172474.530    23172489.610
       224.000         173.000
  21663195.336    -1986994.61449  -1541399.52947  21663194.313    21663204.778
       234.000         190.000
 01  9 24 21 45 30.0000000  0  6G22G 1G 3G20G27G13
  21380016.232     1890939.02749   1464013.57247  21380015.094    21380027.751
       233.000         192.000
  20509885.842      -65605.36049    -47137.45348  20509885.022    20509896.372
       245.000         213.000
  24134742.682    -2198298.30549  -1402181.83545  24134742.066    24134762.247
       212.000         140.000
  21638885.457      482786.16749    357571.90647  21638885.401    21638898.656
       237.000         192.000
  23160868.829    -2092892.15749  -1624181.84746  23160867.735    23160882.838
       224.000         173.000
  21650980.987    -2051179.30949  -1591413.45847  21650981.308    21650992.054
       238.000         192.000
 01  9 24 21 46  0.0000000  0  6G22G 1G 3G20G27G13
  21392603.392     1957084.86949   1515555.73247  21392602.210    21392615.730
       235.000         191.000
  20508052.584      -75239.24149    -54644.36548  20508051.761    20508063.104
       244.000         213.000
  24122174.860    -2264342.32949  -1453644.48645  24122173.507    24122195.082
       211.000         141.000
  21655081.151      567894.06749    423889.59247  21655080.700    21655094.700
       237.000         193.000
  23149291.061    -2153733.79749  -1671590.76946  23149289.570    23149305.013
       224.000         174.000
  21638796.449    -2115210.02349  -1641307.45647  21638795.913    21638806.828
       237.000         193.000
 01  9 24 21 46 30.0000000  0  6G22G 1G 3G20G27G13
  21405286.206     2023733.01949   1567489.28647  21405285.619    21405298.519
       235.000         191.000
  20506274.023      -84585.30249    -61927.00448  20506273.662    20506284.613
       245.000         213.000
  24109641.401    -2330205.62049  -1504966.31645  24109640.203    24109660.194
       209.000         141.000
  21671348.592      653379.46349    490501.43947  21671348.098    21671361.858
       236.000         192.000
  23137741.625    -2214426.88649  -1718883.95246  23137740.785    23137755.765
       224.000         175.000
  21626641.296    -2179085.77949  -1691080.66947  21626641.398    21626652.507
       238.000         195.000
 01  9 24 21 47  0.0000000  0  6G22G 1G 3G20G27G13
  21418064.341     2090881.51549   1619812.72847  21418063.403    21418076.474
       235.000         191.000
  20504550.704      -93641.78949    -68983.99948  20504550.035    20504561.534
       245.000         213.000
  24097142.831    -2395884.80149  -1556144.66045  24097140.657    24097162.338
       210.000         140.000
  21687687.403      739240.17649    557405.74047  21687686.457    21687701.613
       236.000         192.000
  23126220.223    -2274971.00149  -1766061.05946  23126219.791    23126233.365
       223.000         174.000
  21614516.025    -2242804.44549  -1740731.54447  21614515.063    21614526.127
       236.000         191.000
 01  9 24 21 47 30.0000000  0  6G22G 1G 3G20G27G13
  21430936.953     2158527.00249   1672523.44147  21430936.461    21430949.400
       236.000         191.000
  20502882.577     -102407.97749    -75814.78948  20502881.810    20502893.260
       245.000         214.000
  24084679.692    -2461377.38649  -1607177.63645  24084679.633    24084697.865
       210.000         139.000
  21704097.072      825472.98749    624599.97447  21704096.047    21704110.351
       234.000         191.000
  23114727.247    -2335367.03349  -1813122.74046  23114725.988    23114742.192
       223.000         174.000
  21602420.723    -2306365.33349  -1790259.39247  21602420.655    21602431.347
       238.000         194.000
 01  9 24 21 48  0.0000000  0  6G22G 1G 3G20G27G13
  21443903.769     2226667.72749   1725620.04847  21443903.115    21443915.717
       236.000         191.000
  20501270.031     -110882.03749    -82417.94948  20501269.317    20501280.733
       244.000         214.000
  24072252.729    -2526679.79649  -1658062.41945  24072250.298    24072272.122
       212.000         140.000
  21720577.177      912075.92349    692082.63547  21720576.987    21720590.582
       235.000         189.000
  23103262.373    -2395614.54349  -1860068.74846  23103260.366    23103275.932
       221.000         173.000
  21590356.045    -2369766.07749  -1839662.54647  21590355.808    21590366.865
       239.000         192.000
 01  9 24 21 48 30.0000000  0  6G22G 1G 3G20G27G13
  21456964.156     2295300.24749   1779099.87147  21456963.693    21456976.229
       235.000         191.000
  20499713.145     -119063.68349    -88793.26348  20499712.674    20499723.736
       245.000         214.000
  24059862.688    -2591789.83649  -1708797.29945  24059862.274    24059882.496
       209.000         142.000
  21737126.985      999045.42849    759850.92247  21737126.760    21737140.800
       235.000         189.000
  23091825.630    -2455714.39449  -1906899.69646  23091824.602    23091839.802
       225.000         174.000
  21578321.748    -2433005.92949  -1888940.22247  21578321.989    21578332.598
       240.000         193.000
 01  9 24 21 49  0.0000000  0  6G22G 1G 3G20G27G13
  21470117.821     2364422.05549   1832960.97747  21470116.937    21470129.494
       234.000         191.000
  20498212.061     -126951.39449    -94939.52548  20498211.613    20498222.713
       244.000         213.000
  24047509.561    -2656704.50749  -1759379.93545  24047509.476    24047529.368
       212.000         142.000
  21753746.162     1086379.26049    827903.09647  21753745.485    21753759.747
       235.000         189.000
  23080417.027    -2515666.67249  -1953615.63846  23080416.780    23080431.195
       226.000         175.000
  21566318.723    -2496083.24649  -1938091.38147  21566318.568    21566328.881
       238.000         193.000
 01  9 24 21 49 30.0000000  0  6G22G 1G 3G20G27G13
  21483363.828     2434030.45649   1887201.23647  21483362.847    21483375.751
       234.000         191.000
  20496767.222     -134544.10949   -100855.92248  20496766.704    20496778.086
       245.000         213.000
  24035194.218    -2721420.75249  -1809807.93745  24035193.342    24035212.429
       212.000         143.000
  21770434.225     1174074.63749    896236.99947  21770434.122    21770448.235
       236.000         189.000
  23069036.572    -2575471.57849  -2000216.75346  23069035.039    23069050.227
       225.000         175.000
  21554346.216    -2558997.11449  -1987115.04747  21554346.716    21554357.013
       240.000         193.000
 01  9 24 21 50  0.0000000  0  6G22G 1G 3G20G27G13
  21496702.068     2504123.65949   1941819.25147  21496701.693    21496714.354
       235.000         191.000
  20495378.951     -141839.89549   -106540.94648  20495378.335    20495389.866
       244.000         213.000
  24022917.433    -2785935.02549  -1860078.57745  24022916.691    24022937.547
       211.000         144.000
  21787190.668     1262129.43449    964850.95947  21787190.182    21787204.328
       235.000         189.000
  23057684.194    -2635128.64449  -2046702.62846  23057683.308    23057698.250
       225.000         176.000
  21542405.686    -2621744.83249  -2036009.29647  21542405.233    21542416.972
       238.000         193.000
 01  9 24 21 50 30.0000000  0  6G22G 1G 3G20G27G13
  21510132.017     2574697.89149   1996812.10747  21510131.046    21510144.568
       233.000         190.000
  20494047.155     -148838.51949   -111994.41848  20494046.327    20494058.082
       244.000         213.000
  24010679.396    -2850245.45349  -1910190.36445  24010678.713    24010699.919
       215.000         144.000
  21804014.839     1350540.34949   1033742.42047  21804014.295    21804028.706
       234.000         188.000
  23046359.672    -2694639.23349  -2093074.36546  23046360.087    23046372.291
       225.000         176.000
  21530497.274    -2684325.14849  -2084773.16447  21530496.338    21530505.431
       236.000         194.000
 01  9 24 21 51  0.0000000  0  6G22G 1G 3G20G27G13
  21523652.927     2645750.85849   2052177.99647  21523652.196    21523665.923
       234.000         190.000
  20492772.222     -155538.46749   -117215.15848  20492771.549    20492782.947
       244.000         213.000
  23998480.753    -2914348.58249  -1960140.61545  23998479.648    23998500.066
       211.000         144.000
  21820906.265     1439304.63149   1102909.22947  21820905.981    21820919.905
       235.000         188.000
  23035062.875    -2754003.35049  -2139331.95346  23035062.468    23035077.030
       226.000         176.000
  21518620.446    -2746736.97649  -2133405.65247  21518621.109    21518631.440
       241.000         195.000
 01  9 24 21 51 30.0000000  0  6G22G 1G 3G20G27G13
  21537264.573     2717280.16349   2107915.06947  21537263.373    21537277.353
       232.000         189.000
  20491554.363     -161938.27249   -122202.01648  20491553.553    20491565.063
       244.000         214.000
  23986322.254    -2978241.24549  -2009926.83545  23986320.846    23986341.711
       215.000         143.000
  21837864.446     1528419.91849   1172349.54746  21837863.831    21837878.126
       234.000         187.000
  23023794.142    -2813220.88649  -2185475.35246  23023792.790    23023807.400
       225.000         175.000
  21506776.240    -2808978.44349  -2181905.40147  21506776.099    21506786.923
       240.000         193.000
 01  9 24 21 52  0.0000000  0  6G22G 1G 3G20G27G13
  21550966.276     2789283.07549   2164021.17247  21550964.788    21550978.456
       232.000         189.000
  20490393.904     -168036.62149   -126953.97848  20490393.416    20490404.607
       245.000         214.000
  23974204.382    -3041920.47249  -2059546.75945  23974203.145    23974224.850
       214.000         143.000
  21854888.880     1617883.56049   1242061.30346  21854888.386    21854902.165
       234.000         186.000
  23012553.160    -2872291.90649  -2231504.59046  23012551.652    23012566.802
       225.000         176.000
  21494964.915    -2871047.67549  -2230270.97347  21494964.816    21494975.263
       239.000         197.000
 01  9 24 21 52 30.0000000  0  6G22G 1G 3G20G27G13
  21564757.650     2861757.18349   2220494.42947  21564757.429    21564770.295
       232.000         188.000
  20489291.117     -173832.07949   -131469.92348  20489290.509    20489301.990
       245.000         214.000
  23962127.711    -3105383.22749  -2108998.01645  23962127.145    23962145.888
       214.000         144.000
  21871979.218     1707692.96249   1312042.50746  21871979.074    21871992.828
       235.000         186.000
  23001340.119    -2931216.28949  -2277419.52946  23001338.635    23001353.368
       225.000         176.000
  21483186.281    -2932943.52049  -2278501.43147  21483186.839    21483195.988
       241.000         194.000
 01  9 24 21 53  0.0000000  0  6G22G 1G 3G20G27G13
  21578638.135     2934699.17749   2277332.27346  21578637.190    21578650.265
       231.000         187.000
  20488246.092     -179324.15249   -135749.45548  20488245.763    20488256.698
       245.000         214.000
  23950092.884    -3168627.04849  -2158278.67345  23950091.137    23950111.834
       215.000         145.000
  21889134.657     1797844.97749   1382290.65246  21889134.787    21889148.574
       234.000         186.000
  22990154.765    -2989994.96849  -2323220.96846  22990154.517    22990169.172
       226.000         176.000
  21471441.184    -2994664.43449  -2326595.57447  21471440.431    21471451.529
       239.000         195.000
 01  9 24 21 53 30.0000000  0  6G22G 1G 3G20G27G13
  21592607.022     3008106.64749   2334532.83046  21592606.320    21592619.632
       232.000         187.000
  20487258.999     -184511.35149   -139791.43148  20487258.486    20487269.668
       246.000         214.000
  23938100.134    -3231648.79749  -2207386.30045  23938098.389    23938119.426
       216.000         144.000
  21906354.929     1888336.97949   1452803.74946  21906354.896    21906368.037
       234.000         185.000
  22978997.159    -3048628.17949  -2368909.07846  22978995.642    22979010.636
       224.000         177.000
  21459729.694    -3056208.63449  -2374552.02947  21459730.298    21459740.680
       242.000         198.000
 01  9 24 21 54  0.0000000  0  6G22G 1G 3G20G27G13
  21606664.270     3081976.80549   2392093.92346  21606663.288    21606675.933
       232.000         187.000
  20486330.235     -189392.47249   -143594.89848  20486329.579    20486340.620
       244.000         214.000
  23926150.150    -3294445.60449  -2256318.64645  23926148.722    23926169.523
       215.000         145.000
  21923639.278     1979166.09149   1523579.53046  21923638.831    21923653.429
       235.000         186.000
  22967867.190    -3107115.80549  -2414483.71546  22967865.368    22967880.874
       224.000         176.000
  21448052.246    -3117574.56549  -2422369.55347  21448051.883    21448062.445
       239.000         198.000
 01  9 24 21 54 30.0000000  0  6G22G 1G 3G20G27G13
  21620808.909     3156307.30249   2450013.71046  21620807.826    21620820.945
       230.000         186.000
  20485459.857     -193965.96749   -147158.65948  20485459.402    20485470.181
       245.000         214.000
  23914243.368    -3357014.12649  -2305073.09745  23914241.895    23914261.742
       215.000         145.000
  21940987.469     2070330.24849   1594616.36246  21940987.191    21941001.082
       233.000         186.000
  22956764.888    -3165457.87349  -2459944.91146  22956763.933    22956779.059
       225.000         177.000
  21436408.801    -3178760.33849  -2470046.73047  21436409.652    21436418.789
       242.000         195.000
 01  9 24 21 55  0.0000000  0  6G22G 1G 3G20G27G13
  21635040.524     3231095.27949   2508289.97146  21635039.184    21635053.435
       230.000         186.000
  20484648.380     -198230.74549   -150481.86248  20484647.594    20484658.763
       244.000         213.000
  23902380.935    -3419351.56949  -2353647.48045  23902380.127    23902399.737
       211.000         145.000
  21958398.624     2161826.24849   1665911.78946  21958397.907    21958412.461
       233.000         184.000
  22945690.272    -3223654.64849  -2505292.87746  22945688.520    22945703.569
       225.000         177.000
  21424800.226    -3239764.46849  -2517582.32047  21424799.590    21424810.854
       240.000         199.000
 01  9 24 21 55 30.0000000  0  6G22G 1G 3G20G27G13
  21649358.845     3306337.97249   2566920.56846  21649358.741    21649371.444
       232.000         186.000
  20483895.787     -202185.55049   -153563.52248  20483895.264    20483906.255
       245.000         213.000
  23890562.699    -3481454.95849  -2402039.50445  23890561.618    23890580.437
       211.000         145.000
  21975872.492     2253651.73949   1737463.94946  21975872.630    21975886.288
       233.000         183.000
  22934643.247    -3281706.49849  -2550527.92246  22934642.457    22934656.954
       226.000         178.000
  21413226.116    -3300585.33849  -2564975.14547  21413225.383    21413237.203
       239.000         197.000
 01  9 24 21 56  0.0000000  0  6G22G 1G 3G20G27G13
  21663763.201     3382032.52449   2625903.24746  21663762.269    21663775.400
       231.000         186.000
  20483202.269     -205829.55649   -156403.00848  20483201.485    20483212.865
       243.000         213.000
  23878789.708    -3543321.90749  -2450247.28445  23878789.098    23878809.286
       209.000         145.000
  21993408.542     2345803.29249   1809270.19046  21993408.420    21993422.506
       234.000         185.000
  22923623.742    -3339613.85349  -2595650.38446  22923621.877    22923637.357
       225.000         178.000
  21401687.521    -3361221.53549  -2612224.07947  21401687.690    21401696.801
       241.000         198.000
 01  9 24 21 56 30.0000000  0  6G22G 1G 3G20G27G13
  21678252.719     3458175.78849   2685235.58246  21678251.928    21678265.052
       230.000         185.000
  20482568.134     -209161.65049   -158999.44848  20482567.574    20482578.803
       244.000         213.000
  23867062.096    -3604949.58449  -2498268.61545  23867061.187    23867081.179
       210.000         145.000
  22011006.008     2438278.13849   1881328.34446  22011005.338    22011019.550
       231.000         184.000
  22912631.514    -3397377.07849  -2640660.51346  22912630.736    22912645.496
       226.000         177.000
  21390184.086    -3421671.70949  -2659328.01147  21390184.773    21390194.472
       242.000         198.000
 01  9 24 21 57  0.0000000  0  6G22G 1G 3G20G27G13
  21692827.456     3534765.71649   2744915.96246  21692825.829    21692840.327
       230.000         185.000
  20481993.752     -212180.25549   -161351.60448  20481992.931    20482004.412
       244.000         213.000
  23855380.797    -3666334.36849  -2546100.67745  23855379.474    23855399.327
       212.000         145.000
  22028664.627     2531074.24549   1953636.82746  22028664.223    22028678.720
       233.000         182.000
  22901666.960    -3454995.92349  -2685558.13246  22901664.927    22901680.196
       225.000         178.000
  21378716.630    -3481933.74249  -2706285.37447  21378715.643    21378727.364
       239.000         197.000
 01  9 24 21 57 30.0000000  0  6G22G 1G 3G20G27G13
  21707486.322     3611799.20149   2804941.96046  21707486.130    21707498.991
       231.000         185.000
  20481479.164     -214884.39649   -163458.72548  20481478.577    20481489.839
       244.000         213.000
  23843746.053    -3727473.72849  -2593741.50845  23843745.009    23843764.874
       212.000         145.000
  22046383.720     2624188.30249   2026193.06046  22046383.037    22046398.163
       233.000         182.000
  22890729.712    -3512470.93049  -2730343.72146  22890729.038    22890742.870
       225.000         178.000
  21367285.196    -3542005.86249  -2753094.74947  21367285.366    21367295.427
       241.000         199.000
 01  9 24 21 58  0.0000000  0  7G22G 1G 3G20G31G27G13
  21722228.948     3689271.01849   2865309.51646  21722228.214    21722241.728
       230.000         185.000
  20481024.137     -217275.46449   -165321.89648  20481023.582    20481034.766
       245.000         213.000
  23832158.288    -3788367.20749  -2641190.74445  23832156.172    23832176.725
       210.000         146.000
  22064162.452     2717615.05749   2098992.95346  22064161.929    22064176.239
       233.000         182.000
  24614959.618    -4209801.71249  -3076766.49545  24614957.719    24614981.943
       205.000         135.000
  22879819.402    -3569804.74949  -2775019.28046  22879819.261    22879832.772
       226.000         179.000
  21355889.795    -3601889.14449  -2799756.97347  21355888.726    21355899.241
       238.000         197.000
 01  9 24 21 58 30.0000000  0  7G22G 1G 3G20G31G27G13
  21737054.418     3767178.74049   2926016.75146  21737053.341    21737067.325
       230.000         185.000
  20480629.014     -219351.96449   -166939.95448  20480628.396    20480639.729
       245.000         214.000
  23820617.828    -3849011.38249  -2688445.70845  23820616.470    23820636.279
       211.000         145.000
  22082000.253     2811352.27749   2172034.76246  22081999.820    22082014.802
       235.000         183.000
  24598041.651    -4298705.58249  -3146041.90345  24598040.671    24598063.204
       207.000         136.000
  22868935.843    -3626997.44049  -2819584.85646  22868934.906    22868949.381
       226.000         178.000
  21344530.631    -3661581.55649  -2846270.48547  21344530.849    21344541.881
       242.000         197.000
 01  9 24 21 59  0.0000000  0  7G22G 1G 3G20G31G27G13
  21751962.974     3845524.05249   2987064.95246  21751963.129    21751976.262
       231.000         185.000
  20480294.860     -221108.24949   -168308.48948  20480294.217    20480305.337
       245.000         214.000
  23809126.263    -3909399.14249  -2735500.89445  23809125.605    23809145.939
       208.000         145.000
  22099897.513     2905401.45649   2245319.64946  22099897.459    22099911.234
       233.000         182.000
  24581113.377    -4387662.82949  -3215358.88445  24581112.380    24581138.320
       206.000         136.000
  22858080.158    -3684044.68549  -2864037.13246  22858079.061    22858094.093
       226.000         179.000
  21333208.992    -3721077.06949  -2892630.53247  21333208.677    21333217.858
       241.000         198.000
 01  9 24 21 59 30.0000000  0  7G22G 1G 3G20G31G27G13
  21766954.423     3924303.01149   3048451.07446  21766952.992    21766967.268
       231.000         185.000
  20480021.713     -222544.28249   -169427.47948  20480021.256    20480032.090
       245.000         214.000
  23797683.768    -3969528.50849  -2782354.72545  23797683.217    23797703.035
       209.000         144.000
  22117853.164     2999758.57849   2318844.49746  22117853.619    22117867.699
       233.000         182.000
  24564175.223    -4476671.68349  -3284716.08145  24564172.607    24564196.505
       203.000         136.000
  22847251.744    -3740947.84949  -2908377.12846  22847250.767    22847264.918
       227.000         179.000
  21321924.930    -3780375.10149  -2938836.70647  21321923.589    21321935.638
       237.000         197.000
 01  9 24 22  0  0.0000000  0  7G22G 1G 3G20G31G27G13
  21782027.571     4003512.17949   3110172.41646  21782026.737    21782040.732
       230.000         184.000
  20479809.504     -223659.34949   -170296.37248  20479808.853    20479820.081
       245.000         214.000
  23786290.875    -4029397.25749  -2829005.47045  23786289.934    23786310.829
       210.000         146.000
  22135867.017     3094420.59849   2392606.92946  22135866.528    22135881.594
       234.000         183.000
  24547227.872    -4565729.79549  -3354111.67145  24547226.329    24547251.712
       205.000         137.000
  22836450.523    -3797707.57549  -2952605.33146  22836448.975    22836464.291
       226.000         179.000
  21310678.601    -3839474.37149  -2984888.03347  21310678.284    21310689.029
       241.000         197.000
 01  9 24 22  0 30.0000000  0  7G22G 1G 3G20G31G27G13
  21797181.903     4083148.47749   3172226.58246  21797180.436    21797194.190
       228.000         184.000
  20479658.543     -224452.71949   -170914.58948  20479657.848    20479669.271
       245.000         214.000
  23774947.883    -4089002.86449  -2875451.16345  23774946.897    23774967.666
       211.000         147.000
  22153938.066     3189384.11949   2466604.29546  22153937.988    22153951.613
       232.000         181.000
  24530271.619    -4654834.74649  -3423543.76045  24530269.648    24530294.538
       199.000         137.000
  22825676.492    -3854324.70049  -2996722.42046  22825675.094    22825689.855
       226.000         180.000
  21299470.405    -3898373.64449  -3030783.47947  21299470.543    21299479.844
       241.000         198.000
 01  9 24 22  1  0.0000000  0  7G22G 1G 3G20G31G27G13
  21812416.934     4163209.38249   3234611.62046  21812415.859    21812430.105
       230.000         184.000
  20479569.154     -224922.73349   -171280.84048  20479568.600    20479579.951
       245.000         214.000
  23763655.941    -4148342.11449  -2921689.32845  23763654.554    23763675.017
       210.000         148.000
  22172066.062     3284646.49249   2540834.51646  22172065.299    22172080.104
       230.000         179.000
  24513306.785    -4743983.28549  -3493009.80745  24513304.662    24513329.265
       203.000         136.000
  22814929.710    -3910799.06749  -3040728.29446  22814929.003    22814943.802
       228.000         180.000
  21288300.460    -3957071.16049  -3076521.70847  21288300.786    21288310.790
       241.000         198.000
 01  9 24 22  1 30.0000000  0  7G22G 1G 3G20G31G27G13
  21827732.254     4243691.57749   3297324.93546  21827731.566    21827744.760
       230.000         184.000
  20479541.349     -225068.75749   -171394.63348  20479540.599    20479551.967
       245.000         214.000
  23752414.874    -4207412.74349  -2967718.16545  23752413.956    23752434.980
       211.000         148.000
  22190250.219     3380204.59149   2615295.18046  22190249.690    22190264.185
       231.000         179.000
  24496334.078    -4833172.99149  -3562507.92745  24496331.792    24496356.370
       207.000         137.000
  22804209.843    -3967131.41849  -3084623.51146  22804209.594    22804222.378
       229.000         179.000
  21277169.275    -4015565.48349  -3122101.61947  21277169.432    21277178.668
       242.000         198.000
 01  9 24 22  2  0.0000000  0  7G22G 1G 3G20G31G27G13
  21843127.071     4324591.85249   3360364.02846  21843126.538    21843140.442
       230.000         183.000
  20479575.293     -224890.23849   -171255.52948  20479574.446    20479585.848
       244.000         213.000
  23741225.483    -4266212.25149  -3013535.72345  23741224.682    23741245.686
       214.000         148.000
  22208490.065     3476055.16149   2689983.74846  22208489.842    22208504.667
       231.000         179.000
  24479354.679    -4922401.04549  -3632035.92545  24479354.216    24479376.783
       206.000         139.000
  22793517.133    -4023322.43749  -3128408.63146  22793515.458    22793529.349
       227.000         179.000
  21266077.128    -4073855.19449  -3167522.10847  21266076.362    21266088.296
       240.000         199.000
 01  9 24 22  2 30.0000000  0  7G22G 1G 3G20G31G27G13
  21858601.005     4405907.53049   3423726.80846  21858600.116    21858613.427
       231.000         182.000
  20479671.283     -224385.74349   -170862.42048  20479670.529    20479681.722
       245.000         213.000
  23730088.582    -4324737.33849  -3059139.45345  23730087.872    23730107.742
       213.000         148.000
  22226785.153     3572195.70949   2764898.25146  22226783.898    22226799.744
       232.000         180.000
  24462368.009    -5011664.47849  -3701591.50545  24462365.697    24462390.117
       210.000         139.000
  22782851.080    -4079372.04049  -3172083.55046  22782849.921    22782864.339
       227.000         178.000
  21255024.051    -4131938.48849  -3212781.71747  21255023.284    21255033.407
       240.000         198.000
 01  9 24 22  3  0.0000000  0  7G22G 1G 3G20G31G27G13
  21874153.550     4487635.58249   3487410.92846  21874152.449    21874166.319
       229.000         182.000
  20479829.532     -223554.35949   -170214.58848  20479828.850    20479840.043
       245.000         213.000
  23719004.235    -4382985.47349  -3104527.37045  23719003.466    23719023.427
       212.000         149.000
  22245134.795     3668622.96449   2840036.17246  22245134.194    22245149.342
       231.000         180.000
  24445375.289    -5100960.69549  -3771172.64645  24445374.539    24445396.397
       211.000         139.000
  22772211.970    -4135280.79149  -3215648.68846  22772210.737    22772224.842
       227.000         178.000
  21244010.891    -4189813.90249  -3257879.39547  21244010.288    21244021.865
       240.000         201.000
 01  9 24 22  3 30.0000000  0  7G22G 1G 3G20G31G27G13
  21889783.796     4569773.25149   3551414.21646  21889782.519    21889797.154
       228.000         182.000
  20480050.166     -222394.89249   -169311.11748  20480049.497    20480060.927
       244.000         213.000
  23707973.184    -4440953.80549  -3149697.27945  23707972.362    23707992.066
       211.000         149.000
  22263538.453     3765334.19049   2915395.35946  22263538.393    22263552.968
       232.000         180.000
  24428377.145    -5190286.57749  -3840776.89745  24428375.018    24428399.929
       207.000         141.000
  22761599.512    -4191048.62249  -3259103.98946  22761598.473    22761612.499
       228.000         178.000
  21233037.366    -4247479.31549  -3302813.41747  21233038.034    21233046.441
       242.000         199.000
 01  9 24 22  4  0.0000000  0  7G22G 1G 3G20G31G27G13
  21905491.538     4652318.18749   3615734.85246  21905491.104    21905503.947
       229.000         181.000
  20480333.547     -220905.60049   -168150.63748  20480332.531    20480344.011
       243.000         213.000
  23696995.981    -4498639.03749  -3194646.56145  23696995.132    23697015.408
       214.000         150.000
  22281995.712     3862326.92749   2990973.92946  22281995.505    22282010.001
       232.000         179.000
  24411373.584    -5279638.80049  -3910401.66745  24411371.599    24411395.367
       209.000         142.000
  22751014.111    -4246675.27449  -3302449.28946  22751012.202    22751027.484
       228.000         179.000
  21222104.268    -4304933.11149  -3347582.51747  21222103.733    21222114.424
       241.000         200.000
 01  9 24 22  4 30.0000000  0  7G22G 1G 3G20G31G27G13
  21921276.328     4735267.29649   3680370.43346  21921275.057    21921289.894
       228.000         181.000
  20480679.844     -219085.53749   -166732.41448  20480679.181    20480690.227
       244.000         213.000
  23686073.105    -4556038.30849  -3239373.04245  23686072.014    23686091.558
       213.000         150.000
  22300506.009     3959598.36749   3066769.65846  22300505.142    22300521.108
       230.000         179.000
  24394365.583    -5369014.40549  -3980044.70245  24394364.643    24394387.422
       208.000         143.000
  22740455.195    -4302161.38149  -3345685.07046  22740454.741    22740468.179
       227.000         180.000
  21211211.678    -4362173.85649  -3392185.63747  21211212.093    21211221.598
       242.000         201.000
 01  9 24 22  5  0.0000000  0  7G22G 1G 3G20G31G27G13
  21937137.546     4818617.49549   3745318.54246  21937135.907    21937150.175
       227.000         181.000
  20481089.413     -216933.88249   -165055.80448  20481088.697    20481099.812
       245.000         213.000
  23675205.134    -4613149.25049  -3283874.84245  23675203.817    23675222.959
       212.000         150.000
  22319068.695     4057145.36949   3142780.08846  22319068.111    22319082.751
       231.000         177.000
  24377354.112    -5458410.40949  -4049703.67445  24377352.260    24377375.831
       209.000         143.000
  22729923.129    -4357507.43249  -3388811.72346  22729921.383    22729936.192
       227.000         180.000
  21200360.046    -4419199.18349  -3436620.89247  21200360.836    21200370.467
       242.000         200.000
 01  9 24 22  5 30.0000000  0  7G22G 1G 3G20G31G27G13
  21953074.496     4902366.33849   3810577.28746  21953073.653    21953086.853
       229.000         180.000
  20481562.286     -214449.10149   -163119.62348  20481561.620    20481572.772
       245.000         213.000
  23664392.665    -4669968.49849  -3328149.34745  23664390.094    23664410.658
       212.000         149.000
  22337683.283     4154965.37249   3219003.23546  22337683.004    22337698.214
       231.000         177.000
  24360338.930    -5547823.72349  -4119376.10145  24360337.090    24360361.861
       207.000         143.000
  22719417.509    -4412713.22149  -3431829.07246  22719416.595    22719431.039
       228.000         181.000
  21189549.824    -4476007.51449  -3480887.07247  21189550.230    21189559.119
       242.000         200.000
 01  9 24 22  6  0.0000000  0  7G22G 1G 3G20G31G27G13
  21969086.678     4986510.57649   3876144.12846  21969085.479    21969099.718
       228.000         180.000
  20482098.576     -211630.68949   -160923.46248  20482097.829    20482108.886
       244.000         213.000
  23653635.930    -4726493.92549  -3372194.90945  23653636.268    23653653.536
       211.000         148.000
  22356349.340     4253055.22849   3295436.69746  22356349.012    22356363.855
       231.000         176.000
  24343321.240    -5637251.61549  -4189059.90445  24343320.090    24343341.495
       209.000         142.000
  22708938.639    -4467779.53249  -3474737.76246  22708937.260    22708951.890
       229.000         181.000
  21178781.010    -4532597.46249  -3524983.04447  21178780.755    21178790.217
       241.000         200.000
 01  9 24 22  6 30.0000000  0  7G22G 1G 3G20G31G27G13
  21985173.559     5071047.66749   3942017.08946  21985172.762    21985186.694
       228.000         180.000
  20482698.666     -208477.08349   -158466.12548  20482697.923    20482709.286
       244.000         213.000
  23642935.902    -4782722.31549  -3416009.00645  23642934.487    23642953.696
       212.000         147.000
  22375066.242     4351412.27349   3372078.34846  22375066.104    22375081.729
       230.000         176.000
  24326301.422    -5726690.66449  -4258752.42945  24326299.523    24326323.055
       204.000         142.000
  22698486.413    -4522706.40649  -3517537.81746  22698485.535    22698499.310
       229.000         182.000
  21168054.222    -4588966.93349  -3568907.25047  21168054.181    21168065.018
       241.000         201.000
 01  9 24 22  7  0.0000000  0  7G22G 1G 3G20G31G27G13
  22001334.596     5155973.88949   4008193.27146  22001333.524    22001347.554
       228.000         180.000
  20483362.728     -204987.82149   -155747.22348  20483362.263    20483373.366
       245.000         213.000
  23632292.881    -4838651.37249  -3459589.87245  23632291.255    23632310.770
       209.000         146.000
  22393833.372     4450032.99949   3448925.43946  22393833.082    22393848.164
       230.000         177.000
  24309279.607    -5816138.83249  -4328452.01945  24309277.637    24309300.813
       212.000         143.000
  22688060.661    -4577494.62749  -3560229.84246  22688060.103    22688074.041
       230.000         183.000
  21157369.600    -4645115.02349  -3612658.97547  21157368.798    21157379.246
       240.000         201.000
 01  9 24 22  7 30.0000000  0  7G22G 1G 3G20G31G27G13
  22017569.254     5241287.17149   4074671.04646  22017568.544    22017582.300
       229.000         180.000
  20484090.955     -201161.10049   -152765.37348  20484090.219    20484101.523
       244.000         213.000
  23621707.406    -4894277.71149  -3502934.87145  23621705.044    23621723.725
       214.000         147.000
  22412650.265     4548915.21249   3525976.29046  22412650.455    22412665.643
       232.000         177.000
  24292257.164    -5905592.46949  -4398155.90145  24292254.552    24292277.899
       208.000         142.000
  22677661.207    -4632143.81149  -3602813.52646  22677660.782    22677674.372
       232.000         183.000
  21146727.524    -4701039.18549  -3656236.16847  21146727.305    21146737.129
       242.000         201.000
 01  9 24 22  8  0.0000000  0  7G22G 1G 3G20G31G27G13
  22033876.841     5326984.22849   4141447.86046  22033876.655    22033889.916
       227.000         179.000
  20484883.480     -196996.22649   -149520.02448  20484882.841    20484893.931
       244.000         213.000
  23611179.997    -4949598.72949  -3546041.94545  23611178.281    23611198.193
       212.000         147.000
  22431516.329     4648055.52149   3603228.26146  22431516.244    22431531.120
       233.000         177.000
  24275234.019    -5995048.83749  -4467861.90145  24275232.097    24275254.702
       208.000         141.000
  22667288.151    -4686654.48849  -3645289.24346  22667288.203    22667301.190
       232.000         183.000
  21136128.315    -4756738.30249  -3699638.02847  21136128.533    21136138.395
       243.000         201.000
 01  9 24 22  8 30.0000000  0  7G22G 1G 3G20G31G27G13
  22050257.043     5413062.57149   4208521.79146  22050256.475    22050270.314
       228.000         179.000
  20485740.719     -192491.62549   -146009.96248  20485740.187    20485751.011
       244.000         213.000
  23600711.262    -5004611.42649  -3588908.77245  23600710.398    23600728.644
       210.000         148.000
  22450430.967     4747451.54149   3680679.48346  22450430.930    22450446.246
       231.000         177.000
  24258210.791    -6084504.40649  -4537567.22445  24258208.562    24258232.711
       207.000         140.000
  22656941.476    -4741026.71349  -3687657.09046  22656940.986    22656953.699
       231.000         182.000
  21125572.506    -4812209.37749  -3742862.18347  21125573.200    21125582.243
       244.000         202.000
 01  9 24 22  9  0.0000000  0  7G22G 1G 3G20G31G27G13
  22066709.331     5499519.20449   4275890.48646  22066709.175    22066722.614
       229.000         179.000
  20486662.709     -187646.52949   -142234.56648  20486662.109    20486673.183
       244.000         213.000
  23590301.588    -5059313.36049  -3631533.43445  23590300.405    23590319.760
       210.000         149.000
  22469393.721     4847100.44449   3758327.75746  22469393.313    22469408.688
       226.000         176.000
  24241188.486    -6173956.41349  -4607269.82845  24241188.055    24241210.152
       206.000         139.000
  22646620.995    -4795260.73349  -3729917.24646  22646620.151    22646633.322
       229.000         182.000
  21115060.261    -4867451.23849  -3785907.73747  21115060.828    21115070.564
       243.000         202.000
 01  9 24 22  9 30.0000000  0  7G22G 1G 3G20G31G27G13
  22083233.164     5586351.29949   4343551.74246  22083232.386    22083245.924
       227.000         179.000
  20487649.755     -182459.65749   -138192.86448  20487648.996    20487660.311
       244.000         213.000
  23579951.801    -5113701.09549  -3673913.29745  23579950.730    23579970.073
       212.000         150.000
  22488403.858     4946999.23349   3836170.72546  22488403.092    22488419.118
       227.000         175.000
  24224167.111    -6263401.43749  -4676966.99345  24224166.678    24224187.533
       204.000         138.000
  22636326.672    -4849356.67949  -3772069.79946  22636325.638    22636339.816
       229.000         182.000
  21104592.161    -4922461.99749  -3828773.22547  21104591.325    21104600.708
       241.000         202.000
 01  9 24 22 10  0.0000000  0  7G22G 1G 3G20G31G27G13
  22099827.729     5673555.83249   4411503.21446  22099827.218    22099840.913
       228.000         178.000
  20488701.975     -176930.18849   -133884.19348  20488701.387    20488712.515
       245.000         213.000
  23569662.062    -5167772.38249  -3716046.52145  23569661.823    23569680.201
       215.000         150.000
  22507461.117     5047144.83849   3914206.01846  22507460.959    22507476.867
       225.000         173.000
  24207148.312    -6352836.74249  -4746656.58645  24207146.052    24207169.343
       206.000         138.000
  22626058.620    -4903315.12349  -3814115.22546  22626058.166    22626071.392
       230.000         183.000
  21094168.087    -4977240.40449  -3871457.63447  21094167.362    21094177.739
       241.000         202.000
 01  9 24 22 10 30.0000000  0  7G22G 1G 3G20G31G27G13
  22116492.589     5761129.40649   4479742.24746  22116492.381    22116505.422
       227.000         178.000
  20489819.526     -171057.53849   -129308.11548  20489818.774    20489829.897
       245.000         213.000
  23559433.003    -5221524.95649  -3757931.43045  23559431.735    23559451.316
       214.000         152.000
  22526564.712     5147533.96649   3992431.10046  22526564.694    22526579.597
       227.000         171.000
  24190131.254    -6442259.91049  -4816336.66045  24190128.932    24190153.189
       208.000         140.000
  22615816.627    -4957136.76249  -3856054.03546  22615815.817    22615829.319
       231.000         183.000
  21083788.652    -5031784.83249  -3913959.73747  21083787.558    21083799.870
       241.000         203.000
 01  9 24 22 11  0.0000000  0  7G22G 1G 3G20G31G27G13
  22133227.313     5849069.64349   4548267.01146  22133226.106    22133240.138
       228.000         178.000
  20491002.708     -164839.92649   -124463.23448  20491001.935    20491013.147
       244.000         213.000
  23549265.507    -5274955.34449  -3799565.28145  23549264.214    23549283.308
       215.000         153.000
  22545714.281     5248164.26549   4070844.09446  22545714.746    22545730.031
       229.000         172.000
  24173117.507    -6531667.01249  -4886004.27045  24173116.100    24173138.256
       208.000         140.000
  22605600.702    -5010821.00649  -3897885.76946  22605599.519    22605613.117
       229.000         183.000
  21073454.218    -5086092.64849  -3956277.46647  21073452.752    21073463.097
       240.000         202.000
 01  9 24 22 11 30.0000000  0  7G22G 1G 3G20G31G27G13
  22150030.946     5937373.14949   4617074.82146  22150030.913    22150043.779
       228.000         177.000
  20492251.631     -158276.98649   -119349.26748  20492251.020    20492262.117
       245.000         213.000
  23539159.761    -5328061.50249  -3840946.48645  23539158.480    23539176.950
       213.000         155.000
  22564909.069     5349032.19349   4149442.25646  22564909.168    22564924.115
       228.000         172.000
  24156107.145    -6621055.86049  -4955657.62845  24156104.917    24156128.836
       205.000         140.000
  22595410.833    -5064368.86449  -3939611.23446  22595409.214    22595423.306
       228.000         183.000
  21063164.823    -5140163.00849  -3998410.13847  21063164.445    21063174.090
       242.000         202.000
 01  9 24 22 12  0.0000000  0  7G22G 1G 3G20G31G27G13
  22166903.336     6026038.06249   4686164.27446  22166902.813    22166916.274
       229.000         177.000
  20493566.666     -151366.47349   -113964.46548  20493565.940    20493577.022
       245.000         213.000
  23529116.094    -5380839.62149  -3882072.06645  23529116.242    23529133.405
       217.000         155.000
  22584148.736     5450136.06549   4228224.27246  22584148.799    22584163.867
       227.000         172.000
  24139101.168    -6710421.94349  -5025293.24845  24139099.699    24139121.752
       205.000         140.000
  22585246.859    -5117779.61149  -3981229.88046  22585246.219    22585260.371
       231.000         183.000
  21052921.346    -5193992.87449  -4040355.42047  21052919.937    21052931.613
       241.000         202.000
 01  9 24 22 12 30.0000000  0  7G22G 1G 3G20G31G27G13
  22183843.803     6115060.90149   4755532.60846  22183843.665    22183857.040
       227.000         176.000
  20494947.922     -144108.11349   -108308.61248  20494947.233    20494958.505
       244.000         213.000
  23519135.379    -5433287.73249  -3922940.48845  23519133.543    23519152.522
       217.000         155.000
  22603432.564     5551472.29749   4307187.33846  22603432.439    22603447.711
       229.000         171.000
  24122099.733    -6799762.88649  -5094909.25345  24122098.289    24122119.683
       207.000         139.000
  22575109.006    -5171054.24749  -4022742.47546  22575108.198    22575121.936
       230.000         184.000
  21042723.669    -5247581.27749  -4082112.56147  21042722.646    21042733.042
       241.000         203.000
 01  9 24 22 13  0.0000000  0  7G22G 1G 3G20G31G27G13
  22200851.862     6204438.60949   4825177.47846  22200851.430    22200864.571
       228.000         176.000
  20496395.505     -136500.74949   -102380.81547  20496394.691    20496405.836
       243.000         212.000
  23509218.172    -5485402.85849  -3963549.47745  23509216.738    23509235.615
       213.000         154.000
  22622760.083     5653037.98949   4386329.19946  22622759.549    22622774.994
       226.000         170.000
  24105103.890    -6889075.40349  -5164503.10245  24105101.376    24105124.629
       207.000         140.000
  22564996.996    -5224192.90149  -4064149.10846  22564996.138    22565009.037
       230.000         184.000
  21032572.433    -5300926.33749  -4123680.09247  21032571.464    21032582.755
       240.000         202.000
 01  9 24 22 13 30.0000000  0  7G22G 1G 3G20G31G27G13
  22217926.945     6294167.88249   4895096.30246  22217926.440    22217939.997
       228.000         176.000
  20497909.648     -128543.84449    -96180.63447  20497909.033    20497920.017
       245.000         212.000
  23499364.498    -5537183.15149  -4003897.53945  23499363.309    23499382.078
       214.000         154.000
  22642130.555     5754829.49949   4465647.03146  22642130.189    22642145.997
       224.000         170.000
  24088113.995    -6978357.16649  -5234072.98145  24088113.096    24088134.713
       205.000         140.000
  22554910.842    -5277196.32549  -4105450.38146  22554910.011    22554923.872
       231.000         184.000
  21022467.718    -5354026.54549  -4165056.81147  21022467.019    21022477.552
       241.000         202.000
 01  9 24 22 14  0.0000000  0  7G22G 1G 3G20G31G27G13
  22235068.314     6384246.26249   4965287.14946  22235068.362    22235081.813
       229.000         175.000
  20499490.531     -120236.06949    -89707.06647  20499489.958    20499501.216
       244.000         212.000
  23489575.313    -5588625.12549  -4043981.99945  23489575.056    23489591.148
       214.000         155.000
  22661543.503     5856844.60249   4545139.07646  22661543.250    22661557.917
       224.000         169.000
  24071130.481    -7067604.61349  -5303616.12445  24071129.284    24071150.404
       206.000         140.000
  22544850.329    -5330064.31449  -4146646.09946  22544848.916    22544863.133
       227.000         183.000
  21012410.048    -5406879.81149  -4206241.12247  21012409.911    21012419.782
       242.000         204.000
 01  9 24 22 14 30.0000000  0  7G22G 1G 3G20G31G27G13
  22252275.827     6474671.07149   5035747.92346  22252275.550    22252288.591
       227.000         175.000
  20501138.549     -111576.07349    -82959.03148  20501137.858    20501149.089
       245.000         213.000
  23479850.881    -5639726.11949  -4083800.72245  23479849.039    23479868.021
       219.000         156.000
  22680998.523     5959080.76649   4624803.38446  22680998.372    22681014.005
       225.000         168.000
  24054154.172    -7156814.25249  -5373129.77945  24054154.106    24054174.924
       209.000         140.000
  22534815.456    -5382796.86149  -4187736.29046  22534814.892    22534828.095
       228.000         183.000
  21002399.722    -5459484.13949  -4247231.44347  21002399.331    21002408.457
       241.000         203.000
 01  9 24 22 15  0.0000000  0  7G22G 1G 3G20G31G27G13
  22269548.501     6565439.13549   5106476.17846  22269548.992    22269561.601
       228.000         175.000
  20502853.715     -102563.18449    -75936.01448  20502853.090    20502864.333
       245.000         213.000
  23470191.971    -5690483.77749  -4123351.92745  23470190.865    23470209.278
       218.000         157.000
  22700495.001     6061534.61949   4704637.30446  22700495.374    22700509.064
       227.000         168.000
  24037185.930    -7245983.22749  -5442611.74945  24037183.814    24037206.181
       209.000         141.000
  22524806.379    -5435394.50049  -4228721.32146  22524804.492    22524818.774
       226.000         182.000
  20992437.102    -5511837.80049  -4288026.43647  20992436.479    20992446.662
       241.000         203.000
 01  9 24 22 15 30.0000000  0  7G22G 1G 3G20G31G27G13
  22286886.001     6656547.64449   5177469.71846  22286884.881    22286898.806
       226.000         175.000
  20504636.183      -93196.14749    -68637.04548  20504635.686    20504646.724
       245.000         213.000
  23460598.970    -5740895.16249  -4162633.32845  23460598.316    23460614.972
       216.000         156.000
  22720032.515     6164203.42849   4784638.72846  22720031.859    22720049.113
       225.000         168.000
  24020225.520    -7335108.39149  -5512059.55745  24020224.704    24020245.905
       207.000         143.000
  22514822.913    -5487857.37849  -4269601.37446  22514822.033    22514834.312
       230.000         182.000
  20982522.584    -5563938.94849  -4328624.68247  20982521.922    20982531.627
       241.000         204.000
 01  9 24 22 16  0.0000000  0  7G22G 1G 3G20G31G27G13
  22304287.670     6747993.31049   5248725.98246  22304286.933    22304300.517
       227.000         174.000
  20506486.211      -83474.56649    -61061.80648  20506485.735    20506496.927
       246.000         213.000
  23451072.169    -5790957.95249  -4201643.08645  23451071.271    23451089.218
       217.000         157.000
  22739609.967     6267083.74049   4864804.95946  22739610.765    22739626.025
       225.000         167.000
  24003274.358    -7424186.92849  -5581471.06945  24003273.510    24003293.740
       206.000         144.000
  22504865.030    -5540186.18149  -4310376.97146  22504863.557    22504878.216
       228.000         182.000
  20972656.322    -5615786.07749  -4369024.98947  20972656.592    20972666.158
       243.000         203.000
 01  9 24 22 16 30.0000000  0  7G22G 1G 3G20G31G27G13
  22321752.835     6839773.56149   5320242.97146  22321751.823    22321766.284
       226.000         173.000
  20508403.909      -73397.11949    -53209.26948  20508403.418    20508414.498
       245.000         213.000
  23441612.249    -5840669.14149  -4240378.87445  23441611.920    23441628.639
       218.000         156.000
  22759227.477     6370173.06149   4945134.06046  22759226.066    22759243.119
       223.000         166.000
  23986332.450    -7513215.34549  -5650843.47145  23986329.899    23986353.013
       206.000         146.000
  22494932.655    -5592380.74449  -4351047.93246  22494932.153    22494945.943
       231.000         185.000
  20962838.934    -5667377.18349  -4409225.78747  20962838.749    20962849.148
       242.000         204.000
 01  9 24 22 17  0.0000000  0  7G22G 1G 3G20G31G27G13
  22339281.217     6931885.60549   5392018.48546  22339280.718    22339294.642
       228.000         174.000
  20510389.561      -62962.51349    -45078.42448  20510389.033    20510400.071
       245.000         213.000
  23432219.703    -5890026.13749  -4278838.64745  23432219.482    23432237.142
       215.000         156.000
  22778884.030     6473468.55849   5025623.80546  22778883.337    22778900.856
       222.000         166.000
  23969400.557    -7602190.19749  -5720174.17645  23969398.671    23969420.552
       207.000         145.000
  22485026.009    -5644441.10149  -4391614.31846  22485025.271    22485037.834
       231.000         187.000
  20953070.455    -5718710.08949  -4449225.39947  20953069.952    20953079.682
       242.000         204.000
 01  9 24 22 17 30.0000000  0  7G22G 1G 3G20G31G27G13
  22356872.247     7024325.94949   5464049.81146  22356871.820    22356885.170
       227.000         174.000
  20512443.291      -52170.41549    -36669.01248  20512442.611    20512453.880
       245.000         213.000
  23422895.070    -5939026.69849  -4317020.69345  23422893.418    23422912.597
       214.000         156.000
  22798579.251     6576966.82549   5106271.57846  22798579.132    22798596.552
       221.000         165.000
  23952479.693    -7691108.99249  -5789461.18745  23952477.425    23952498.590
       208.000         144.000
  22475144.526    -5696368.16249  -4432076.86046  22475144.052    22475156.652
       230.000         186.000
  20943351.452    -5769783.67549  -4489022.94047  20943351.400    20943361.030
       242.000         204.000
 01  9 24 22 18  0.0000000  0  7G22G 1G 3G20G31G27G13
  22374525.223     7117092.17949   5536335.08246  22374524.949    22374539.475
       227.000         173.000
  20514565.284      -41019.48249    -27979.98848  20514564.542    20514575.851
       245.000         213.000
  23413638.778    -5987668.02149  -4354922.83745  23413638.166    23413655.122
       216.000         157.000
  22818312.727     6680665.30449   5187075.33746  22818311.202    22818328.570
       220.000         165.000
  23935570.189    -7779968.27949  -5858701.83345  23935567.931    23935590.715
       209.000         145.000
  22465288.196    -5748161.94949  -4472435.54646  22465287.055    22465301.260
       229.000         185.000
  20933682.169    -5820595.82549  -4528616.76047  20933681.564    20933691.183
       241.000         204.000
 01  9 24 22 18 30.0000000  0  7G22G 1G 3G20G31G27G13
  22392239.619     7210180.99249   5608871.71946  22392238.306    22392252.884
       225.000         174.000
  20516755.697      -29508.89149    -19010.71548  20516755.216    20516766.164
       245.000         213.000
  23404451.355    -6035947.74049  -4392543.20845  23404450.696    23404467.714
       218.000         157.000
  22838083.479     6784560.91049   5268032.69746  22838082.844    22838099.790
       223.000         164.000
  23918672.544    -7868765.04049  -5927893.75745  23918670.999    23918692.353
       208.000         144.000
  22455457.379    -5799822.79649  -4512690.64746  22455456.831    22455469.318
       230.000         185.000
  20924063.001    -5871144.47049  -4568005.25047  20924062.423    20924072.523
       241.000         205.000
 01  9 24 22 19  0.0000000  0  7G22G 1G 3G20G31G27G13
  22410014.825     7303589.67849   5681657.60846  22410014.080    22410028.205
       224.000         173.000
  20519014.703      -17637.62649     -9760.39148  20519014.032    20519025.205
       245.000         213.000
  23395333.094    -6083863.08849  -4429879.66145  23395332.718    23395350.081
       220.000         158.000
  22857891.177     6888650.89449   5349141.53046  22857890.672    22857907.449
       224.000         164.000
  23901787.433    -7957496.15849  -5997034.51245  23901785.188    23901807.282
       208.000         143.000
  22445651.974    -5851350.82049  -4552842.23546  22445651.639    22445663.494
       231.000         185.000
  20914494.304    -5921428.05449  -4607187.21247  20914493.557    20914504.102
       241.000         205.000
 01  9 24 22 19 30.0000000  0  7G22G 1G 3G20G31G27G13
  22427850.150     7397315.03949   5754690.25246  22427848.524    22427863.291
       223.000         172.000
  20521342.471       -5405.09749      -228.56748  20521341.711    20521353.138
       244.000         213.000
  23386284.961    -6131411.80549  -4466930.43645  23386282.344    23386300.598
       216.000         159.000
  22877735.408     6992931.82549   5430399.14646  22877735.403    22877752.020
       224.000         164.000
  23884914.934    -8046158.68549  -6066121.83845  23884912.299    23884933.474
       210.000         142.000
  22435871.619    -5902746.57649  -4592890.75846  22435870.550    22435883.676
       232.000         185.000
  20904976.364    -5971444.90049  -4646161.31747  20904976.346    20904986.057
       245.000         206.000
 01  9 24 22 20  0.0000000  0  7G22G 1G 3G20G31G27G13
  22445745.340     7491354.88549   5827967.94346  22445743.975    22445757.798
       224.000         172.000
  20523739.295        7190.39349      9586.09448  20523738.521    20523749.773
       244.000         213.000
  23377306.911    -6178590.35449  -4503692.78745  23377306.258    23377322.895
       219.000         158.000
  22897615.585     7097401.66049   5511803.94846  22897615.151    22897631.439
       222.000         164.000
  23868056.604    -8134748.73449  -6135152.67445  23868053.770    23868076.127
       212.000         142.000
  22426116.524    -5954009.46849  -4632835.76046  22426116.173    22426128.513
       233.000         186.000
  20895509.829    -6021192.25649  -4684925.43147  20895509.770    20895518.697
       245.000         206.000
 01  9 24 22 20 30.0000000  0  7G22G 1G 3G20G31G27G13
  22463699.750     7585705.37149   5901487.70646  22463698.455    22463713.090
       224.000         172.000
  20526205.202       20148.89049     19683.61947  20526204.554    20526215.560
       244.000         212.000
  23368399.771    -6225397.35649  -4540165.61345  23368398.944    23368416.369
       220.000         158.000
  22917531.000     7202056.38149   5593352.81946  22917531.263    22917548.014
       224.000         164.000
  23851212.494    -8223263.89049  -6204125.14145  23851210.890    23851231.727
       213.000         143.000
  22416386.593    -6005140.73349  -4672678.16547  22416386.049    22416397.544
       234.000         188.000
  20886094.622    -6070669.47949  -4723479.05447  20886094.248    20886104.710
       245.000         206.000
 01  9 24 22 21  0.0000000  0  7G22G 1G 3G20G31G27G13
  22481712.674     7680363.92149   5975247.50646  22481711.815    22481726.523
       223.000         171.000
  20528740.413       33471.61249     30064.95747  20528739.719    20528751.207
       244.000         212.000
  23359563.879    -6271829.91349  -4576346.68245  23359563.221    23359579.165
       217.000         159.000
  22937481.356     7306893.73649   5675044.00846  22937481.222    22937497.374
       221.000         166.000
  23834383.145    -8311700.31349  -6273036.25645  23834380.632    23834402.631
       212.000         143.000
  22406681.628    -6056140.44349  -4712418.08147  22406680.808    22406693.930
       233.000         188.000
  20876731.202    -6119874.44249  -4761820.54147  20876731.040    20876740.813
       244.000         207.000
 01  9 24 22 21 30.0000000  0  7G22G 1G 3G20G31G27G13
  22499783.730     7775327.90749   6049245.30646  22499783.394    22499797.483
       224.000         171.000
  20531345.174       47159.67749     40730.97248  20531344.736    20531355.896
       245.000         213.000
  23350799.662    -6317885.21949  -4612233.79445  23350798.698    23350815.817
       219.000         159.000
  22957465.485     7411910.87649   5756875.28146  22957465.327    22957482.433
       224.000         167.000
  23817569.687    -8400054.63649  -6341883.41045  23817568.001    23817588.258
       211.000         143.000
  22397001.692    -6107008.45749  -4752055.37147  22397000.509    22397013.066
       233.000         188.000
  20867420.039    -6168804.76249  -4799947.99847  20867419.276    20867429.079
       244.000         207.000
 01  9 24 22 22  0.0000000  0  7G22G 1G 3G20G31G27G13
  22517912.510     7870594.16449   6123478.65246  22517912.054    22517925.908
       224.000         171.000
  20534019.601       61213.70949     51682.16348  20534019.154    20534030.212
       245.000         213.000
  23342107.819    -6363560.98649  -4647825.15645  23342106.306    23342124.322
       218.000         160.000
  22977483.454     7517104.68849   5838844.20446  22977482.740    22977500.406
       224.000         168.000
  23800772.265    -8488324.24649  -6410664.54745  23800770.150    23800790.918
       210.000         143.000
  22387346.556    -6157745.32449  -4791590.46646  22387345.064    22387358.221
       233.000         187.000
  20858161.446    -6217458.82749  -4837860.19947  20858160.846    20858171.016
       244.000         207.000
 01  9 24 22 22 30.0000000  0  7G22G 1G 3G20G31G27G13
  22536098.136     7966159.80149   6197945.26946  22536097.464    22536111.330
       224.000         171.000
  20536763.793       75634.67049     62919.26448  20536763.215    20536774.696
       245.000         213.000
  23333488.531    -6408854.76449  -4683118.87245  23333488.082    23333505.262
       220.000         160.000
  22997534.518     7622472.25949   5920948.53646  22997534.088    22997551.528
       224.000         167.000
  23783991.548    -8576505.85549  -6479377.08645  23783989.117    23784009.354
       211.000         144.000
  22377716.561    -6208351.17749  -4831023.48147  22377716.299    22377728.400
       234.000         188.000
  20848955.738    -6265835.03649  -4875555.89447  20848955.419    20848965.525
       244.000         207.000
 01  9 24 22 23  0.0000000  0  7G22G 1G 3G20G31G27G13
  22554339.954     8062021.75349   6272642.78146  22554338.366    22554352.485
       222.000         171.000
  20539577.966       90423.29049     74442.85248  20539577.277    20539588.760
       244.000         213.000
  23324942.413    -6453764.13149  -4718113.02145  23324941.089    23324959.324
       219.000         159.000
  23017617.924     7728010.42349   6003185.79846  23017618.294    23017635.801
       225.000         167.000
  23767228.301    -8664596.31949  -6548018.64945  23767227.781    23767246.707
       214.000         144.000
  22368111.439    -6258826.56849  -4870354.82347  22368109.840    22368124.499
       231.000         188.000
  20839803.189    -6313931.50549  -4913033.61147  20839803.264    20839812.213
       245.000         207.000
 01  9 24 22 23 30.0000000  0  7G22G 1G 3G20G31G27G13
  22572637.880     8158177.60549   6347569.30446  22572637.698    22572650.974
       225.000         171.000
  20542462.401      105580.96049     86254.00648  20542461.910    20542473.068
       244.000         213.000
  23316470.045    -6498285.99649  -4752805.24145  23316468.924    23316486.324
       217.000         158.000
  23037733.382     7833716.77749   6085554.10446  23037732.869    23037750.707
       224.000         166.000
  23750482.820    -8752591.95849  -6616586.29745  23750481.044    23750501.976
       211.000         145.000
  22358530.822    -6309171.22949  -4909584.32646  22358530.032    22358542.752
       232.000         186.000
  20830704.363    -6361746.03749  -4950291.63347  20830704.323    20830713.899
       245.000         208.000
 01  9 24 22 24  0.0000000  0  7G22G 1G 3G20G31G27G13
  22590991.299     8254623.98849   6422722.20246  22590991.052    22591005.449
       224.000         170.000
  20545417.164      121108.13349     98353.08748  20545416.484    20545427.922
       244.000         213.000
  23308071.784    -6542418.54549  -4787194.09445  23308070.778    23308086.835
       218.000         158.000
  23057880.179     7939587.70049   6168050.66046  23057880.002    23057896.732
       223.000         166.000
  23733756.307    -8840489.78849  -6685077.76845  23733754.634    23733775.747
       211.000         147.000
  22348975.360    -6359385.79649  -4948712.47546  22348974.807    22348987.116
       233.000         187.000
  20821659.627    -6409276.75549  -4987328.50347  20821659.075    20821669.760
       244.000         207.000
 01  9 24 22 24 30.0000000  0  7G22G 1G 3G20G31G27G13
  22609399.256     8351357.65249   6498098.99146  22609399.119    22609413.442
       222.000         170.000
  20548442.327      137005.24449    110740.43747  20548441.720    20548452.761
       244.000         212.000
  23299748.002    -6586159.54849  -4821277.86645  23299747.940    23299763.701
       216.000         157.000
  23078057.614     8045620.12249   6250673.03946  23078057.953    23078074.412
       222.000         165.000
  23717048.776    -8928287.28649  -6753491.04945  23717047.440    23717067.114
       207.000         148.000
  22339444.334    -6409470.97149  -4987739.78046  22339443.475    22339456.161
       233.000         187.000
  20812669.057    -6456522.55749  -5024143.35547  20812668.959    20812678.440
       245.000         207.000
 01  9 24 22 25  0.0000000  0  7G22G 1G 3G20G31G27G13
  22627861.359     8448376.71749   6573698.13546  22627859.169    22627875.337
       220.000         169.000
  20551538.159      153274.18249    123417.51347  20551537.766    20551548.920
       244.000         212.000
  23291499.487    -6629505.40349  -4855053.70745  23291499.510    23291515.631
       216.000         156.000
  23098265.624     8151812.30649   6333419.90846  23098265.883    23098282.926
       224.000         165.000
  23700361.034    -9015979.90649  -6821822.61945  23700359.912    23700380.155
       210.000         148.000
  22329938.186    -6459425.97049  -5026665.66147  22329937.776    22329950.094
       233.000         188.000
  20803733.162    -6503480.53249  -5060733.93247  20803733.075    20803742.606
       245.000         207.000
 01  9 24 22 25 30.0000000  0  7G22G 1G 3G20G31G27G13
  22646377.006     8545677.52249   6649516.82646  22646376.240    22646391.896
       223.000         169.000
  20554704.826      169915.00949    136384.37947  20554704.384    20554715.536
       245.000         212.000
  23283326.322    -6672454.80149  -4888520.62745  23283325.459    23283343.082
       215.000         155.000
  23118503.210     8258160.39249   6416288.27046  23118503.043    23118520.942
       224.000         165.000
  23683693.946    -9103565.38849  -6890070.69645  23683691.452    23683712.508
       211.000         148.000
  22320456.630    -6509251.74149  -5065490.82747  22320455.820    22320468.556
       233.000         188.000
  20794852.315    -6550149.56849  -5097099.35947  20794851.664    20794862.116
       244.000         207.000
 01  9 24 22 26  0.0000000  0  7G22G 1G 3G20G31G27G13
  22664946.121     8643257.08749   6725552.73546  22664944.545    22664959.876
       222.000         168.000
  20557942.385      186928.42449    149641.57647  20557941.693    20557952.869
       244.000         212.000
  23275229.216    -6715005.20049  -4921676.63945  23275227.975    23275246.164
       215.000         155.000
  23138769.930     8364661.20549   6499275.64346  23138770.303    23138787.442
       223.000         165.000
  23667047.759    -9191040.36049  -6958232.67645  23667045.385    23667065.578
       208.000         149.000
  22310999.644    -6558948.68349  -5104215.62247  22310999.407    22311010.940
       234.000         189.000
  20786026.706    -6596527.83349  -5133238.22747  20786026.283    20786036.309
       244.000         207.000
 01  9 24 22 26 30.0000000  0  7G22G 1G 3G20G31G27G13
  22683567.537     8741112.77149   6801803.78846  22683567.773    22683581.618
       224.000         168.000
  20561251.033      204315.39649    163189.85847  20561250.622    20561261.929
       244.000         212.000
  23267208.255    -6757154.04349  -4954519.73945  23267206.758    23267224.983
       216.000         155.000
  23159065.197     8471312.37049   6582380.14646  23159065.263    23159082.553
       226.000         165.000
  23650423.022    -9278401.45449  -7026305.91345  23650422.014    23650442.253
       212.000         149.000
  22301567.044    -6608516.87749  -5142840.10247  22301565.837    22301578.600
       232.000         188.000
  20777256.924    -6642613.36949  -5169148.98447  20777256.665    20777266.115
       244.000         207.000
 01  9 24 22 27  0.0000000  0  7G22G 1G 3G20G31G27G13
  22702241.063     8839241.92849   6878267.94646  22702241.036    22702254.455
       223.000         168.000
  20564631.061      222077.38349    177030.35247  20564630.483    20564641.492
       245.000         212.000
  23259264.381    -6798898.82249  -4987047.98645  23259262.438    23259281.239
       215.000         155.000
  23179388.718     8578111.22749   6665599.74446  23179388.223    23179404.973
       223.000         164.000
  23633820.901    -9365645.07049  -7094287.60945  23633819.177    23633838.965
       213.000         149.000
  22292158.833    -6657956.19549  -5181364.16847  22292158.380    22292170.754
       234.000         188.000
  20768543.237    -6688403.84349  -5204829.81947  20768542.897    20768553.034
       245.000         208.000
 01  9 24 22 27 30.0000000  0  7G22G 1G 3G20G31G27G13
  22720965.979     8937641.51149   6954942.82746  22720964.424    22720979.719
       220.000         166.000
  20568082.543      240214.84349    191163.42247  20568082.143    20568093.097
       244.000         212.000
  23251397.866    -6840237.33649  -5019259.68845  23251396.903    23251413.888
       214.000         154.000
  23199739.626     8685054.46349   6748931.82146  23199738.645    23199756.849
       224.000         163.000
  23617241.539    -9452768.10549  -7162175.34645  23617239.965    23617260.624
       213.000         151.000
  22282775.318    -6707267.15849  -5219788.23447  22282774.456    22282788.448
       234.000         191.000
  20759885.886    -6733897.85049  -5240279.65347  20759886.030    20759895.244
       245.000         207.000
 01  9 24 22 28  0.0000000  0  7G22G 1G 3G20G31G27G13
  22739741.777     9036308.84449   7031826.33046  22739741.325    22739755.099
       222.000         167.000
  20571605.631      258728.77049    205589.84947  20571605.214    20571616.105
       246.000         212.000
  23243609.065    -6881166.82349  -5051152.63145  23243607.725    23243624.810
       217.000         155.000
  23220117.327     8792139.44249   6832374.38645  23220117.487    23220134.353
       222.000         161.000
  23600686.015    -9539767.30549  -7229966.59645  23600685.635    23600704.059
       213.000         151.000
  22273415.989    -6756449.66349  -5258112.17947  22273414.726    22273427.367
       233.000         189.000
  20751285.480    -6779093.08149  -5275496.67147  20751284.954    20751294.854
       244.000         208.000
 01  9 24 22 28 30.0000000  0  7G22G 1G 3G20G31G27G13
  22758567.878     9135240.67249   7108915.93746  22758566.762    22758581.483
       221.000         166.000
  20575200.437      277619.42449    220309.83247  20575199.906    20575211.148
       246.000         212.000
  23235898.609    -6921685.58949  -5082725.55145  23235898.053    23235914.595
       218.000         156.000
  23240521.487     8899362.68449   6915924.66145  23240521.752    23240538.155
       222.000         161.000
  23584154.579    -9626639.72349  -7297659.05445  23584152.981    23584172.625
       214.000         152.000
  22264081.192    -6805504.38749  -5296336.56947  22264080.957    22264093.160
       234.000         190.000
  20742742.192    -6823987.92949  -5310479.61347  20742741.979    20742750.792
       245.000         207.000
 01  9 24 22 29  0.0000000  0  7G22G 1G 3G20G31G27G13
  22777443.904     9234434.28349   7186209.52646  22777442.655    22777457.437
       219.000         166.000
  20578867.107      296887.71449    235324.07047  20578866.337    20578877.579
       245.000         211.000
  23228266.603    -6961791.15349  -5113976.49445  23228265.636    23228282.379
       217.000         157.000
  23260951.598     9006721.61649   6999580.70045  23260950.839    23260969.057
       218.000         161.000
  23567647.924    -9713381.89749  -7365250.00545  23567646.258    23567665.514
       215.000         152.000
  22254770.703    -6854431.38949  -5334461.40847  22254769.254    22254782.206
       232.000         190.000
  20734256.486    -6868580.59749  -5345227.10647  20734256.533    20734265.885
       245.000         208.000
 01  9 24 22 29 30.0000000  0  7G22G 1G 3G20G31G27G13
  22796369.093     9333887.18749   7263705.16746  22796369.272    22796382.489
       221.000         165.000
  20582605.798      316534.91649    250633.56147  20582605.199    20582616.581
       246.000         212.000
  23220713.946    -7001480.50349  -5144903.11645  23220714.194    23220730.189
       217.000         158.000
  23281406.649     9114213.80049   7083340.52745  23281405.828    23281424.628
       216.000         159.000
  23551166.731    -9799990.16149  -7432736.64945  23551165.467    23551184.647
       213.000         152.000
  22245484.269    -6903230.48449  -5372486.58747  22245483.152    22245496.153
       233.000         190.000
  20725828.652    -6912868.98349  -5379737.48047  20725828.318    20725837.908
       245.000         208.000
 01  9 24 22 30  0.0000000  0  8G22G 1G 3G 8G20G31G27G13
  22815343.212     9433596.05849   7341400.26446  22815342.717    22815357.319
       221.000         165.000
  20586416.712      336561.35649    266238.57147  20586416.011    20586427.316
       245.000         211.000
  23213240.849    -7040751.84649  -5175504.02645  23213239.858    23213255.813
       215.000         158.000
                   -833002.66649   -637452.50343
       207.000          74.000
  23301886.605     9221835.81049   7167201.55845  23301886.210    23301905.984
       218.000         158.000
  23534711.541    -9886461.51749  -7500116.59145  23534710.489    23534729.514
       214.000         151.000
  22236222.389    -6951902.11649  -5410412.44447  22236222.354    22236234.081
       236.000         191.000
  20717459.095    -6956851.35749  -5414009.40947  20717458.232    20717468.266
       244.000         208.000
 01  9 24 22 30 30.0000000  0  8G22G 1G 3G 8G20G31G27G13
  22834365.390     9533557.00549   7419291.78946  22834364.698    22834379.548
       221.000         164.000
  20590299.667      356966.54249    282138.70847  20590298.953    20590310.526
       246.000         211.000
  23205847.435    -7079603.82249  -5205778.16145  23205846.677    23205862.895
       217.000         159.000
  23810614.920     -910280.70149   -697668.86345  23810613.835    23810634.888
       209.000         132.000
  23322390.383     9329583.68049   7251160.58845  23322389.016    23322408.453
       214.000         157.000
  23518282.993    -9972793.88349  -7567388.24945  23518281.323    23518300.233
       214.000         151.000
  22226984.453    -7000448.01949  -5448240.32747  22226983.380    22226996.546
       235.000         192.000
  20709147.783    -7000527.09449  -5448042.39947  20709147.655    20709157.524
       245.000         209.000
 01  9 24 22 31  0.0000000  0  8G22G 1G 3G 8G20G31G27G13
  22853434.771     9633766.99749   7497377.36346  22853434.497    22853449.453
       220.000         164.000
  20594254.950      377751.25349    298334.57947  20594254.414    20594265.403
       246.000         212.000
  23198534.302    -7118034.41349  -5235723.94745  23198533.420    23198550.554
       218.000         160.000
  23795931.299     -987448.81049   -757799.67145  23795931.829    23795949.379
       207.000         139.000
  23342917.605     9437454.39649   7335215.36045  23342918.744    23342935.696
       220.000         158.000
  23501881.212   -10058983.83249  -7634548.92545  23501880.007    23501897.189
       215.000         151.000
  22217770.313    -7048868.33849  -5485970.35447  22217769.678    22217781.861
       235.000         192.000
  20700895.381    -7043894.19549  -5481834.89847  20700895.508    20700904.566
       245.000         209.000
 01  9 24 22 31 30.0000000  0  8G22G 1G 3G 8G20G31G27G13
  22872551.041     9734222.72149   7575654.42146  22872549.503    22872564.874
       218.000         163.000
  20598282.356      398915.64649    314826.29747  20598281.976    20598293.040
       246.000         212.000
  23191301.599    -7156041.96949  -5265340.11245  23191301.226    23191318.402
       219.000         161.000
  23781267.355    -1064507.33249   -817845.03745  23781266.882    23781285.829
       212.000         141.000
  23363467.792     9545444.55549   7419363.23745  23363467.958    23363486.767
       218.000         158.000
  23485507.295   -10145028.74649  -7701596.59345  23485505.493    23485524.740
       214.000         152.000
  22208580.061    -7097163.78649  -5523603.08347  22208579.450    22208591.136
       235.000         192.000
  20692701.880    -7086951.42849  -5515385.93347  20692701.221    20692710.892
       244.000         209.000
 01  9 24 22 32  0.0000000  0  8G22G 1G 3G 8G20G31G27G13
  22891713.603     9834923.30149   7654122.25246  22891712.117    22891728.000
       219.000         163.000
  20602382.559      420462.21549    331615.81947  20602382.118    20602393.024
       246.000         211.000
  23184150.210    -7193622.48549  -5294623.51445  23184149.707    23184166.677
       219.000         161.000
  23766624.814    -1141454.41149   -877803.58845  23766623.279    23766642.026
       213.000         142.000
  23384040.525     9653553.09549   7503603.32045  23384041.395    23384059.796
       219.000         158.000
  23469161.749   -10230923.67549  -7768527.42545  23469160.238    23469179.091
       214.000         152.000
  22199413.648    -7145332.73649  -5561137.22247  22199412.756    22199425.358
       234.000         192.000
  20684567.942    -7129695.10949  -5548692.65047  20684567.792    20684576.946
       245.000         209.000
 01  9 24 22 32 30.0000000  0  8G22G 1G 3G 8G20G31G27G13
  22910922.429     9935866.20449   7732778.92945  22910921.949    22910936.983
       220.000         162.000
  20606555.740      442392.21349    348704.11447  20606555.079    20606566.356
       246.000         211.000
  23177080.562    -7230773.21349  -5323572.02145  23177080.361    23177096.195
       220.000         162.000
  23752003.787    -1218289.34249   -937674.75145  23752001.472    23752021.235
       208.000         145.000
  23404635.346     9761777.46349   7587933.67445  23404635.638    23404652.735
       222.000         158.000
  23452845.521   -10316664.72049  -7835338.33045  23452844.544    23452862.449
       217.000         153.000
  22190271.479    -7193374.89349  -5598572.57547  22190270.555    22190282.406
       235.000         192.000
  20676494.181    -7172122.77949  -5581753.12247  20676494.261    20676502.670
       246.000         209.000
 01  9 24 22 33  0.0000000  0  8G22G 1G 3G 8G20G31G27G13
  22930176.944    10037049.22949   7811622.70446  22930176.449    22930191.519
       222.000         163.000
  20610802.017      464706.96949    366092.21147  20610801.399    20610812.824
       245.000         211.000
  23170093.314    -7267491.46649  -5352183.53045  23170092.739    23170108.849
       218.000         162.000
  23737403.833    -1295011.65949   -997458.17245  23737403.737    23737420.404
       212.000         146.000
  23425251.620     9870115.42449   7672352.54045  23425252.125    23425271.347
       220.000         158.000
  23436559.385   -10402248.08949  -7902026.39145  23436558.019    23436576.463
       213.000         152.000
  22181153.306    -7241290.23549  -5635909.11047  22181151.978    22181164.105
       232.000         191.000
  20668480.975    -7214232.51849  -5614565.85247  20668480.569    20668489.526
       245.000         209.000
 01  9 24 22 33 30.0000000  0  8G22G 1G 3G 8G20G31G27G13
  22949476.659    10138468.53049   7890650.58745  22949476.848    22949490.330
       221.000         162.000
  20615121.506      487406.05949    383779.79847  20615120.779    20615132.001
       245.000         211.000
  23163188.535    -7303775.93449  -5380457.06945  23163187.739    23163204.249
       221.000         162.000
  23722825.153    -1371622.31649  -1057154.56045  23722824.410    23722842.650
       215.000         149.000
  23445888.674     9978563.22649   7756856.98345  23445887.710    23445907.912
       217.000         157.000
  23420303.610   -10487671.20449  -7968589.57445  23420301.832    23420319.527
       217.000         152.000
  22172059.153    -7289079.73649  -5673147.57347  22172058.613    22172070.458
       235.000         191.000
  20660528.452    -7256022.75349  -5647129.63947  20660528.004    20660537.646
       244.000         209.000
 01  9 24 22 34  0.0000000  0  8G22G 1G 3G 8G20G31G27G13
  22968820.702    10240120.64849   7969859.88846  22968819.547    22968834.654
       218.000         163.000
  20619514.185      510489.57149    401766.93847  20619513.518    20619524.777
       245.000         211.000
  23156366.691    -7339624.64749  -5408391.00245  23156365.722    23156382.478
       218.000         161.000
  23708267.767    -1448121.60149  -1116764.16945  23708266.369    23708284.498
       215.000         150.000
  23466545.979    10087117.25549   7841444.23045  23466544.729    23466565.441
       216.000         157.000
  23404078.652   -10572931.65949  -8035026.03445  23404076.195    23404096.124
       212.000         153.000
  22162988.868    -7336744.24049  -5710288.63947  22162987.703    22163001.046
       235.000         193.000
  20652637.032    -7297492.54549  -5679443.71247  20652636.327    20652645.714
       244.000         209.000
 01  9 24 22 34 30.0000000  0  8G22G 1G 3G 8G20G31G27G13
  22988208.354    10342004.06349   8049249.42045  22988207.485    22988223.100
       221.000         162.000
  20623980.382      533959.46849    420055.15347  20623979.976    20623991.139
       245.000         211.000
  23149628.326    -7375034.54149  -5435983.01645  23149628.066    23149643.821
       216.000         162.000
  23693731.680    -1524508.32849  -1176286.08145  23693730.152    23693748.381
       215.000         151.000
  23487223.219    10195775.70049   7926112.81645  23487223.903    23487243.262
       220.000         156.000
  23387885.744   -10658024.89549  -8101332.20145  23387884.764    23387902.644
       213.000         153.000
  22153942.531    -7384282.68949  -5747331.50747  22153941.286    22153954.349
       234.000         192.000
  20644807.019    -7338638.83249  -5711505.71347  20644807.247    20644815.779
       245.000         209.000
 01  9 24 22 35  0.0000000  0  8G22G 1G 3G 8G20G31G27G13
  23007639.559    10444114.71449   8128816.02445  23007638.204    23007654.883
       220.000         162.000
  20628519.977      557815.28849    438644.09647  20628519.493    20628530.600
       245.000         211.000
  23142973.569    -7410004.70549  -5463232.36245  23142972.434    23142989.496
       218.000         162.000
  23679216.952    -1600783.63449  -1235721.14645  23679215.340    23679233.691
       214.000         153.000
  23507919.903    10304534.74549   8010859.78345  23507919.416    23507938.974
       221.000         156.000
  23371725.027   -10742949.06949  -8167506.62445  23371724.632    23371741.022
       215.000         154.000
  22144919.871    -7431696.33549  -5784277.09747  22144919.871    22144931.700
       237.000         194.000
  20637038.768    -7379460.94949  -5743315.10647  20637038.516    20637047.707
       244.000         209.000
 01  9 24 22 35 30.0000000  0  8G22G 1G 3G 8G20G31G27G13
  23027113.283    10546450.22449   8208557.83545  23027112.692    23027127.336
       217.000         161.000
  20633133.291      582058.11649    457534.59447  20633132.669    20633143.903
       245.000         211.000
  23136403.040    -7444532.75949  -5490137.20945  23136401.373    23136418.464
       217.000         162.000
  23664723.272    -1676946.96549  -1295068.98745  23664722.204    23664739.459
       217.000         153.000
  23528635.079    10413391.82849   8095683.14145  23528635.465    23528653.174
       219.000         157.000
  23355597.302   -10827700.22349  -8233546.24845  23355596.757    23355613.861
       216.000         156.000
  22135921.196    -7478984.94749  -5821125.26347  22135920.311    22135932.009
       235.000         194.000
  20629332.660    -7419956.60149  -5774870.11547  20629332.620    20629341.270
       245.000         210.000
 01  9 24 22 36  0.0000000  0  8G22G 1G 3G 8G20G31G27G13
  23046629.237    10649007.73449   8288472.63745  23046628.491    23046645.252
       216.000         161.000
  20637820.347      606688.29549    476726.93447  20637819.625    20637830.716
       245.000         211.000
  23129916.839    -7478616.55449  -5516695.87245  23129915.693    23129933.371
       218.000         162.000
  23650251.190    -1752998.42649  -1354329.63445  23650249.093    23650266.921
       215.000         154.000
  23549368.309    10522344.03649   8180580.62545  23549369.201    23549386.195
       219.000         158.000
  23339503.167   -10912274.98349  -8299448.39045  23339501.619    23339519.957
       217.000         157.000
  22126946.051    -7526148.98749  -5857876.37847  22126945.394    22126957.039
       235.000         193.000
  20621689.092    -7460123.85349  -5806169.23047  20621688.872    20621697.744
       245.000         210.000
 01  9 24 22 36 30.0000000  0  8G22G 1G 3G 8G20G31G27G13
  23066186.943    10751784.38249   8368558.19945  23066185.602    23066201.965
       216.000         160.000
  20642581.070      631706.55249    496221.66547  20642580.569    20642591.797
       245.000         211.000
  23123515.751    -7512253.65849  -5542906.44645  23123514.644    23123531.812
       216.000         161.000
  23635800.154    -1828937.79449  -1413502.92745  23635799.666    23635816.838
       218.000         154.000
  23570118.919    10631388.39549   8265549.91445  23570118.257    23570138.106
       216.000         156.000
  23323442.940   -10996669.96649  -8365210.48345  23323441.108    23323460.170
       215.000         157.000
  22117994.655    -7573188.60649  -5894530.53647  22117993.562    22118005.889
       234.000         194.000
  20614108.349    -7499960.91949  -5837211.05247  20614108.410    20614116.989
       244.000         210.000
 01  9 24 22 37  0.0000000  0  8G22G 1G 3G 8G20G31G27G13
  23085785.941    10854777.43249   8448812.37045  23085786.063    23085800.487
       218.000         160.000
  20647415.902      657113.41549    516019.20947  20647415.472    20647426.516
       246.000         211.000
  23117199.894    -7545442.32849  -5568767.59745  23117199.216    23117215.318
       216.000         161.000
  23621370.602    -1904765.00949  -1472588.82045  23621369.246    23621386.222
       218.000         155.000
  23590886.561    10740522.00949   8350588.74645  23590885.600    23590904.110
       213.000         152.000
  23307417.652   -11080882.02749  -8430830.02545  23307416.901    23307435.329
       216.000         157.000
  22109066.801    -7620104.09349  -5931087.96947  22109066.462    22109078.237
       236.000         194.000
  20606590.678    -7539466.06149  -5867994.23647  20606590.544    20606599.533
       246.000         210.000
 01  9 24 22 37 30.0000000  0  8G22G 1G 3G 8G20G31G27G13
  23105425.614    10957983.68449   8529232.68545  23105424.867    23105441.271
       215.000         160.000
  20652324.724      682909.14949    536119.77247  20652324.064    20652335.258
       245.000         211.000
  23110969.738    -7578180.82549  -5594277.96445  23110969.169    23110985.806
       217.000         161.000
  23606962.215    -1980480.66549  -1531587.78845  23606960.741    23606978.978
       218.000         156.000
  23611670.327    10849741.72649   8435694.68045  23611670.061    23611690.577
       214.000         150.000
  23291427.903   -11164908.04049  -8496304.59245  23291426.121    23291445.100
       216.000         157.000
  22100162.624    -7666896.07049  -5967549.17047  22100162.146    22100174.381
       236.000         196.000
  20599136.588    -7578637.60849  -5898517.46747  20599136.564    20599145.704
       245.000         210.000
 01  9 24 22 38  0.0000000  0  8G22G 1G 3G 8G20G31G27G13
  23125105.391    11061400.40149   8609817.00545  23125106.212    23125118.669
       217.000         159.000
  20657307.545      709094.37249    556523.82847  20657306.824    20657317.841
       244.000         210.000
  23104825.778    -7610466.85949  -5619435.74145  23104824.623    23104841.869
       220.000         160.000
  23592575.261    -2056084.41349  -1590499.56945  23592572.832    23592591.864
       217.000         157.000
  23632470.183    10959044.67349   8520865.46645  23632470.441    23632489.433
       220.000         151.000
  23275474.021   -11248744.75649  -8561631.66345  23275472.096    23275491.385
       217.000         158.000
  22091281.835    -7713564.55249  -6003914.12847  22091281.094    22091292.814
       235.000         195.000
  20591746.278    -7617473.64049  -5928779.27047  20591746.321    20591754.994
       245.000         210.000
 01  9 24 22 38 30.0000000  0  8G22G 1G 3G 8G20G31G27G13
  23144824.854    11165024.36449   8690562.80745  23144823.622    23144838.905
       216.000         159.000
  20662364.519      735669.22649    577231.47847  20662363.933    20662375.344
       245.000         210.000
  23098768.065    -7642299.29049  -5644240.06845  23098767.136    23098784.687
       217.000         160.000
  23578209.380    -2131576.76649  -1649324.54645  23578207.287    23578225.341
       217.000         158.000
  23653285.534    11068427.42449   8606098.42245  23653285.841    23653305.339
       222.000         155.000
  23259556.866   -11332389.58649  -8626809.21245  23259555.635    23259574.262
       214.000         158.000
  22082424.425    -7760110.13749  -6040183.33547  22082423.456    22082435.517
       236.000         194.000
  20584420.112    -7655973.02849  -5958778.74647  20584419.783    20584428.939
       244.000         210.000
 01  9 24 22 39  0.0000000  0  8G22G 1G 3G 8G20G31G27G13
  23164582.944    11268853.23349   8771468.26645  23164582.583    23164597.792
       218.000         159.000
  20667495.932      762634.78149    598243.56847  20667495.361    20667506.699
       245.000         211.000
  23092797.248    -7673675.30749  -5668688.76545  23092796.859    23092813.026
       216.000         161.000
  23563864.728    -2206957.01849  -1708062.13845  23563863.117    23563881.178
       219.000         158.000
  23674115.443    11177887.91849   8691391.95545  23674115.151    23674134.910
       216.000         153.000
  23243676.931   -11415838.54349  -8691834.13145  23243675.568    23243693.486
       215.000         158.000
  22073590.412    -7806532.65849  -6076356.65347  22073589.142    22073602.298
       234.000         194.000
  20577158.423    -7694133.31149  -5988513.97447  20577158.240    20577167.799
       244.000         210.000
 01  9 24 22 39 30.0000000  0  8G22G 1G 3G 8G20G31G27G13
  23184379.573    11372884.81449   8852531.66545  23184379.438    23184394.381
       216.000         159.000
  20672701.869      789991.93049    619560.80547  20672701.287    20672712.600
       245.000         211.000
  23086913.790    -7704592.51549  -5692779.91345  23086913.163    23086929.719
       219.000         162.000
  23549541.642    -2282224.69549  -1766712.03145  23549540.412    23549557.170
       219.000         158.000
  23694959.562    11287423.57949   8776744.06045  23694960.740    23694979.026
       219.000         152.000
  23227834.874   -11499087.66249  -8756703.32745  23227834.655    23227851.281
       218.000         158.000
  22064779.716    -7852831.75649  -6112433.79647  22064778.692    22064791.570
       234.000         194.000
  20569961.642    -7731952.03449  -6017983.06447  20569961.632    20569971.130
       245.000         210.000
 01  9 24 22 40  0.0000000  0  8G22G 1G 3G 8G20G31G27G13
  23204214.302    11477115.37549   8933750.17945  23204212.778    23204229.231
       215.000         159.000
  20677982.240      817740.39249    641182.95747  20677981.891    20677992.970
       246.000         211.000
  23081117.923    -7735049.70049  -5716512.62945  23081116.466    23081133.062
       218.000         162.000
  23535239.660    -2357380.62949  -1825274.86345  23535238.334    23535255.719
       218.000         158.000
  23715817.497    11397030.68849   8862151.83345  23715817.151    23715835.966
       216.000         151.000
  23212031.565   -11582134.38449  -8821414.79145  23212030.346    23212047.217
       218.000         158.000
  22055992.502    -7899008.36249  -6148415.49547  22055992.254    22056004.100
       235.000         193.000
  20562830.238    -7769428.26449  -6047185.27447  20562829.659    20562839.229
       244.000         211.000
 01  9 24 22 40 30.0000000  0  8G22G 1G 3G 8G20G31G27G13
  23224086.284    11581543.20749   9015122.36445  23224085.810    23224099.939
       216.000         159.000
  20683337.410      845881.51049    663111.08047  20683336.694    20683348.365
       246.000         211.000
  23075410.037    -7765044.17049  -5739884.77745  23075409.526    23075425.478
       218.000         162.000
  23520959.251    -2432423.98349  -1883749.95945  23520957.720    23520974.673
       216.000         157.000
  23736688.290    11506707.26549   8947613.73145  23736688.253    23736708.744
       215.000         150.000
  23196267.420   -11664974.81049  -8885965.51945  23196266.209    23196284.108
       217.000         158.000
  22047228.835    -7945061.89149  -6184301.28247  22047228.871    22047240.426
       236.000         194.000
  20555764.359    -7806559.41749  -6076118.60047  20555764.211    20555773.504
       245.000         211.000
 01  9 24 22 41  0.0000000  0  8G22G 1G 3G 8G20G31G27G13
  23243995.108    11686164.58749   9096645.36545  23243993.378    23244009.864
       215.000         159.000
  20688767.111      874414.93649    685344.87647  20688766.685    20688777.863
       245.000         211.000
  23069790.432    -7794574.82149  -5762895.51445  23069790.366    23069805.680
       218.000         162.000
  23506700.160    -2507355.38749  -1942137.84645  23506698.781    23506715.306
       215.000         156.000
  23757571.950    11616449.56849   9033126.86245  23757571.855    23757591.555
       215.000         150.000
  23180542.938   -11747606.46249  -8950353.54545  23180542.215    23180558.745
       219.000         160.000
  22038488.427    -7990993.41149  -6220092.00647  22038487.912    22038499.834
       236.000         194.000
  20548764.339    -7843344.56349  -6104782.31247  20548764.207    20548773.181
       245.000         211.000
 01  9 24 22 41 30.0000000  0  8G22G 1G 3G 8G20G31G27G13
  23263939.962    11790977.20549   9178317.35345  23263939.260    23263954.623
       217.000         159.000
  20694271.719      903341.89649    707885.33247  20694271.294    20694282.845
       246.000         211.000
  23064259.625    -7823639.16349  -5785542.89945  23064258.986    23064275.217
       219.000         162.000
  23492462.271    -2582174.50349  -2000438.18445  23492460.408    23492478.501
       217.000         155.000
  23778467.595    11726255.35349   9118689.47745  23778467.719    23778488.771
       212.000         150.000
  23164858.928   -11830025.53649  -9014575.93845  23164857.673    23164875.096
       219.000         160.000
  22029771.200    -8036802.56149  -6255787.37147  22029770.397    22029782.727
       235.000         194.000
  20541830.625    -7879781.28149  -6133174.51347  20541830.247    20541839.469
       244.000         211.000
 01  9 24 22 42  0.0000000  0  8G22G 1G 3G 8G20G31G27G13
  23283921.466    11895978.15749   9260136.15445  23283921.177    23283937.036
       218.000         159.000
  20699851.345      932662.57849    730732.58847  20699850.522    20699861.909
       245.000         211.000
  23058817.771    -7852235.81549  -5807825.84946  23058817.363    23058832.870
       221.000         163.000
  23478246.147    -2656881.40149  -2058651.12245  23478243.530    23478260.800
       215.000         156.000
  23799374.708    11836121.30849   9204298.95145  23799375.245    23799394.815
       215.000         151.000
  23149216.058   -11912228.78849  -9078630.15645  23149214.562    23149232.812
       217.000         160.000
  22021077.112    -8082490.03849  -6291387.94247  22021076.626    22021088.193
       237.000         194.000
  20534963.549    -7915867.85949  -6161293.88647  20534963.411    20534972.615
       245.000         211.000
 01  9 24 22 42 30.0000000  0  8G22G 1G 3G 8G20G31G27G13
  23303937.914    12001164.39649   9342099.28745  23303936.490    23303952.960
       216.000         159.000
  20705505.830      962377.15949    753886.75747  20705505.507    20705516.767
       245.000         210.000
  23053465.318    -7880362.98149  -5829742.97146  23053464.479    23053480.943
       220.000         163.000
  23464050.827    -2731476.15449  -2116776.65345  23464050.336    23464068.039
       218.000         155.000
  23820292.662    11946044.69249   9289953.15845  23820291.675    23820312.428
       213.000         150.000
  23133614.715   -11994213.10149  -9142513.78145  23133612.583    23133630.542
       215.000         159.000
  22012406.251    -8128055.96549  -6326893.77347  22012404.799    22012417.361
       235.000         194.000
  20528163.406    -7951602.82749  -6189139.27447  20528163.398    20528172.227
       245.000         211.000
 01  9 24 22 43  0.0000000  0  8G22G 1G 3G 8G20G31G27G13
  23323989.074    12106533.86449   9424205.20145  23323987.689    23324004.542
       215.000         160.000
  20711235.554      992486.83649    777348.81547  20711234.810    20711246.264
       245.000         210.000
  23048202.660    -7908018.13949  -5851292.29645  23048202.072    23048217.271
       220.000         162.000
  23449877.406    -2805958.08749  -2174814.27345  23449875.549    23449892.346
       215.000         156.000
  23841221.075    12056023.02649   9375650.18245  23841220.277    23841242.592
       211.000         151.000
  23118055.677   -12075974.77149  -9206223.90445  23118055.303    23118072.197
       219.000         159.000
  22003758.382    -8173499.90649  -6362304.55147  22003757.106    22003769.876
       235.000         194.000
  20521430.617    -7986983.70849  -6216708.75547  20521430.629    20521439.275
       245.000         212.000
 01  9 24 22 43 30.0000000  0  9G22G 1G 3G28G 8G20G31G27G13
  23344074.443    12212082.68549   9506450.88845  23344075.073    23344089.621
       220.000         159.000
  20717040.262     1022990.65649    801117.97847  20717039.662    20717050.999
       245.000         210.000
  23043029.844    -7935200.77449  -5872473.44446  23043029.063    23043045.686
       221.000         163.000
  24763542.345    -3712044.32349  -2880943.58245  24763541.187    24763564.176
       208.000         139.000
  23435724.851    -2880328.74749  -2232765.20045  23435723.876    23435739.338
       216.000         155.000
  23862158.807    12166052.23349   9461386.84045  23862157.722    23862179.216
       209.000         149.000
  23102539.537   -12157511.59249  -9269758.83545  23102538.405    23102556.197
       217.000         159.000
  21995133.465    -8218823.28649  -6397621.37847  21995132.736    21995144.980
       236.000         194.000
  20514765.294    -8022010.03549  -6244001.95847  20514765.254    20514773.700
       245.000         212.000
 01  9 24 22 44  0.0000000  0  9G22G 1G 3G28G 8G20G31G27G13
  23364192.960    12317804.44049   9588831.31145  23364193.635    23364208.935
       219.000         159.000
  20722919.357     1053885.61049    825191.91847  20722919.252    20722930.204
       246.000         211.000
  23037946.713    -7961912.63649  -5893287.75046  23037945.752    23037961.339
       220.000         163.000
  24743459.415    -3817579.01249  -2963177.90045  24743457.041    24743479.996
       205.000         137.000
  23421593.000    -2954591.35749  -2290631.92345  23421591.240    23421608.534
       216.000         155.000
  23883105.356    12276126.02149   9547158.26845  23883104.401    23883126.132
       207.000         146.000
  23087066.056   -12238823.92649  -9333118.84345  23087064.768    23087081.639
       215.000         159.000
  21986530.900    -8264029.95649  -6432847.28047  21986530.162    21986543.214
       234.000         195.000
  20508167.144    -8056683.50449  -6271020.19847  20508166.642    20508175.866
       244.000         212.000
 01  9 24 22 44 30.0000000  0  9G22G 1G 3G28G 8G20G31G27G13
  23384345.268    12423703.86249   9671350.21045  23384342.596    23384360.283
       217.000         158.000
  20728874.577     1085179.47249    849576.70847  20728873.939    20728885.461
       244.000         210.000
  23032954.873    -7988144.50049  -5913728.03046  23032953.188    23032969.306
       220.000         164.000
  24723396.316    -3923008.06349  -3045329.88244  24723393.041    24723416.366
       198.000         129.000
  23407482.945    -3028738.63349  -2348408.79545  23407482.167    23407496.909
       220.000         155.000
  23904061.004    12386249.02549   9632968.03145  23904059.264    23904082.976
       205.000         144.000
  23071637.334   -12319901.09249  -9396295.58245  23071635.889    23071653.999
       217.000         159.000
  21977951.780    -8309112.47849  -6467976.43847  21977950.971    21977962.949
       235.000         195.000
  20501637.853    -8090994.98549  -6297756.37247  20501637.911    20501646.902
       245.000         212.000
 01  9 24 22 45  0.0000000  0  9G22G 1G 3G28G 8G20G31G27G13
  23404530.252    12529776.96649   9754004.40345  23404529.062    23404545.078
       216.000         157.000
  20734905.251     1116871.34449    874271.62847  20734904.834    20734915.952
       245.000         210.000
  23028054.417    -8013896.14749  -5933794.12046  23028053.530    23028069.800
       222.000         163.000
  24703353.471    -4028330.69149  -3127398.99144  24703350.806    24703375.319
       206.000         130.000
  23393394.894    -3102771.69049  -2406096.66145  23393392.132    23393409.263
       216.000         155.000
  23925025.529    12496416.83449   9718812.70945  23925025.280    23925045.598
       207.000         141.000
  23056253.815   -12400740.96649  -9459287.45545  23056252.578    23056270.504
       218.000         160.000
  21969396.212    -8354072.31049  -6503009.99347  21969396.004    21969407.035
       237.000         195.000
  20495177.589    -8124943.93149  -6324210.06047  20495177.684    20495186.140
       245.000         211.000
 01  9 24 22 45 30.0000000  0  9G22G 1G 3G28G 8G20G31G27G13
  23424747.699    12636020.01149   9836791.04645  23424747.005    23424763.196
       217.000         156.000
  20741011.786     1148960.68649    899276.26647  20741011.157    20741022.625
       245.000         210.000
  23023245.611    -8039166.49249  -5953485.17546  23023245.459    23023260.394
       220.000         163.000
  24683331.441    -4133546.14549  -3209384.57245  24683330.756    24683351.668
       211.000         134.000
  23379328.125    -3176691.51149  -2463696.30945  23379325.899    23379342.810
       219.000         156.000
  23945997.902    12606625.94949   9804689.56945  23945998.340    23946019.226
       209.000         142.000
  23040915.980   -12481341.37749  -9522092.70945  23040915.256    23040931.819
       218.000         161.000
  21960863.777    -8398910.81649  -6537948.99447  21960863.551    21960874.960
       238.000         197.000
  20488786.406    -8158529.50949  -6350380.59247  20488785.989    20488795.050
       243.000         211.000
 01  9 24 22 46  0.0000000  0  9G22G 1G 3G28G 8G20G31G27G13
  23444996.704    12742429.86249   9919707.65645  23444996.607    23445011.984
       214.000         154.000
  20747193.795     1181447.47049    924590.59347  20747193.357    20747204.885
       245.000         210.000
  23018528.508    -8063954.24949  -5972800.19246  23018528.015    23018543.680
       221.000         163.000
  24663330.102    -4238652.95649  -3291285.52245  24663327.434    24663350.561
       205.000         132.000
  23365282.864    -3250498.51649  -2521208.00045  23365279.993    23365296.560
       217.000         157.000
  23966977.488    12716873.03449   9890595.98445  23966976.348    23966998.550
       210.000         142.000
  23025624.177   -12561699.28849  -9584709.01545  23025623.113    23025640.761
       221.000         162.000
  21952354.316    -8443628.51349  -6572793.85147  21952354.032    21952365.308
       237.000         197.000
  20482464.671    -8191750.33349  -6376266.91347  20482464.715    20482473.158
       244.000         211.000
 01  9 24 22 46 30.0000000  0  9G22G 1G 3G28G 8G20G31G27G13
  23465277.369    12849004.15849  10002752.39645  23465276.487    23465292.668
       212.000         153.000
  20753451.554     1214332.34049    950215.12147  20753450.985    20753462.399
       245.000         210.000
  23013903.761    -8088257.34849  -5991737.54346  23013903.566    23013918.424
       220.000         163.000
  24643349.665    -4343648.95549  -3373100.10444  24643346.176    24643367.049
       210.000         130.000
  23351259.177    -3324192.43849  -2578631.60145  23351257.741    23351274.680
       219.000         159.000
  23987963.993    12827155.39549   9976529.92345  23987963.319    23987983.892
       212.000         144.000
  23010379.266   -12641811.27849  -9647133.69245  23010378.756    23010395.183
       219.000         162.000
  21943867.847    -8488225.23249  -6607544.47547  21943867.057    21943878.958
       237.000         198.000
  20476212.779    -8224604.36649  -6401867.41847  20476212.693    20476221.295
       243.000         211.000
 01  9 24 22 47  0.0000000  0  9G22G 1G 3G28G 8G20G31G27G13
  23485588.615    12955739.66249  10085922.73945  23485588.565    23485603.668
       215.000         152.000
  20759785.060     1247614.97049    976149.60047  20759784.520    20759796.183
       245.000         210.000
  23009371.392    -8112074.71249  -6010296.42146  23009370.824    23009385.895
       221.000         163.000
  24623390.658    -4448532.76849  -3454827.36744  24623388.333    24623409.358
       208.000         131.000
  23337256.823    -3397773.97649  -2635967.61545  23337254.915    23337271.852
       219.000         161.000
  24008956.618    12937469.66249  10062488.70045  24008957.245    24008976.887
       215.000         145.000
  22995181.701   -12721674.53949  -9709364.56645  22995180.328    22995197.593
       218.000         162.000
  21935404.205    -8532701.84949  -6642201.49747  21935402.897    21935415.021
       236.000         197.000
  20470030.853    -8257090.63949  -6427181.36047  20470030.373    20470039.469
       242.000         211.000
 01  9 24 22 47 30.0000000  0  9G22G 1G 3G28G 8G20G31G27G13
  23505930.266    13062633.72749  10169216.67345  23505928.494    23505944.855
       214.000         153.000
  20766194.325     1281295.78749   1002394.34147  20766193.903    20766205.169
       245.000         209.000
  23004931.697    -8135404.72549  -6028475.53945  23004931.048    23004945.234
       221.000         162.000
  24603453.372    -4553302.44049  -3536465.65845  24603450.516    24603474.058
       206.000         134.000
  23323275.922    -3471243.08249  -2693216.09745  23323274.003    23323291.313
       221.000         162.000
  24029954.747    13047813.19749  10148470.30245  24029954.469    24029976.033
       211.000         145.000
  22980031.987   -12801285.72249  -9771399.00045  22980030.796    22980047.342
       222.000         162.000
  21926963.344    -8577058.37949  -6676764.95947  21926962.660    21926973.547
       236.000         196.000
  20463919.259    -8289207.08849  -6452207.12147  20463918.744    20463927.890
       242.000         211.000
 01  9 24 22 48  0.0000000  0  9G22G 1G 3G28G 8G20G31G27G13
  23526301.332    13169683.58649  10252631.97545  23526300.321    23526317.343
       216.000         151.000
  20772679.478     1315375.15349   1028949.65447  20772679.014    20772690.406
       245.000         209.000
  23000585.173    -8158245.90549  -6046273.76446  23000583.997    23000599.888
       220.000         163.000
  24583538.173    -4657956.09449  -3618013.54745  24583536.382    24583559.268
       210.000         137.000
  23309316.487    -3544599.42249  -2750376.65446  23309315.007    23309331.937
       223.000         164.000
  24050957.503    13158183.07049  10234472.41545  24050958.138    24050979.983
       208.000         144.000
  22964930.955   -12880641.73449  -9833234.59945  22964928.691    22964946.480
       219.000         162.000
  21918545.173    -8621294.96849  -6711234.94247  21918544.038    21918555.819
       235.000         196.000
  20457878.303    -8320951.96949  -6476943.35147  20457878.166    20457886.913
       243.000         212.000
 01  9 24 22 48 30.0000000  0  9G22G 1G 3G28G 8G20G31G27G13
  23546701.837    13276887.36249  10336167.22345  23546701.588    23546716.757
       214.000         150.000
  20779240.620     1349853.92849   1055816.19047  20779240.091    20779251.399
       243.000         209.000
  22996331.890    -8180596.02749  -6063689.35546  22996332.041    22996346.856
       221.000         163.000
  24563645.481    -4762491.37049  -3699469.27645  24563643.713    24563665.589
       213.000         139.000
  23295378.657    -3617842.53649  -2807448.97446  23295377.596    23295393.523
       223.000         165.000
  24071964.907    13268577.08249  10320493.32445  24071965.255    24071986.259
       212.000         142.000
  22949879.035   -12959738.61649  -9894868.31846  22949877.520    22949894.068
       220.000         163.000
  21910149.927    -8665411.23949  -6745611.15947  21910149.429    21910160.853
       237.000         197.000
  20451908.561    -8352323.12749  -6501388.36047  20451908.398    20451917.340
       243.000         212.000
 01  9 24 22 49  0.0000000  0  9G22G 1G 3G28G 8G20G31G27G13
  23567130.924    13384241.57549  10419819.69045  23567131.245    23567145.355
       216.000         151.000
  20785877.745     1384731.83649   1082993.73547  20785877.347    20785888.795
       243.000         209.000
  22992172.467    -8202453.89649  -6080721.37646  22992172.001    22992187.684
       221.000         164.000
  24543775.625    -4866906.81249  -3780831.59645  24543774.009    24543795.135
       210.000         139.000
  23281462.296    -3690973.07849  -2864433.55946  23281460.540    23281477.045
       222.000         166.000
  24092976.515    13378991.97749  10406530.52245  24092975.670    24092997.934
       206.000         141.000
  22934876.949   -13038573.72349  -9956298.01846  22934875.756    22934891.569
       220.000         163.000
  21901777.766    -8709407.87049  -6779894.17747  21901777.365    21901788.563
       238.000         198.000
  20446010.124    -8383319.29849  -6525541.19247  20446009.652    20446018.948
       242.000         212.000
 01  9 24 22 49 30.0000000  0  9G22G 1G 3G28G 8G20G31G27G13
  23587588.013    13491743.50349  10503587.24945  23587587.133    23587603.404
       215.000         149.000
  20792590.736     1420008.93949   1110482.34947  20792589.999    20792601.369
       243.000         209.000
  22988106.970    -8223818.12749  -6097368.72446  22988106.245    22988121.486
       220.000         164.000
  24523928.843    -4971200.68449  -3862099.17945  24523926.549    24523949.894
       203.000         136.000
  23267567.222    -3763991.33349  -2921330.67446  23267566.509    23267581.497
       223.000         167.000
  24113991.531    13489424.55349  10492581.51145  24113992.680    24114013.752
       209.000         142.000
  22919925.407   -13117143.79249 -10017521.19946  22919923.877    22919940.027
       218.000         163.000
  21893428.170    -8753285.31949  -6814084.32847  21893427.276    21893439.145
       236.000         198.000
  20440183.385    -8413938.88349  -6549400.57147  20440183.515    20440192.313
       244.000         212.000
 01  9 24 22 50  0.0000000  0  9G22G 1G 3G28G 8G20G31G27G13
  23608073.048    13599391.17549  10587468.39845  23608070.723    23608086.913
       213.000         150.000
  20799379.964     1455686.27849   1138282.83947  20799379.279    20799390.876
       243.000         208.000
  22984135.879    -8244686.42149  -6113629.64646  22984135.194    22984150.615
       221.000         165.000
  24504105.603    -5075370.62749  -3943270.21145  24504104.721    24504125.796
       208.000         134.000
  23253693.712    -3836896.28649  -2978139.49446  23253692.893    23253709.440
       223.000         168.000
  24135009.347    13599872.77949  10578644.69945  24135008.491    24135029.348
       208.000         142.000
  22905025.092   -13195444.77049 -10078534.72346  22905023.082    22905040.587
       218.000         163.000
  21885101.202    -8797042.90949  -6848181.07947  21885100.660    21885111.784
       237.000         198.000
  20434428.837    -8444179.25649  -6572964.46547  20434428.699    20434437.489
       244.000         212.000
 01  9 24 22 50 30.0000000  0  9G22G 1G 3G28G 8G20G31G27G13
  23628584.941    13707181.70549  10671460.84745  23628584.861    23628599.610
       215.000         149.000
  20806245.383     1491763.79249   1166395.15247  20806244.856    20806255.990
       243.000         209.000
  22980259.160    -8265057.63549  -6129503.21746  22980259.028    22980273.398
       222.000         166.000
  24484306.209    -5179415.05949  -4024343.46845  24484305.078    24484324.039
       210.000         135.000
  23239841.780    -3909687.93649  -3034859.99146  23239840.413    23239855.797
       222.000         168.000
  24156029.345    13710333.49549  10664717.56945  24156029.159    24156049.376
       210.000         141.000
  22890176.405   -13273473.78249 -10139336.31945  22890175.052    22890191.397
       220.000         162.000
  21876797.109    -8840681.01449  -6882184.72947  21876796.829    21876808.206
       238.000         199.000
  20428746.625    -8474039.31349  -6596232.01147  20428746.763    20428755.494
       244.000         212.000
 01  9 24 22 51  0.0000000  0  9G22G 1G 3G28G 8G20G31G27G13
  23649123.475    13815112.81549  10755562.84145  23649121.934    23649139.387
       213.000         147.000
  20813186.957     1528241.78749   1194819.52747  20813186.491    20813197.794
       243.000         209.000
  22976477.665    -8284929.89049  -6144987.97746  22976476.276    22976491.882
       221.000         167.000
  24464531.114    -5283331.77349  -4105317.20745  24464529.359    24464551.881
       209.000         134.000
  23226011.240    -3982366.78249  -3091492.60546  23226009.728    23226025.175
       221.000         169.000
  24177051.629    13820804.38449  10750798.37745  24177051.506    24177073.067
       209.000         141.000
  22875380.171   -13351227.34249 -10199923.28545  22875379.095    22875395.184
       219.000         162.000
  21868515.905    -8884199.60649  -6916095.24147  21868514.972    21868527.274
       237.000         200.000
  20423137.163    -8503517.04649  -6619201.64647  20423136.837    20423145.864
       243.000         212.000
 01  9 24 22 51 30.0000000  0  9G22G 1G 3G28G 8G20G31G27G13
  23669688.326    13923181.64049  10839772.16045  23669686.917    23669703.722
       212.000         148.000
  20820204.862     1565120.76949   1223556.35947  20820203.943    20820215.752
       242.000         208.000
  22972791.300    -8304301.46649  -6160082.59746  22972790.088    22972805.695
       222.000         167.000
  24444781.037    -5387118.68149  -4186189.77645  24444779.871    24444801.465
       210.000         137.000
  23212202.252    -4054932.41249  -3148037.00946  23212200.838    23212217.318
       222.000         169.000
  24198075.129    13931282.55249  10836884.92745  24198073.762    24198098.990
       208.000         143.000
  22860637.053   -13428702.25249 -10260293.11545  22860634.732    22860652.889
       218.000         162.000
  21860257.141    -8927598.79449  -6949912.72147  21860256.349    21860267.495
       235.000         198.000
  20417600.815    -8532610.62749  -6641871.93547  20417600.629    20417609.740
       243.000         212.000
 01  9 24 22 52  0.0000000  0  9G22G 1G 3G28G 8G20G31G27G13
  23690278.689    14031385.30549  10924086.52645  23690278.551    23690293.859
       216.000         147.000
  20827298.935     1602400.51649   1252605.48347  20827298.441    20827309.868
       244.000         208.000
  22969200.288    -8323171.52649  -6174786.43046  22969199.864    22969214.941
       223.000         167.000
  24425055.751    -5490774.57349  -4266960.27045  24425054.637    24425075.385
       208.000         135.000
  23198414.632    -4127385.24749  -3204493.51346  23198412.783    23198428.959
       221.000         169.000
  24219099.532    14041764.89249  10922974.65845  24219100.366    24219120.838
       212.000         143.000
  22845947.373   -13505895.77049 -10320443.70045  22845946.760    22845961.990
       219.000         162.000
  21852020.991    -8970879.23849  -6983637.67647  21852020.721    21852031.806
       237.000         198.000
  20412137.797    -8561318.76749  -6664241.88747  20412137.721    20412146.156
       243.000         212.000
 01  9 24 22 52 30.0000000  0  9G22G 1G 3G28G 8G20G31G27G13
  23710894.557    14139721.36449  11008504.08545  23710891.591    23710908.856
       211.000         147.000
  20834469.395     1640081.40249   1281967.17647  20834468.817    20834480.430
       243.000         209.000
  22965705.010    -8341538.69249  -6189098.38346  22965704.614    22965719.913
       223.000         167.000
  24405355.658    -5594297.49349  -4347627.14045  24405354.225    24405374.970
       207.000         132.000
  23184648.676    -4199725.00849  -3260861.89946  23184647.213    23184662.786
       220.000         169.000
  24240124.289    14152248.71749  11009065.57745  24240126.879    24240145.724
       212.000         141.000
  22831311.985   -13582804.28149 -10380372.16846  22831310.982    22831327.458
       223.000         163.000
  21843807.790    -9014040.83149  -7017270.00947  21843807.157    21843818.463
       236.000         198.000
  20406748.573    -8589639.64849  -6686310.07447  20406748.262    20406757.074
       243.000         212.000
 01  9 24 22 53  0.0000000  0  9G22G 1G 3G28G 8G20G31G27G13
  23731534.969    14248187.28749  11093022.81145  23731534.610    23731550.032
       215.000         148.000
  20841716.226     1678163.45449   1311641.45847  20841715.730    20841727.136
       244.000         209.000
  22962305.796    -8359401.45249  -6203017.32546  22962305.507    22962320.292
       222.000         167.000
  24385681.360    -5697685.41749  -4428188.86345  24385678.456    24385702.601
       204.000         134.000
  23170904.276    -4271951.75249  -3317142.23946  23170902.988    23170918.777
       220.000         169.000
  24261148.997    14262731.53549  11095155.65945  24261150.425    24261171.457
       211.000         140.000
  22816731.530   -13659424.62949 -10440076.13346  22816730.036    22816746.476
       221.000         164.000
  21835616.949    -9057083.66749  -7050809.82647  21835616.497    21835628.110
       238.000         199.000
  20401433.243    -8617571.51249  -6708075.13748  20401433.212    20401441.731
       243.000         213.000
 01  9 24 22 53 30.0000000  0  9G22G 1G 3G28G 8G20G31G27G13
  23752199.641    14356780.21249  11177640.49445  23752198.135    23752214.543
       212.000         148.000
  20849039.449     1716646.79049   1341628.43447  20849039.061    20849050.379
       243.000         208.000
  22959002.778    -8376758.28249  -6216542.01446  22959002.034    22959018.003
       222.000         166.000
  24366032.920    -5800936.81749  -4508644.17345  24366030.118    24366051.672
       204.000         133.000
  23157181.154    -4344065.77249  -3373334.75646  23157180.498    23157196.028
       222.000         168.000
  24282173.142    14373210.02049  11181242.40145  24282172.652    24282195.449
       210.000         142.000
  22802206.497   -13735753.83449 -10499553.22446  22802204.822    22802220.725
       222.000         165.000
  21827448.587    -9100008.06349  -7084257.32047  21827447.662    21827459.487
       237.000         199.000
  20396192.302    -8645112.84449  -6729535.88948  20396192.090    20396201.070
       243.000         213.000
 01  9 24 22 54  0.0000000  0  9G22G 1G 3G28G 8G20G31G27G13
  23772887.916    14465498.00849  11262355.51645  23772888.192    23772903.210
       216.000         147.000
  20856439.065     1755531.92849   1371928.50947  20856438.598    20856449.771
       243.000         208.000
  22955796.223    -8393607.81849  -6229671.41446  22955794.614    22955810.389
       221.000         166.000
  24346410.785    -5904049.39649  -4588991.26545  24346409.272    24346430.511
       210.000         135.000
  23143479.768    -4416066.44449  -3429438.96346  23143478.004    23143494.703
       222.000         168.000
  24303195.545    14483681.85549  11267323.96545  24303194.369    24303221.179
       207.000         138.000
  22787737.520   -13811788.19549 -10558800.56946  22787736.748    22787752.725
       221.000         165.000
  21819302.908    -9142813.73549  -7117612.33547  21819301.972    21819313.901
       237.000         199.000
  20391025.975    -8672261.72449  -6750690.83147  20391026.006    20391034.648
       244.000         212.000
 01  9 24 22 54 30.0000000  0  9G22G 1G 3G28G 8G20G31G27G13
  23793599.879    14574337.49149  11347165.31245  23793599.384    23793614.161
       212.000         148.000
  20863915.067     1794818.53349   1402541.40847  20863914.463    20863926.103
       243.000         208.000
  22952686.513    -8409948.97749  -6242404.68846  22952685.437    22952701.336
       218.000         166.000
  24326815.610    -6007021.97349  -4669229.24345  24326815.076    24326834.444
       212.000         140.000
  23129799.754    -4487954.42649  -3485455.37146  23129798.744    23129814.069
       223.000         169.000
  24324215.913    14594144.01449  11353397.92545  24324217.255    24324239.454
       209.000         139.000
  22773325.155   -13887524.95249 -10617816.00446  22773323.476    22773340.133
       222.000         166.000
  21811179.678    -9185501.25749  -7150875.26847  21811179.395    21811190.823
       238.000         199.000
  20385934.654    -8699016.73149  -6771538.86947  20385934.571    20385943.362
       242.000         212.000
 01  9 24 22 55  0.0000000  0  9G22G 1G 3G28G 8G20G31G27G13
  23814334.123    14683296.71249  11432068.44945  23814332.970    23814349.326
       211.000         147.000
  20871467.548     1834507.08549   1433467.50647  20871467.044    20871478.493
       243.000         208.000
  22949673.872    -8425779.89349  -6254740.37546  22949672.972    22949688.924
       220.000         165.000
  24307247.657    -6109852.10249  -4749356.22745  24307245.704    24307265.977
       209.000         139.000
  23116141.414    -4559729.23549  -3541383.57246  23116139.869    23116156.115
       222.000         169.000
  24345233.979    14704594.06549  11439462.48545  24345234.505    24345257.439
       206.000         139.000
  22758970.136   -13962960.52549 -10676596.76346  22758969.323    22758985.503
       220.000         166.000
  21803079.005    -9228070.33149  -7184045.89147  21803078.433    21803089.727
       238.000         200.000
  20380918.610    -8725375.95749  -6792078.48947  20380918.534    20380927.442
       243.000         212.000
 01  9 24 22 55 30.0000000  0  9G22G 1G 3G28G 8G20G31G27G13
  23835090.533    14792373.51149  11517063.20245  23835088.412    23835107.459
       210.000         148.000
  20879096.651     1874598.16349   1464707.26247  20879096.013    20879107.221
       244.000         208.000
  22946758.547    -8441099.03449  -6266677.28446  22946758.270    22946773.554
       219.000         165.000
  24287706.935    -6212537.63349  -4829370.53645  24287705.561    24287726.925
       208.000         141.000
  23102504.417    -4631390.55949  -3597223.37046  23102503.749    23102519.486
       226.000         170.000
  24366249.304    14815029.57349  11525515.74545  24366248.097    24366274.013
       203.000         137.000
  22744672.940   -14038091.18149 -10735139.90846  22744671.891    22744687.639
       223.000         167.000
  21795000.917    -9270520.69349  -7217124.02747  21795000.345    21795011.444
       237.000         199.000
  20375978.349    -8751337.26449  -6812308.05847  20375978.224    20375986.838
       242.000         212.000
 01  9 24 22 56  0.0000000  0  9G22G 1G 3G28G 8G20G31G27G13
  23855868.774    14901564.84849  11602147.18445  23855868.406    23855883.821
       210.000         147.000
  20886802.297     1915091.61349   1496260.55747  20886801.578    20886813.162
       242.000         207.000
  22943940.884    -8455905.47049  -6278214.66146  22943940.041    22943955.724
       221.000         165.000
  24268194.100    -6315077.02649  -4909270.94345  24268192.940    24268213.127
       207.000         141.000
  23088889.249    -4702938.49749  -3652974.81846  23088887.236    23088904.463
       223.000         170.000
  24387261.471    14925447.64249  11611555.41745  24387261.810    24387286.048
       208.000         139.000
  22730434.564   -14112914.04649 -10793443.21846  22730432.469    22730448.897
       221.000         167.000
  21786945.292    -9312852.86449  -7250110.06347  21786944.352    21786955.961
       236.000         199.000
  20371114.027    -8776899.28849  -6832226.48547  20371113.971    20371122.614
       243.000         212.000
 01  9 24 22 56 30.0000000  0  9G22G 1G 3G28G 8G20G31G27G13
  23876668.427    15010868.46549  11687318.66245  23876668.127    23876685.802
       209.000         147.000
  20894584.567     1955987.62049   1528127.52847  20894583.921    20894595.398
       243.000         208.000
  22941221.102    -8470197.50949  -6289351.21146  22941219.964    22941236.012
       222.000         165.000
  24248709.451    -6417468.47949  -4989056.12945  24248708.199    24248727.879
       212.000         140.000
  23075295.486    -4774373.04149  -3708637.92846  23075294.946    23075309.616
       225.000         169.000
  24408269.926    15035845.60949  11697579.41445  24408269.407    24408292.688
       209.000         141.000
  22716255.244   -14187425.90249 -10851504.18546  22716253.665    22716269.912
       223.000         167.000
  21778912.172    -9355066.69449  -7283003.87647  21778911.683    21778922.605
       238.000         199.000
  20366326.038    -8802060.31249  -6851832.45147  20366325.896    20366334.520
       242.000         212.000
 01  9 24 22 57  0.0000000  0  9G22G 1G 3G28G 8G20G31G27G13
  23897489.054    15120280.94449  11772574.97445  23897487.843    23897506.243
       209.000         146.000
  20902443.300     1997285.23649   1560307.45047  20902442.740    20902454.261
       242.000         207.000
  22938599.477    -8483974.93249  -6300086.74846  22938598.938    22938614.522
       221.000         166.000
  24229252.998    -6519710.96449  -5068725.23345  24229251.248    24229271.308
       208.000         137.000
  23061723.366    -4845694.82349  -3764213.16646  23061721.482    23061737.151
       223.000         168.000
  24429273.768    15146219.85449  11783584.86745  24429274.215    24429296.548
       212.000         142.000
  22702135.671   -14261624.05949 -10909320.70346  22702134.130    22702150.343
       222.000         167.000
  21770901.459    -9397163.07949  -7315806.18347  21770900.419    21770911.782
       238.000         199.000
  20361614.552    -8826819.36649  -6871125.19147  20361614.538    20361622.872
       243.000         212.000
 01  9 24 22 57 30.0000000  0  9G22G 1G 3G28G 8G20G31G27G13
  23918329.640    15229800.87349  11857915.02545  23918328.636    23918347.990
       207.000         146.000
  20910378.572     2038985.68349   1592801.26247  20910378.066    20910389.578
       242.000         207.000
  22936075.986    -8497235.27449  -6310419.35546  22936075.196    22936091.728
       221.000         166.000
  24209825.240    -6621801.61749  -5148275.96145  24209824.217    24209842.739
       208.000         135.000
  23048172.734    -4916903.19049  -3819700.04346  23048171.613    23048186.491
       223.000         168.000
  24450272.984    15256568.68349  11869570.58745  24450273.268    24450294.823
       209.000         140.000
  22688076.507   -14335504.40649 -10966889.58646  22688074.733    22688090.457
       223.000         168.000
  21762913.262    -9439141.05449  -7348516.21547  21762912.719    21762924.036
       238.000         199.000
  20356980.009    -8851173.94749  -6890102.75748  20356979.716    20356988.834
       242.000         213.000
 01  9 24 22 58  0.0000000  0  9G22G 1G 3G28G 8G20G31G27G13
  23939190.914    15339424.85049  11943336.12145  23939190.773    23939207.929
       210.000         146.000
  20918390.458     2081088.27349   1625608.43947  20918389.840    20918401.688
       242.000         207.000
  22933651.053    -8509978.11149  -6320348.70546  22933650.174    22933664.857
       220.000         166.000
  24190427.097    -6723739.24749  -5227707.50245  24190426.956    24190446.492
       209.000         141.000
  23034643.670    -4987998.58849  -3875098.90346  23034641.290    23034658.216
       221.000         167.000
  24471266.775    15366888.93049  11955534.00345  24471268.783    24471287.805
       210.000         136.000
  22674078.337   -14409064.63549 -11024209.03746  22674076.404    22674092.863
       224.000         168.000
  21754947.581    -9481001.47149  -7381134.64047  21754947.054    21754958.054
       238.000         200.000
  20352422.626    -8875123.28049  -6908764.54148  20352422.331    20352430.951
       242.000         213.000
 01  9 24 22 58 30.0000000  0  9G22G 1G 3G28G 8G20G31G27G13
  23960071.380    15449150.20549  12028836.24345  23960071.228    23960087.718
       210.000         145.000
  20926478.882     2123592.85649   1658728.85447  20926478.480    20926490.038
       242.000         207.000
  22931324.671    -8522202.86049  -6329874.35846  22931323.665    22931339.785
       222.000         166.000
  24171058.166    -6825522.75849  -5307018.95645  24171055.866    24171076.869
       205.000         140.000
  23021135.896    -5058981.40549  -3930409.99746  23021134.920    23021150.022
       221.000         166.000
  24492254.515    15477177.29549  12041472.55845  24492254.945    24492278.008
       209.000         137.000
  22660141.686   -14482301.82549 -11081276.77146  22660140.251    22660155.608
       221.000         168.000
  21747004.049    -9522744.66549  -7413661.72447  21747002.793    21747015.379
       237.000         201.000
  20347942.576    -8898665.97349  -6927109.45548  20347942.413    20347951.472
       243.000         213.000
 01  9 24 22 59  0.0000000  0  9G22G 1G 3G28G 8G20G31G27G13
  23980970.566    15558975.06049  12114413.86845  23980968.981    23980986.491
       208.000         145.000
  20934643.880     2166500.13749   1692163.05947  20934643.358    20934655.187
       242.000         207.000
  22929097.310    -8533907.52349  -6338994.77346  22929096.687    22929111.497
       221.000         167.000
  24151718.913    -6927149.43349  -5386208.20845  24151716.435    24151737.450
       212.000         143.000
  23007649.876    -5129850.88349  -3985632.77646  23007648.277    23007663.403
       220.000         165.000
  24513235.716    15587431.73349  12127384.71645  24513236.639    24513259.782
       205.000         140.000
  22646267.105   -14555212.18449 -11138089.83246  22646265.976    22646281.376
       222.000         168.000
  21739082.690    -9564370.17549  -7446097.11847  21739081.497    21739093.585
       237.000         200.000
  20343540.377    -8921799.62749  -6945135.64948  20343539.900    20343548.931
       242.000         213.000
 01  9 24 22 59 30.0000000  0  9G22G 1G 3G28G 8G20G31G27G13
  24001888.104    15668897.59349  12200067.62045  24001888.438    24001905.357
       209.000         146.000
  20942885.688     2209810.89049   1725911.66747  20942885.402    20942896.897
       242.000         207.000
  22926969.403    -8545090.15249  -6347708.40346  22926969.389    22926984.084
       222.000         167.000
  24132410.026    -7028616.58549  -5465273.15545  24132408.991    24132429.418
       213.000         147.000
  22994185.239    -5200606.28149  -4040766.66946  22994184.507    22994199.640
       220.000         166.000
  24534209.474    15697650.33949  12213268.98145  24534209.430    24534233.019
       207.000         138.000
  22632455.379   -14627791.90849 -11194645.22646  22632455.137    22632469.120
       224.000         169.000
  21731184.071    -9605877.38249  -7478440.33047  21731183.285    21731195.035
       238.000         200.000
  20339216.431    -8944522.10849  -6962841.44848  20339216.174    20339224.961
       242.000         213.000
 01  9 24 23  0  0.0000000  0  9G22G 1G 3G28G 8G20G31G27G13
  24022824.226    15778914.69149  12285795.07745  24022822.946    24022839.089
       211.000         144.000
  20951204.142     2253524.44149   1759974.12947  20951203.713    20951215.168
       242.000         207.000
  22924940.754    -8555750.31749  -6356014.92846  22924940.304    22924954.927
       222.000         167.000
  24113131.659    -7129923.39449  -5544213.11445  24113128.379    24113149.327
       209.000         146.000
  22980742.316    -5271248.41249  -4095812.30146  22980741.064    22980756.569
       221.000         167.000
  24555176.144    15807829.78049  12299122.69145  24555177.215    24555200.020
       211.000         139.000
  22618707.317   -14700038.35149 -11250940.95746  22618705.666    22618721.533
       222.000         170.000
  21723307.854    -9647266.95449  -7510691.87347  21723307.227    21723318.042
       238.000         200.000
  20334970.837    -8966832.51049  -6980226.14648  20334970.933    20334979.415
       243.000         213.000
 01  9 24 23  0 30.0000000  0  9G22G 1G 3G28G 8G20G31G27G13
  24043777.449    15889023.84549  12371594.26345  24043777.479    24043794.910
       209.000         144.000
  20959599.155     2297640.50649   1794350.24947  20959598.742    20959610.262
       242.000         206.000
  22923011.696    -8565887.15949  -6363913.66346  22923010.840    22923025.648
       222.000         166.000
  24093884.324    -7231068.18349  -5623026.87045  24093883.711    24093903.376
       214.000         147.000
  22967320.999    -5341777.35949  -4150769.74546  22967319.805    22967335.208
       220.000         168.000
  24576135.184    15917967.21749  12384943.69345  24576135.286    24576158.783
       207.000         139.000
  22605023.179   -14771948.57949 -11306974.69146  22605022.239    22605036.435
       225.000         171.000
  21715453.936    -9688539.19049  -7542851.97647  21715453.145    21715464.417
       237.000         200.000
  20330804.063    -8988729.40649  -6997288.62948  20330803.937    20330812.093
       243.000         213.000
 01  9 24 23  1  0.0000000  0  9G22G 1G 3G28G 8G20G31G27G13
  24064747.688    15999222.66649  12457463.28345  24064746.882    24064763.264
       205.000         142.000
  20968070.839     2342159.27049   1829040.13847  20968070.427    20968081.881
       242.000         206.000
  22921182.449    -8575499.33449  -6371403.56546  22921181.806    22921196.942
       222.000         166.000
  24074668.107    -7332049.13849  -5701713.00445  24074668.124    24074686.740
       207.000         145.000
  22953921.156    -5412192.83549  -4205638.78546  22953919.802    22953935.329
       222.000         169.000
  24597085.510    16028060.27749  12470730.09345  24597084.513    24597106.029
       203.000         137.000
  22591403.513   -14843519.08749 -11362743.70546  22591401.528    22591416.884
       226.000         171.000
  21707622.316    -9729693.79449  -7574920.43447  21707622.266    21707632.908
       239.000         200.000
  20326716.219    -9010210.89349  -7014027.42548  20326716.297    20326724.674
       243.000         213.000
 01  9 24 23  1 30.0000000  0  9G22G 1G 3G28G 8G20G31G27G13
  24085734.757    16109509.23449  12543400.70745  24085733.823    24085751.064
       207.000         143.000
  20976619.237     2387081.22849   1864044.22147  20976618.739    20976630.356
       243.000         207.000
  22919453.346    -8584585.15949  -6378483.31746  22919452.813    22919467.740
       221.000         166.000
  24055483.096    -7432863.92249  -5780269.55945  24055480.268    24055501.296
       207.000         143.000
  22940543.109    -5482494.42449  -4260419.03446  22940541.564    22940557.593
       222.000         170.000
  24618026.661    16138106.64649  12556480.14145  24618025.376    24618049.843
       203.000         134.000
  22577849.397   -14914746.11549 -11418245.08146  22577847.521    22577863.070
       224.000         172.000
  21699813.403    -9770730.36649  -7606896.91947  21699813.092    21699824.237
       238.000         201.000
  20322707.881    -9031274.83049  -7030440.86948  20322707.742    20322716.399
       243.000         213.000
 01  9 24 23  2  0.0000000  0  9G22G 1G 3G28G 8G20G31G27G13
  24106737.937    16219880.62049  12629404.19745  24106737.943    24106753.268
       209.000         140.000
  20985244.315     2432405.88249   1899362.09047  20985243.528    20985255.573
       242.000         206.000
  22917824.488    -8593144.32149  -6385152.70246  22917823.501    22917838.636
       221.000         166.000
  24036330.296    -7533511.04049  -5858695.47545  24036329.675    24036348.718
       210.000         148.000
  22927186.666    -5552682.38149  -4315110.75146  22927185.510    22927199.446
       222.000         168.000
  24638958.261    16248103.10349  12642191.28245  24638959.014    24638982.340
       203.000         132.000
  22564361.013   -14985627.21449 -11473476.88446  22564359.619    22564374.216
       226.000         172.000
  21692026.683    -9811649.51949  -7638781.89547  21692025.293    21692037.354
       236.000         201.000
  20318779.196    -9051920.23649  -7046528.17748  20318779.172    20318787.325
       243.000         213.000
 01  9 24 23  2 30.0000000  0  9G22G 1G 3G28G 8G20G31G27G13
  24127757.028    16330334.70849  12715472.17845  24127757.141    24127773.587
       210.000         143.000
  20993945.929     2478133.36849   1934993.84447  20993945.394    20993957.346
       242.000         206.000
  22916296.031    -8601175.52349  -6391410.68546  22916295.369    22916310.232
       222.000         166.000
  24017209.844    -7633988.63649  -5936989.38145  24017207.503    24017227.682
       207.000         146.000
  22913851.789    -5622756.56049  -4369713.83946  22913850.022    22913865.926
       220.000         167.000
  24659880.093    16358047.47249  12727861.85244  24659881.229    24659903.013
       204.000         131.000
  22550939.054   -15056159.02449 -11528436.53946  22550937.251    22550953.080
       224.000         171.000
  21684262.228    -9852451.01749  -7670575.20047  21684261.328    21684272.816
       237.000         201.000
  20314930.412    -9072145.47349  -7062288.09348  20314930.226    20314938.848
       243.000         213.000
 01  9 24 23  3  0.0000000  0  9G22G 1G 3G28G 8G20G31G27G13
  24148791.089    16440869.15449  12801602.73445  24148788.871    24148807.662
       209.000         143.000
  21002724.280     2524263.65649   1970939.47747  21002723.797    21002735.300
       242.000         206.000
  22914868.332    -8608677.69849  -6397256.44146  22914868.027    22914882.843
       223.000         165.000
  23998121.444    -7734295.09249  -6015149.80745  23998118.998    23998139.739
       211.000         146.000
  22900538.566    -5692717.04749  -4424228.29446  22900537.408    22900552.236
       222.000         167.000
  24680791.803    16467937.14249  12813489.80345  24680793.462    24680817.036
       209.000         134.000
  22537584.067   -15126338.30749 -11583121.48646  22537582.127    22537597.185
       225.000         171.000
  21676520.307    -9893134.84549  -7702276.82447  21676519.548    21676531.123
       239.000         202.000
  20311161.985    -9091948.92249  -7077719.33648  20311161.625    20311170.300
       242.000         213.000
 01  9 24 23  3 30.0000000  0  9G22G 1G 3G28G 8G20G31G27G13
  24169839.995    16551481.32549  12887793.86545  24169838.349    24169856.727
       207.000         142.000
  21011579.169     2570796.28549   2007198.61447  21011578.797    21011590.506
       242.000         206.000
  22913541.488    -8615650.06149  -6402689.35846  22913540.546    22913555.699
       221.000         165.000
  23979066.526    -7834428.48849  -6093175.49545  23979065.628    23979084.491
       210.000         147.000
  22887247.073    -5762563.92449  -4478654.22146  22887245.120    22887260.157
       221.000         166.000
  24701692.679    16577769.10649  12899072.76745  24701690.376    24701716.464
       205.000         134.000
  22524296.803   -15196162.20749 -11637529.51746  22524294.785    22524310.616
       225.000         172.000
  21668800.777    -9933701.26549  -7733886.96147  21668800.641    21668811.716
       240.000         202.000
  20307474.036    -9111329.13349  -7092820.79148  20307473.878    20307482.627
       242.000         213.000
 01  9 24 23  4  0.0000000  0  9G22G 1G 3G28G 8G20G31G27G13
  24190903.179    16662168.47749  12974043.39845  24190902.187    24190920.388
       209.000         143.000
  21020510.529     2617730.73349   2043770.85847  21020510.064    21020521.851
       242.000         205.000
  22912315.530    -8622092.15749  -6407709.08146  22912314.934    22912329.648
       222.000         166.000
  23960044.667    -7934387.88049  -6171065.54945  23960041.788    23960060.281
       209.000         146.000
  22873977.003    -5832297.50749  -4532991.88746  22873975.077    22873990.945
       219.000         166.000
  24722581.539    16687540.45949  12984608.53745  24722583.152    24722607.698
       202.000         134.000
  22511077.803   -15265627.99949 -11691658.50146  22511077.146    22511092.714
       225.000         172.000
  21661103.682    -9974150.65849  -7765405.91647  21661103.200    21661113.995
       239.000         202.000
  20303866.817    -9130285.12249  -7107591.66948  20303866.536    20303875.411
       242.000         213.000
 01  9 24 23  4 30.0000000  0  8G22G 1G 3G28G 8G31G27G13
  24211980.378    16772929.11049  13060350.20945  24211979.306    24211995.323
       211.000         143.000
  21029518.591     2665068.04849   2080657.02647  21029518.227    21029529.740
       241.000         205.000
  22911190.929    -8628002.10349  -6412314.12746  22911189.903    22911205.660
       222.000         166.000
  23941056.307    -8034170.28249  -6248817.66745  23941055.422    23941074.101
       214.000         149.000
  22860728.748    -5901916.73749  -4587240.41246  22860726.768    22860742.576
       215.000         165.000
  22497927.673   -15334731.19649 -11745504.94046  22497926.959    22497940.945
       223.000         172.000
  21653428.658   -10014482.05949  -7796832.91447  21653427.734    21653438.794
       238.000         200.000
  20300340.861    -9148814.08449  -7122029.81248  20300340.797    20300348.931
       242.000         213.000
 01  9 24 23  5  0.0000000  0  8G22G 1G 3G28G 8G31G27G13
  24233071.625    16883764.35849  13146715.21245  24233070.724    24233088.963
       209.000         143.000
  21038603.827     2712811.43549   2117859.60347  21038603.498    21038615.304
       241.000         205.000
  22910168.289    -8633375.53649  -6416501.13146  22910166.951    22910182.414
       222.000         166.000
  23922102.870    -8133770.64549  -6326427.92945  23922100.984    23922121.207
       216.000         154.000
  22847502.878    -5971418.34449  -4641397.28846  22847502.113    22847516.157
       217.000         163.000
  22484847.737   -15403465.43649 -11799063.87646  22484845.455    22484861.898
       221.000         172.000
  21645776.806   -10054692.03249  -7828165.30347  21645776.191    21645787.162
       239.000         201.000
  20296897.068    -9166911.23349  -7136131.46948  20296896.901    20296905.430
       242.000         213.000
 01  9 24 23  5 30.0000000  0  8G22G 1G 3G28G 8G31G27G13
  24254175.584    16994666.85849  13233132.53545  24254175.873    24254192.967
       211.000         143.000
  21047765.509     2760955.91249   2155374.71347  21047765.125    21047776.754
       241.000         204.000
  22909247.023    -8638216.60649  -6420273.29146  22909247.038    22909261.549
       223.000         165.000
  23903183.233    -8233192.19849  -6403898.83245  23903182.641    23903201.502
       220.000         153.000
  22834298.319    -6040807.13349  -4695466.29446  22834298.474    22834312.258
       222.000         163.000
  22471837.587   -15471832.95549 -11852337.04646  22471835.902    22471851.248
       221.000         171.000
  21638147.213   -10094785.57049  -7859406.96347  21638146.413    21638156.991
       238.000         200.000
  20293534.802    -9184580.18649  -7149899.46648  20293534.488    20293543.247
       242.000         213.000
 01  9 24 23  6  0.0000000  0  8G22G 1G 3G28G 8G31G27G13
  24275292.059    17105633.30549  13319599.76645  24275290.886    24275309.153
       206.000         141.000
  21057003.310     2809500.48349   2193201.58947  21057002.990    21057014.821
       241.000         204.000
  22908427.145    -8642525.11749  -6423630.49146  22908426.326    22908440.872
       223.000         166.000
  23884298.047    -8332434.01349  -6481229.71145  23884296.556    23884314.723
       219.000         152.000
  22821115.337    -6110083.97349  -4749448.04846  22821113.542    22821129.063
       221.000         163.000
  22458897.528   -15539831.37649 -11905322.63046  22458896.380    22458911.554
       221.000         171.000
  21630539.668   -10134763.58149  -7890558.61947  21630538.670    21630549.979
       238.000         200.000
  20290254.058    -9201820.42149  -7163333.39748  20290253.979    20290262.515
       242.000         213.000
 01  9 24 23  6 30.0000000  0  8G22G 1G 3G28G 8G31G27G13
  24296420.331    17216662.91249  13406116.16945  24296420.198    24296437.473
       211.000         140.000
  21066317.433     2858446.28349   2231341.12947  21066316.583    21066328.538
       241.000         205.000
  22907709.063    -8646298.95849  -6426571.05946  22907707.424    22907722.543
       222.000         166.000
  23865447.612    -8431493.12449  -6558418.24745  23865447.465    23865464.407
       216.000         150.000
  22807953.809    -6179247.46549  -4803341.48346  22807952.263    22807966.963
       221.000         164.000
  22446028.820   -15607456.49549 -11958017.34146  22446027.429    22446043.130
       221.000         171.000
  21622954.356   -10174624.54949  -7921619.05347  21622954.250    21622965.160
       240.000         202.000
  20287055.518    -9218628.93449  -7176430.91148  20287055.224    20287063.541
       242.000         213.000
 01  9 24 23  7  0.0000000  0  8G22G 1G 3G28G 8G31G27G13
  24317560.430    17327753.20149  13492679.86445  24317559.674    24317576.806
       209.000         141.000
  21075707.794     2907793.13649   2269793.16647  21075707.551    21075719.493
       242.000         204.000
  22907092.913    -8649537.21549  -6429094.28346  22907091.950    22907106.422
       223.000         167.000
  23846632.006    -8530367.59649  -6635462.83445  23846629.342    23846648.650
       220.000         151.000
  22794813.887    -6248297.53849  -4857146.53246  22794812.450    22794827.331
       217.000         165.000
  22433231.691   -15674704.93449 -12010418.54346  22433230.638    22433245.035
       223.000         171.000
  21615391.279   -10214368.57149  -7952588.34847  21615390.696    21615401.922
       238.000         202.000
  20283939.329    -9235004.23949  -7189190.86848  20283939.301    20283947.591
       243.000         213.000
 01  9 24 23  7 30.0000000  0  8G22G 1G 3G28G 8G31G27G13
  24338711.255    17438902.47249  13579289.53545  24338709.222    24338726.691
       206.000         136.000
  21085174.610     2957541.13549   2308557.78647  21085174.487    21085185.944
       241.000         204.000
  22906578.667    -8652238.92849  -6431199.43846  22906576.577    22906592.399
       221.000         167.000
  23827852.122    -8629055.69749  -6712362.28845  23827850.103    23827868.660
       217.000         151.000
  22781695.539    -6317233.89349  -4910862.94846  22781694.221    22781709.183
       219.000         165.000
  22420506.967   -15741573.25449 -12062523.53146  22420505.737    22420520.968
       224.000         172.000
  21607850.499   -10253995.27749  -7983466.25647  21607850.107    21607861.347
       240.000         203.000
  20280906.038    -9250944.35349  -7201611.71348  20280905.821    20280914.130
       242.000         213.000
 01  9 24 23  8  0.0000000  0  8G22G 1G 3G28G 8G31G27G13
  24359873.143    17550108.85149  13665943.71745  24359871.272    24359890.809
       208.000         138.000
  21094717.784     3007690.83949   2347635.41847  21094717.001    21094729.286
       240.000         204.000
  22906166.831    -8654402.56349  -6432885.31646  22906165.562    22906179.655
       222.000         167.000
  23809108.013    -8727554.71349  -6789114.31345  23809107.288    23809125.934
       221.000         153.000
  22768599.095    -6386055.69549  -4964490.10546  22768598.118    22768610.787
       224.000         167.000
  22407855.216   -15808057.68949 -12114329.41046  22407854.315    22407868.925
       223.000         172.000
  21600332.296   -10293503.88049  -8014252.13347  21600331.791    21600341.943
       240.000         202.000
  20277955.943    -9266447.37449  -7213691.97048  20277955.863    20277964.175
       242.000         213.000
 01  9 24 23  8 30.0000000  0  8G22G 1G 3G28G 8G31G27G13
  24381045.161    17661368.92549  13752639.66245  24381043.215    24381063.380
       206.000         136.000
  21104337.212     3058240.96049   2387025.06647  21104336.832    21104348.834
       241.000         204.000
  22905857.315    -8656028.41449  -6434152.14346  22905855.966    22905871.407
       221.000         167.000
  23790399.961    -8825864.44649  -6865718.89545  23790398.020    23790417.157
       215.000         153.000
  22755524.291    -6454764.00049  -5018028.84746  22755524.078    22755537.096
       226.000         168.000
  22395277.056   -15874156.36849 -12165834.69046  22395276.313    22395290.127
       225.000         173.000
  21592836.284   -10332895.56349  -8044946.91047  21592835.541    21592846.566
       239.000         202.000
  20275089.032    -9281513.10749  -7225431.48148  20275088.768    20275097.063
       242.000         213.000
 01  9 24 23  9  0.0000000  0  8G22G 1G 3G28G 8G31G27G13
  24402227.140    17772681.63649  13839376.74445  24402226.430    24402244.194
       208.000         136.000
  21114033.006     3109192.31049   2426727.35647  21114032.300    21114044.479
       241.000         204.000
  22905650.547    -8657114.68849  -6434998.52346  22905648.959    22905664.880
       221.000         167.000
  23771728.461    -8923981.84449  -6942173.58945  23771726.616    23771744.265
       212.000         149.000
  22742471.284    -6523357.79349  -5071478.36646  22742471.025    22742484.028
       223.000         166.000
  22382772.982   -15939865.05049 -12217036.07646  22382772.569    22382785.747
       227.000         173.000
  21585362.767   -10372169.15549  -8075549.64247  21585361.925    21585373.066
       239.000         202.000
  20272305.810    -9296138.85749  -7236828.14548  20272305.615    20272313.938
       242.000         213.000
 01  9 24 23  9 30.0000000  0  8G22G 1G 3G28G 8G31G27G13
  24423418.739    17884044.28649  13926152.68945  24423417.170    24423438.995
       204.000         134.000
  21123804.994     3160544.09549   2466741.68647  21123804.484    21123816.422
       241.000         204.000
  22905546.206    -8657661.48749  -6435424.52546  22905545.171    22905560.860
       221.000         167.000
  23753093.844    -9021905.77949  -7018477.56945  23753090.048    23753110.752
       206.000         146.000
  22729439.869    -6591837.38849  -5124838.93546  22729437.578    22729452.328
       218.000         164.000
  22370343.699   -16005181.26349 -12267931.65146  22370343.264    22370356.722
       227.000         174.000
  21577911.508   -10411325.03149  -8106060.65947  21577910.793    21577921.742
       238.000         201.000
  20269606.515    -9310323.69349  -7247881.24148  20269606.433    20269614.837
       243.000         213.000
 01  9 24 23 10  0.0000000  0  8G22G 1G 3G28G 8G31G27G13
  24444619.580    17995454.95149  14012965.98845  24444619.482    24444637.057
       207.000         135.000
  21133653.216     3212296.53549   2507068.21147  21133652.966    21133664.460
       242.000         204.000
  22905544.956    -8657667.56049  -6435429.20746  22905544.302    22905558.484
       222.000         167.000
  23734496.433    -9119634.08349  -7094629.09345  23734496.470    23734512.678
       214.000         146.000
  22716430.033    -6660202.50749  -5178110.25946  22716428.744    22716444.303
       220.000         164.000
  22357989.579   -16070101.74749 -12318518.87046  22357988.247    22358003.211
       226.000         174.000
  21570482.831   -10450362.84449  -8136479.67347  21570481.906    21570493.187
       239.000         202.000
  20266991.480    -9324065.85149  -7258589.39448  20266991.314    20266999.527
       243.000         213.000
 01  9 24 23 10 30.0000000  0  8G22G 1G 3G28G 8G31G27G13
  24465829.196    18106910.75549  14099814.55745  24465827.970    24465845.864
       202.000         134.000
  21143577.500     3264448.62849   2547706.14647  21143577.356    21143588.823
       241.000         203.000
  22905646.562    -8657132.78949  -6435012.45246  22905645.721    22905660.792
       222.000         167.000
  23715936.347    -9217165.74449  -7170627.38345  23715934.250    23715952.265
       216.000         146.000
  22703442.155    -6728453.58149  -5231292.70946  22703440.835    22703455.860
       222.000         168.000
  22345711.348   -16134623.97649 -12368795.76346  22345710.127    22345724.169
       226.000         174.000
  21563076.537   -10489283.10049  -8166807.10047  21563076.013    21563086.402
       239.000         202.000
  20264460.836    -9337364.19449  -7268951.72248  20264460.676    20264469.202
       242.000         213.000
 01  9 24 23 11  0.0000000  0  7G 1G 3G28G 8G31G27G13
  21153577.907     3317000.61949   2588655.70047  21153577.263    21153589.047
       241.000         203.000
  22905851.400    -8656056.14249  -6434173.46246  22905850.690    22905865.523
       221.000         167.000
  23697414.361    -9314498.60649  -7246470.80245  23697411.423    23697430.304
       216.000         148.000
  22690476.125    -6796589.96449  -5284385.82046  22690474.631    22690489.231
       224.000         172.000
  22333509.489   -16198744.17349 -12418759.38946  22333507.824    22333522.924
       227.000         174.000
  21555692.647   -10528085.26249  -8197042.49947  21555691.495    21555702.521
       238.000         201.000
  20262014.943    -9350217.22749  -7278967.05048  20262014.519    20262023.089
       241.000         213.000
 01  9 24 23 11 30.0000000  0  7G 1G 3G28G 8G31G27G13
  21163655.329     3369957.81249   2629920.99747  21163654.727    21163666.541
       240.000         203.000
  22906160.610    -8654431.21549  -6432907.21246  22906160.285    22906174.812
       222.000         166.000
  23678931.364    -9411625.40949  -7322153.59145  23678929.458    23678947.233
       213.000         147.000
  22677533.008    -6864606.04949  -5337385.16446  22677532.441    22677546.342
       226.000         174.000
  22321385.846   -16262453.98749 -12468403.24246  22321384.307    22321398.780
       225.000         174.000
  21548332.305   -10566763.72549  -8227181.50447  21548331.860    21548342.954
       240.000         201.000
  20259655.118    -9362617.89949  -7288629.89348  20259654.973    20259663.432
       242.000         213.000
 01  9 24 23 12  0.0000000  0  7G 1G 3G28G 8G31G27G13
  21173808.039     3423310.62049   2671494.55547  21173807.378    21173819.537
       241.000         202.000
  22906572.519    -8652266.70749  -6431220.51946  22906571.421    22906586.537
       223.000         167.000
  23660486.143    -9508553.60749  -7397681.69645  23660484.487    23660499.792
       211.000         140.000
  22664611.054    -6932511.11949  -5390298.01646  22664609.767    22664623.103
       226.000         174.000
  22309339.138   -16325759.41149 -12517731.98146  22309337.687    22309351.957
       225.000         175.000
  21540994.014   -10605327.41949  -8257231.08147  21540993.451    21541004.652
       239.000         203.000
  20257379.909    -9374574.03149  -7297946.34248  20257379.878    20257388.241
       242.000         213.000
 01  9 24 23 12 30.0000000  0  7G 1G 3G28G 8G31G27G13
  21184036.400     3477060.71149   2713377.68547  21184035.607    21184047.842
       240.000         202.000
  22907087.524    -8649560.27849  -6429111.57946  22907087.363    22907101.397
       221.000         166.000
  23642079.389    -9605279.88449  -7473052.35645  23642079.119    23642095.033
       212.000         139.000
  22651710.545    -7000303.07749  -5443122.77646  22651708.828    22651722.783
       222.000         170.000
  22297370.130   -16388655.94549 -12566742.11746  22297369.252    22297382.763
       226.000         175.000
  21533677.711   -10643774.48049  -8287189.77747  21533676.746    21533688.212
       238.000         203.000
  20255189.894    -9386082.61649  -7306914.05748  20255189.744    20255198.049
       242.000         213.000
 01  9 24 23 13  0.0000000  0  7G 1G 3G28G 8G31G27G13
  21194340.320     3531208.30849   2755570.55747  21194339.864    21194352.001
       240.000         202.000
  22907705.896    -8646310.69549  -6426579.39046  22907705.146    22907719.380
       221.000         166.000
  23623711.579    -9701801.86949  -7548263.88145  23623709.576    23623726.953
       214.000         140.000
  22638831.487    -7067981.43749  -5495859.01546  22638830.164    22638843.599
       223.000         166.000
  22285479.637   -16451139.94749 -12615430.77146  22285478.284    22285492.677
       223.000         174.000
  21526383.656   -10682104.11649  -8317056.97047  21526383.335    21526393.395
       240.000         202.000
  20253085.473    -9397141.23949  -7315531.14448  20253085.051    20253093.797
       242.000         213.000
 01  9 24 23 13 30.0000000  0  7G 1G 3G28G 8G31G27G13
  21204719.935     3585753.44449   2798073.20347  21204719.428    21204731.429
       240.000         202.000
  22908427.810    -8642517.08649  -6423623.30446  22908426.656    22908441.487
       220.000         167.000
  23605383.098    -9798117.43649  -7623314.64645  23605380.835    23605396.920
       209.000         141.000
  22625974.337    -7135545.69149  -5548506.34946  22625973.684    22625987.377
       229.000         172.000
  22273668.387   -16513207.99249 -12663795.34046  22273666.552    22273681.688
       224.000         174.000
  21519112.445   -10720315.98549  -8346832.41747  21519112.588    21519122.082
       242.000         203.000
  20251066.860    -9407748.59949  -7323796.61348  20251067.148    20251075.100
       242.000         213.000
 01  9 24 23 14  0.0000000  0  7G 1G 3G28G 8G31G27G13
  21215175.114     3640695.44549   2840885.08347  21215174.930    21215186.775
       241.000         202.000
  22909253.147    -8638179.30349  -6420243.19046  22909253.574    22909267.472
       223.000         166.000
  23587094.003    -9894225.37349  -7698203.55445  23587093.315    23587111.894
       204.000         139.000
  22613139.049    -7202995.97549  -5601064.84046  22613137.531    22613151.155
       228.000         176.000
  22261936.660   -16574857.93149 -12711834.09346  22261935.823    22261949.748
       227.000         175.000
  21511863.354   -10758410.47049  -8376516.37747  21511861.508    21511874.329
       237.000         204.000
  20249134.481    -9417903.56649  -7331709.55848  20249134.296    20249142.604
       242.000         213.000
 01  9 24 23 14 30.0000000  0  7G 1G 3G28G 8G31G27G13
  21225705.968     3696035.10649   2884006.82347  21225705.410    21225717.349
       239.000         202.000
  22910182.350    -8633295.73849  -6416437.79046  22910182.241    22910195.591
       222.000         165.000
  23568845.080    -9990122.97149  -7772928.47945  23568843.059    23568859.348
       212.000         141.000
  22600325.507    -7270330.95249  -5653533.49346  22600324.731    22600337.781
       226.000         174.000
  22250285.425   -16636085.29149 -12759543.56846  22250284.898    22250298.849
       227.000         176.000
  21504636.410   -10796386.13749  -8406107.74447  21504635.641    21504646.585
       239.000         203.000
  20247288.573    -9427603.72249  -7339268.10848  20247288.564    20247296.686
       242.000         213.000
 01  9 24 23 15  0.0000000  0  7G 1G 3G28G 8G31G27G13
  21236312.228     3751771.33549   2927437.57247  21236312.067    21236324.090
       240.000         201.000
  22911215.471    -8627866.51249  -6412207.21346  22911214.366    22911229.554
       219.000         165.000
  23550636.103   -10085809.02649  -7847488.76145  23550635.045    23550650.341
       214.000         141.000
  22587533.800    -7337551.40549  -5705912.93146  22587532.617    22587545.495
       226.000         171.000
  22238715.020   -16696887.71249 -12806921.92846  22238713.809    22238727.919
       227.000         177.000
  21497432.343   -10834243.39249  -8435606.87147  21497431.898    21497441.983
       240.000         203.000
  20245529.437    -9436848.10449  -7346471.51048  20245529.322    20245537.437
       241.000         213.000
 01  9 24 23 15 30.0000000  0  7G 1G 3G28G 8G31G27G13
  21246993.985     3807903.96449   2971177.19347  21246993.672    21247005.690
       240.000         201.000
  22912352.414    -8621891.36349  -6407551.25546  22912351.389    22912365.866
       218.000         165.000
  23532468.253   -10181281.82049  -7921882.80945  23532466.902    23532484.824
       214.000         150.000
  22574763.832    -7404656.93049  -5758202.80746  22574762.927    22574776.478
       224.000         171.000
  22227226.030   -16757262.04349 -12853966.71346  22227224.772    22227238.963
       226.000         177.000
  21490250.939   -10871981.85949  -8465013.41447  21490250.759    21490261.890
       241.000         204.000
  20243857.179    -9445635.55749  -7353318.87148  20243857.079    20243865.432
       241.000         213.000
 01  9 24 23 16  0.0000000  0  7G 1G 3G28G 8G31G27G13
  21257751.081     3864432.52449   3015225.33847  21257750.466    21257762.804
       239.000         201.000
  22913593.356    -8615369.77949  -6402469.46546  22913592.230    22913607.477
       219.000         164.000
  23514340.925   -10276539.91049  -7996109.50445  23514340.221    23514355.786
       215.000         152.000
  22562015.746    -7471647.46249  -5810403.04346  22562015.302    22562028.531
       223.000         173.000
  22215819.019   -16817205.51049 -12900675.76346  22215817.580    22215831.979
       226.000         176.000
  21483092.241   -10909601.61549  -8494327.44747  21483091.595    21483102.908
       240.000         205.000
  20242272.159    -9453964.81449  -7359809.18148  20242272.107    20242280.312
       242.000         213.000
 01  9 24 23 16 30.0000000  0  7G 1G 3G28G 8G31G27G13
  21268583.499     3921357.11249   3059582.07147  21268583.046    21268595.063
       240.000         201.000
  22914938.457    -8608300.94949  -6396961.26946  22914938.118    22914951.993
       222.000         165.000
  23496254.850   -10371581.13049  -8070167.24945  23496254.072    23496270.196
       223.000         155.000
  22549289.635    -7538522.55349  -5862513.34846  22549287.763    22549302.467
       224.000         172.000
  22204494.660   -16876714.72049 -12947046.42746  22204493.279    22204507.988
       226.000         177.000
  21475956.048   -10947102.04749  -8523548.50547  21475954.466    21475966.143
       238.000         204.000
  20240774.705    -9461833.89049  -7365940.91648  20240774.523    20240783.157
       241.000         213.000
 01  9 24 23 17  0.0000000  0  7G 1G 3G28G 8G31G27G13
  21279491.021     3978676.46149   3104246.40447  21279490.635    21279502.608
       239.000         201.000
  22916387.809    -8600685.02749  -6391026.76746  22916388.155    22916402.239
       222.000         165.000
  23478210.364   -10466404.72849  -8144055.46245  23478208.275    23478225.235
       224.000         158.000
  22536585.387    -7605282.84149  -5914534.21746  22536584.207    22536597.866
       227.000         172.000
  22193253.295   -16935787.77049 -12993077.22646  22193251.901    22193266.144
       228.000         177.000
  21468842.337   -10984483.76949  -8552677.07147  21468841.650    21468852.415
       238.000         203.000
  20239364.895    -9469242.61549  -7371713.92948  20239364.929    20239373.226
       241.000         213.000
 01  9 24 23 17 30.0000000  0  7G 1G 3G28G 8G31G27G13
  21290473.696     4036390.37749   3149218.20547  21290473.202    21290485.695
       239.000         201.000
  22917941.297    -8592521.43449  -6384665.48846  22917940.810    22917956.359
       221.000         165.000
  23460207.558   -10561008.83549  -8217772.60145  23460205.498    23460222.750
       219.000         159.000
  22523903.249    -7671927.97949  -5966465.37046  22523903.046    22523914.959
       228.000         173.000
  22182095.541   -16994421.46049 -13038765.66346  22182094.825    22182108.197
       227.000         178.000
  21461751.492   -11021746.36849  -8581712.81547  21461751.409    21461761.986
       240.000         204.000
  20238042.948    -9476189.37449  -7377126.98448  20238042.814    20238051.139
       242.000         213.000
 01  9 24 23 18  0.0000000  0  7G 1G 3G28G 8G31G27G13
  21301531.206     4094498.10849   3194496.86047  21301530.897    21301543.005
       239.000         200.000
  22919598.982    -8583810.28349  -6377877.55446  22919598.992    22919613.233
       221.000         165.000
  23442246.707   -10655391.84249  -8291317.51245  23442246.490    23442261.887
       224.000         158.000
  22511242.997    -7738457.96749  -6018306.78546  22511241.342    22511255.492
       225.000         175.000
  22171022.009   -17052612.95649 -13084109.54346  22171020.852    22171034.409
       226.000         178.000
  21454683.322   -11058889.85749  -8610655.74147  21454682.392    21454693.013
       239.000         204.000
  20236809.103    -9482673.18749  -7382179.29648  20236808.689    20236817.522
       241.000         213.000
 01  9 24 23 18 30.0000000  0  7G 1G 3G28G 8G31G27G13
  21312663.677     4152999.19649   3240082.03147  21312663.300    21312675.385
       238.000         200.000
  22921360.975    -8574551.07449  -6370662.55246  22921360.452    22921374.753
       222.000         166.000
  23424328.463   -10749552.36749  -8364689.02645  23424326.936    23424342.054
       223.000         159.000
  22498604.452    -7804872.68249  -6070058.35246  22498603.831    22498616.244
       225.000         174.000
  22160032.989   -17110359.48249 -13129106.68546  22160032.349    22160045.490
       227.000         178.000
  21447637.735   -11095914.15049  -8639505.78947  21447637.689    21447647.641
       241.000         204.000
  20235663.566    -9488692.96249  -7386870.02248  20235663.482    20235671.874
       241.000         213.000
 01  9 24 23 19  0.0000000  0  7G 1G 3G28G 8G31G27G13
  21323870.893     4211892.89549   3285973.13947  21323870.472    21323882.526
       239.000         199.000
  22923227.286    -8564743.90549  -6363020.57146  22923226.301    22923241.759
       220.000         166.000
  23406452.600   -10843488.93049  -8437886.00145  23406451.121    23406468.690
       221.000         158.000
  22485987.953    -7871172.51449  -6121720.40346  22485986.046    22486000.489
       222.000         173.000
  22149129.339   -17167658.31349 -13173754.97246  22149127.788    22149142.631
       228.000         178.000
  21440615.091   -11132819.22349  -8668262.94347  21440614.781    21440625.938
       241.000         204.000
  20234606.540    -9494247.60549  -7391198.30548  20234606.773    20234614.890
       242.000         213.000
 01  9 24 23 19 30.0000000  0  7G 1G 3G28G 8G31G27G13
  21335152.787     4271179.84849   3332170.66247  21335152.921    21335164.629
       239.000         199.000
  22925197.930    -8554387.60249  -6354950.69046  22925197.706    22925211.594
       223.000         166.000
  23388619.894   -10937199.12749  -8510906.65045  23388618.386    23388634.008
       218.000         155.000
  22473393.322    -7937356.14649  -6173291.94746  22473392.424    22473405.457
       225.000         174.000
  22138311.388   -17224506.02249 -13218051.74346  22138310.317    22138323.710
       229.000         179.000
  21433615.405   -11169603.93949  -8696926.31947  21433615.677    21433624.824
       242.000         206.000
  20233638.459    -9499334.79049  -7395162.33648  20233638.414    20233646.791
       241.000         213.000
 01  9 24 23 20  0.0000000  0  7G 1G 3G28G 8G31G27G13
  21346509.427     4330858.53749   3378673.45047  21346509.059    21346521.285
       238.000         199.000
  22927272.998    -8543482.89649  -6346453.47346  22927273.379    22927287.267
       223.000         167.000
  23370830.313   -11030682.09149  -8583750.14045  23370831.430    23370845.100
       223.000         156.000
  22460820.980    -8003424.33149  -6224773.52446  22460820.418    22460832.677
       226.000         176.000
  22127579.743   -17280900.77149 -13261995.54746  22127578.826    22127592.848
       230.000         179.000
  21426638.390   -11206268.95149  -8725496.42447  21426637.318    21426647.008
       240.000         203.000
  20232759.499    -9503954.07649  -7398761.77648  20232759.512    20232767.699
       241.000         213.000
 01  9 24 23 20 30.0000000  0  7G 1G 3G28G 8G31G27G13
  21357940.433     4390928.58249   3425481.17847  21357940.296    21357952.376
       239.000         199.000
  22929452.629    -8532029.47449  -6337528.69046  22929452.151    22929465.158
       222.000         167.000
  23353084.665   -11123936.22249  -8656415.39045  23353083.657    23353099.848
       221.000         159.000
  22448270.692    -8069377.04349  -6276165.13746  22448269.636    22448282.214
       224.000         174.000
  22116934.869   -17336839.63549 -13305584.11846  22116934.305    22116947.635
       231.000         179.000
  21419683.877   -11242814.10849  -8753973.14247  21419682.582    21419692.484
       238.000         202.000
  20231969.705    -9508104.58249  -7401995.92348  20231969.649    20231977.983
       242.000         213.000
 01  9 24 23 21  0.0000000  0  7G 1G 3G28G 8G31G27G13
  21369445.860     4451389.63949   3472593.60247  21369445.761    21369457.663
       239.000         199.000
  22931736.713    -8520026.75249  -6328175.87646  22931736.089    22931750.712
       222.000         167.000
  23335382.514   -11216959.74249  -8728900.92845  23335381.242    23335396.386
       221.000         156.000
  22435741.963    -8135213.79849  -6327466.38346  22435740.230    22435754.521
       223.000         173.000
  22106377.375   -17392319.39149 -13348814.93046  22106376.244    22106390.157
       229.000         179.000
  21412752.225   -11279238.85449  -8782356.02447  21412751.920    21412762.718
       240.000         203.000
  20231269.341    -9511784.89549  -7404863.69148  20231269.424    20231277.511
       242.000         213.000
 01  9 24 23 21 30.0000000  0  7G 1G 3G28G 8G31G27G13
  21381025.704     4512241.49549   3520010.54147  21381024.974    21381037.807
       238.000         199.000
  22934125.237    -8507474.48249  -6318394.84246  22934123.846    22934138.734
       222.000         167.000
  23317724.626   -11309750.75849  -8801205.26745  23317723.646    23317738.981
       222.000         158.000
  22423235.694    -8200934.05249  -6378676.83746  22423234.478    22423248.365
       225.000         174.000
  22095907.733   -17447337.24749 -13391685.84246  22095906.952    22095920.222
       227.000         178.000
  21405843.772   -11315542.71549  -8810644.68747  21405842.394    21405854.314
       238.000         204.000
  20230658.719    -9514993.44849  -7407363.85048  20230658.596    20230666.976
       242.000         213.000
 01  9 24 23 22  0.0000000  0  7G 1G 3G28G 8G31G27G13
  21392679.581     4573482.73749   3567730.88747  21392679.196    21392691.795
       238.000         199.000
  22936618.255    -8494373.36349  -6308186.15246  22936616.651    22936631.975
       222.000         167.000
  23300111.322   -11402308.66649  -8873327.94845  23300108.441    23300125.219
       221.000         160.000
  22410751.590    -8266538.45649  -6429797.02246  22410750.850    22410763.709
       227.000         177.000
  22085526.327   -17501891.08349 -13434195.17746  22085524.869    22085538.166
       229.000         177.000
  21398958.041   -11351726.17849  -8838839.57147  21398958.229    21398967.868
       240.000         204.000
  20230137.975    -9517729.90049  -7409496.14248  20230137.647    20230146.414
       241.000         213.000
 01  9 24 23 22 30.0000000  0  7G 1G 3G28G 8G31G27G13
  21404407.543     4635113.14349   3615754.47047  21404407.377    21404419.588
       239.000         198.000
  22939215.764    -8480722.75649  -6297549.29046  22939215.522    22939229.268
       222.000         165.000
  23282542.646   -11494631.49349  -8945267.47745  23282541.262    23282557.598
       221.000         160.000
  22398289.526    -8332026.63549  -6480826.65446  22398288.268    22398301.803
       226.000         175.000
  22075233.874   -17555977.76749 -13476340.48546  22075232.305    22075246.146
       229.000         178.000
  21392095.582   -11387788.80549  -8866940.28747  21392094.511    21392105.505
       239.000         203.000
  20229707.315    -9519992.79849  -7411259.43148  20229707.565    20229715.435
       242.000         213.000
 01  9 24 23 23  0.0000000  0  8G 2G 1G 3G28G 8G31G27G13
  24750273.805    -3580949.65949  -2770755.16245  24750272.283    24750296.540
       209.000         138.000
  21416208.119     4697125.22749   3664075.47447  21416208.018    21416219.846
       238.000         198.000
  22941916.628    -8466529.50049  -6286489.58646  22941916.322    22941930.009
       221.000         165.000
  23265017.633   -11586724.60249  -9017027.97745  23265014.885    23265031.842
       221.000         159.000
  22385848.330    -8397405.37749  -6531771.00746  22385846.551    22385860.146
       223.000         172.000
  22065029.519   -17609601.57149 -13518125.11846  22065028.299    22065041.137
       230.000         178.000
  21385254.709   -11423737.22749  -8894952.01247  21385254.566    21385265.255
       240.000         204.000
  20229365.726    -9521788.14949  -7412658.40348  20229365.622    20229374.217
       241.000         213.000
 01  9 24 23 23 30.0000000  0  8G 2G 1G 3G28G 8G31G27G13
  24733565.351    -3668752.19349  -2839172.33845  24733564.040    24733587.673
       207.000         139.000
  21428082.064     4759522.72049   3712696.79947  21428081.478    21428094.138
       238.000         198.000
  22944721.570    -8451789.35249  -6275003.72846  22944721.390    22944735.054
       221.000         165.000
  23247537.445   -11678582.10249  -9088604.90245  23247536.385    23247551.991
       222.000         162.000
  22373428.684    -8462670.24749  -6582626.62646  22373427.588    22373440.866
       226.000         174.000
  22054914.555   -17662755.42749 -13559543.53546  22054913.901    22054926.264
       230.000         179.000
  21378436.662   -11459566.75149  -8922871.10147  21378436.087    21378446.377
       239.000         204.000
  20229114.042    -9523110.46849  -7413688.78548  20229114.366    20229122.555
       242.000         214.000
 01  9 24 23 24  0.0000000  0  8G 2G 1G 3G28G 8G31G27G13
  24716887.463    -3756393.92449  -2907464.22145  24716886.615    24716909.868
       204.000         138.000
  21440030.440     4822311.53249   3761623.05347  21440030.096    21440042.458
       238.000         198.000
  22947631.744    -8436495.64649  -6263086.53746  22947631.146    22947645.729
       222.000         164.000
  23230103.716   -11770196.00949  -9159992.01546  23230102.465    23230116.787
       223.000         163.000
  22361031.973    -8527814.31049  -6633388.10746  22361030.391    22361044.605
       225.000         177.000
  22044890.784   -17715430.22849 -13600588.67946  22044889.680    22044902.596
       230.000         179.000
  21371642.379   -11495270.63549  -8950692.28547  21371641.830    21371652.733
       240.000         204.000
  20228953.946    -9523952.16649  -7414344.65048  20228953.827    20228962.189
       242.000         214.000
 01  9 24 23 24 30.0000000  0  8G 2G 1G 3G28G 8G31G27G13
  24700239.974    -3843875.55549  -2975631.34745  24700237.012    24700260.456
       208.000         136.000
  21452052.746     4885489.09749   3810852.22547  21452052.823    21452064.904
       239.000         198.000
  22950647.110    -8420650.20949  -6250739.41546  22950646.548    22950660.818
       222.000         164.000
  23212716.120   -11861566.76249  -9231189.64546  23212715.372    23212730.123
       223.000         165.000
  22348657.994    -8592839.54449  -6684056.99346  22348657.446    22348669.925
       226.000         175.000
  22034958.267   -17767625.31949 -13641260.01846  22034957.227    22034970.337
       230.000         180.000
  21364871.664   -11530850.58449  -8978416.87347  21364870.988    21364882.398
       239.000         205.000
  20228885.196    -9524313.68249  -7414626.34748  20228885.054    20228893.427
       242.000         214.000
 01  9 24 23 25  0.0000000  0  8G 2G 1G 3G28G 8G31G27G13
  24683622.980    -3931197.26949  -3043673.94545  24683620.295    24683644.021
       207.000         135.000
  21464148.810     4949053.66449   3860382.95747  21464148.159    21464160.545
       237.000         197.000
  22953766.935    -8404254.51549  -6237963.52946  22953766.608    22953780.282
       222.000         164.000
  23195374.919   -11952693.99649  -9302197.50346  23195372.738    23195388.273
       219.000         166.000
  22336306.441    -8657747.17449  -6734634.27246  22336304.948    22336318.830
       226.000         176.000
  22025117.444   -17819338.90149 -13681556.16046  22025115.940    22025129.810
       230.000         181.000
  21358124.476   -11566307.45449  -9006045.57747  21358124.548    21358134.197
       241.000         205.000
  20228907.654    -9524195.43049  -7414534.20148  20228907.749    20228915.959
       242.000         214.000
 01  9 24 23 25 30.0000000  0  8G 2G 1G 3G28G 8G31G27G13
  24667036.529    -4018358.28449  -3111591.26445  24667034.427    24667057.189
       207.000         137.000
  21476318.202     5013003.95349   3910214.23947  21476317.785    21476330.347
       237.000         197.000
  22956991.615    -8387309.01649  -6224759.22946  22956990.037    22957004.202
       221.000         163.000
  23178080.305   -12043576.59449  -9373014.80646  23178079.330    23178095.821
       225.000         166.000
  22323977.088    -8722537.27349  -6785119.90746  22323976.283    22323988.829
       223.000         177.000
  22015368.587   -17870568.94349 -13721475.52646  22015367.108    22015380.513
       230.000         181.000
  21351400.765   -11601641.66349  -9033578.70147  21351400.803    21351411.367
       241.000         206.000
  20229021.531    -9523596.96549  -7414067.86648  20229021.580    20229029.951
       242.000         214.000
 01  9 24 23 26  0.0000000  0  8G 2G 1G 3G28G 8G31G27G13
  24650480.894    -4105357.45449  -3179382.46645  24650479.618    24650502.402
       206.000         141.000
  21488560.893     5077339.28949   3960345.58247  21488560.169    21488572.984
       238.000         196.000
  22960320.779    -8369813.74849  -6211126.52446  22960320.281    22960334.533
       222.000         164.000
  23160832.373   -12134213.21849  -9443640.41646  23160830.681    23160845.612
       220.000         166.000
  22311670.293    -8787209.63949  -6835513.79746  22311670.462    22311682.666
       226.000         177.000
  22005712.193   -17921313.04249 -13761016.23046  22005710.943    22005723.837
       230.000         182.000
  21344700.318   -11636852.96449  -9061016.03047  21344699.512    21344710.212
       240.000         206.000
  20229227.013    -9522517.30049  -7413226.56448  20229226.848    20229235.203
       242.000         214.000
 01  9 24 23 26 30.0000000  0  8G 2G 1G 3G28G 8G31G27G13
  24633956.018    -4192194.70349  -3247047.52245  24633953.439    24633977.413
       207.000         141.000
  21500876.444     5142057.83549   4010775.52147  21500876.363    21500888.775
       237.000         196.000
  22963754.524    -8351769.64549  -6197066.18546  22963753.924    22963768.263
       223.000         164.000
  23143631.245   -12224603.68349  -9514074.19846  23143629.039    23143645.076
       222.000         166.000
  22299385.769    -8851765.32049  -6885816.82946  22299384.248    22299397.371
       226.000         177.000
  21996148.635   -17971569.49349 -13800176.96646  21996147.714    21996160.881
       229.000         182.000
  21338023.069   -11671941.91949  -9088358.03247  21338023.074    21338032.454
       242.000         205.000
  20229523.979    -9520956.76449  -7412010.57048  20229524.092    20229532.341
       242.000         214.000
 01  9 24 23 27  0.0000000  0  8G 2G 1G 3G28G 8G31G27G13
  24617462.154    -4278868.32349  -3314585.05845  24617460.537    24617483.341
       202.000         139.000
  21513264.979     5207159.51349   4061504.01447  21513264.837    21513277.346
       237.000         196.000
  22967292.564    -8333176.60849  -6182578.09446  22967292.794    22967305.894
       224.000         164.000
  23126477.639   -12314745.87449  -9584314.57846  23126476.444    23126491.474
       225.000         167.000
  22287123.426    -8916203.55749  -6936028.33846  22287123.066    22287134.824
       227.000         176.000
  21986678.404   -18021335.38549 -13838955.43246  21986677.450    21986690.474
       232.000         184.000
  21331369.492   -11706907.86649  -9115604.18647  21331368.971    21331379.294
       241.000         206.000
  20229912.846    -9518913.36249  -7410418.30848  20229912.653    20229921.107
       241.000         214.000
 01  9 24 23 27 30.0000000  0  8G 2G 1G 3G28G 8G31G27G13
  24600999.768    -4365377.39549  -3381994.41445  24600998.063    24601021.176
       202.000         137.000
  21525726.139     5272643.22749   4112530.17747  21525726.100    21525738.216
       237.000         196.000
  22970935.134    -8314034.86449  -6167662.42746  22970935.182    22970948.207
       222.000         164.000
  23109371.295   -12404638.61749  -9654360.55646  23109370.316    23109385.059
       224.000         167.000
  22274883.545    -8980524.80849  -6986148.65746  22274882.899    22274895.367
       227.000         177.000
  21977301.884   -18070608.41849 -13877349.85946  21977301.291    21977313.647
       232.000         184.000
  21324739.023   -11741750.78849  -9142754.47447  21324738.491    21324748.976
       241.000         206.000
  20230393.619    -9516386.62049  -7408449.42448  20230393.520    20230402.094
       242.000         214.000
 01  9 24 23 28  0.0000000  0  8G 2G 1G 3G28G 8G31G27G13
  24584568.941    -4451720.64449  -3449274.54945  24584567.278    24584590.336
       207.000         137.000
  21538260.017     5338508.48049   4163853.67347  21538259.733    21538272.057
       237.000         196.000
  22974682.065    -8294344.60749  -6152319.37346  22974681.509    22974694.257
       222.000         164.000
  23092312.894   -12494280.03549  -9724210.74946  23092311.435    23092326.514
       225.000         167.000
  22262665.992    -9044728.29149  -7036177.26246  22262664.468    22262677.791
       226.000         176.000
  21968019.800   -18119385.75849 -13915358.02546  21968018.787    21968031.911
       230.000         185.000
  21318132.108   -11776470.17849  -9169808.49947  21318131.185    21318141.983
       240.000         206.000
  20230966.604    -9513375.47049  -7406103.07548  20230966.693    20230974.875
       242.000         214.000
 01  9 24 23 28 30.0000000  0  8G 2G 1G 3G28G 8G31G27G13
  24568169.917    -4537897.15149  -3516424.77145  24568168.421    24568190.353
       209.000         140.000
  21550866.222     5404754.29949   4215473.70447  21550866.036    21550878.656
       236.000         196.000
  22978533.311    -8274106.06549  -6136549.06946  22978533.452    22978547.261
       221.000         164.000
  23075302.472   -12583669.31349  -9793864.42946  23075300.342    23075316.414
       221.000         168.000
  22250470.470    -9108814.05749  -7086114.09646  22250468.251    22250482.846
       225.000         175.000
  21958832.353   -18167665.04349 -13952978.10146  21958830.958    21958844.415
       229.000         184.000
  21311548.590   -11811065.83849  -9196766.09147  21311547.743    21311558.796
       241.000         205.000
  20231631.884    -9509879.18249  -7403378.69548  20231631.903    20231640.252
       241.000         213.000
 01  9 24 23 29  0.0000000  0  8G 2G 1G 3G28G 8G31G27G13
  24551802.909    -4623905.65949  -3583444.01345  24551801.851    24551823.112
       207.000         140.000
  21563544.772     5471380.19249   4267389.88447  21563544.499    21563557.297
       237.000         196.000
  22982488.869    -8253319.28549  -6120351.57046  22982487.655    22982501.832
       221.000         164.000
  23058340.312   -12672804.64249  -9863320.28746  23058339.104    23058353.408
       226.000         166.000
  22238297.820    -9172781.79449  -7135958.96646  22238297.787    22238310.397
       229.000         179.000
  21949740.221   -18215443.60949 -13990208.00446  21949738.672    21949751.840
       229.000         184.000
  21304988.844   -11845537.34849  -9223626.96447  21304988.314    21304998.435
       242.000         206.000
  20232389.777    -9505896.54449  -7400275.34148  20232389.568    20232398.233
       241.000         214.000
 01  9 24 23 29 30.0000000  0  8G 2G 1G 3G28G 8G31G27G13
  24535467.807    -4709745.65249  -3650331.95545  24535466.340    24535488.467
       209.000         141.000
  21576295.504     5538384.80849   4319601.18647  21576295.212    21576307.606
       236.000         195.000
  22986548.611    -8231985.28949  -6103727.67846  22986549.273    22986561.440
       222.000         164.000
  23041426.733   -12761685.07849  -9932577.51046  23041424.484    23041438.713
       224.000         168.000
  22226147.673    -9236631.94149  -7185712.19246  22226146.239    22226160.135
       228.000         182.000
  21940743.737   -18262719.57249 -14027046.26546  21940742.890    21940755.271
       230.000         183.000
  21298452.675   -11879884.95949  -9250391.29347  21298451.339    21298462.440
       240.000         206.000
  20233240.158    -9501427.41549  -7396792.90348  20233240.349    20233248.489
       241.000         213.000
 01  9 24 23 30  0.0000000  0  8G 2G 1G 3G28G 8G31G27G13
  24519165.152    -4795415.29449  -3717087.14745  24519163.776    24519185.996
       207.000         141.000
  21589118.026     5605767.69149   4372107.22947  21589117.845    21589130.578
       236.000         195.000
  22990712.398    -8210103.60849  -6086677.01146  22990712.761    22990727.506
       221.000         164.000
  23024562.006   -12850308.89449 -10001634.75746  23024559.599    23024574.987
       224.000         168.000
  22214019.709    -9300363.88849  -7235373.34946  22214018.525    22214031.721
       227.000         182.000
  21931843.417   -18309490.02649 -14063490.63546  21931842.322    21931856.045
       229.000         183.000
  21291939.892   -11914108.04249  -9277058.56847  21291939.097    21291950.426
       240.000         206.000
  20234183.484    -9496470.52049  -7392930.38748  20234183.586    20234191.914
       242.000         213.000
 01  9 24 23 30 30.0000000  0  8G 2G 1G 3G28G 8G31G27G13
  24502895.046    -4880913.42549  -3783708.68345  24502893.920    24502915.721
       207.000         139.000
  21602012.451     5673528.16649   4424907.49547  21602012.308    21602024.740
       237.000         195.000
  22994980.532    -8187674.49149  -6069199.78746  22994980.037    22994993.526
       220.000         165.000
  23007746.355   -12938674.41449 -10070490.76846  23007744.660    23007759.241
       224.000         167.000
  22201914.239    -9363977.44449  -7284942.23746  22201912.995    22201926.102
       228.000         180.000
  21923039.866   -18355752.48449 -14099539.16446  21923038.496    21923051.925
       229.000         183.000
  21285451.042   -11948206.17649  -9303628.49947  21285450.149    21285460.403
       240.000         205.000
  20235219.752    -9491024.62949  -7388686.83948  20235219.519    20235227.891
       240.000         213.000
 01  9 24 23 31  0.0000000  0  8G 2G 1G 3G28G 8G31G27G13
  24486657.610    -4966239.52549  -3850196.13445  24486656.291    24486678.548
       210.000         141.000
  21614978.583     5741664.92749   4478000.97247  21614978.152    21614990.823
       236.000         195.000
  22999352.651    -8164698.97849  -6051296.78746  22999351.520    22999366.600
       219.000         164.000
  22990980.043   -13026780.97049 -10139144.98946  22990979.186    22990993.899
       227.000         167.000
  22189831.638    -9427472.79849  -7334419.04646  22189830.820    22189842.984
       229.000         180.000
  21914333.228   -18401505.23149 -14135190.51946  21914332.373    21914345.830
       231.000         183.000
  21278986.228   -11982179.58349  -9330101.24947  21278986.414    21278996.261
       242.000         206.000
  20236349.168    -9485089.51449  -7384062.07048  20236349.167    20236357.506
       242.000         213.000
 01  9 24 23 31 30.0000000  0  8G 2G 1G 3G28G 8G31G27G13
  24470453.361    -5051392.56049  -3916548.73345  24470451.369    24470473.877
       210.000         143.000
  21628015.967     5810177.14249   4531387.01347  21628015.826    21628028.439
       236.000         194.000
  23003828.613    -8141177.59549  -6032968.44746  23003828.411    23003842.522
       221.000         164.000
  22974263.186   -13114627.13049 -10207596.29346  22974262.039    22974276.659
       225.000         166.000
  22177771.280    -9490849.88249  -7383803.66446  22177770.049    22177782.406
       227.000         180.000
  21905724.055   -18446745.87749 -14170442.82446  21905722.634    21905736.193
       230.000         183.000
  21272545.139   -12016027.92049  -9356476.53347  21272544.744    21272554.772
       240.000         207.000
  20237571.766    -9478664.47549  -7379055.55748  20237571.901    20237580.208
       241.000         213.000
 01  9 24 23 32  0.0000000  0  8G 2G 1G 3G28G 8G31G27G13
  24454282.262    -5136370.78849  -3982765.12545  24454280.624    24454302.173
       208.000         144.000
  21641125.043     5879064.61049   4585065.46647  21641124.671    21641137.607
       236.000         194.000
  23008408.675    -8117109.51749  -6014214.10846  23008407.741    23008422.411
       220.000         164.000
  22957596.450   -13202210.55849 -10275842.86246  22957595.317    22957609.490
       225.000         167.000
  22165733.392    -9554107.68949  -7433095.33646  22165731.553    22165744.204
       226.000         178.000
  21897213.035   -18491470.93549 -14205293.38546  21897212.305    21897225.365
       229.000         183.000
  21266127.944   -12049750.14149  -9382753.53347  21266126.997    21266137.656
       240.000         206.000
  20238887.979    -9471747.94249  -7373666.05448  20238887.899    20238896.252
       241.000         213.000
 01  9 24 23 32 30.0000000  0  8G 2G 1G 3G28G 8G31G27G13
  24438144.542    -5221173.56849  -4048844.71845  24438142.196    24438165.684
       206.000         145.000
  21654305.063     5948325.98549   4639035.26747  21654304.627    21654317.357
       235.000         194.000
  23013092.505    -8092495.85849  -5995034.64146  23013091.908    23013106.806
       220.000         165.000
  22940979.820   -13289530.77249 -10343884.33346  22940978.481    22940993.170
       225.000         170.000
  22153718.170    -9617246.64749  -7482294.39546  22153716.921    22153729.542
       227.000         176.000
  21888800.489   -18535678.71549 -14239740.87046  21888799.799    21888812.453
       231.000         183.000
  21259734.723   -12083346.25949  -9408932.28347  21259734.612    21259744.471
       242.000         206.000
  20240297.724    -9464339.57249  -7367893.30548  20240297.733    20240306.052
       242.000         213.000
 01  9 24 23 33  0.0000000  0  8G 2G 1G 3G28G 8G31G27G13
  24422040.360    -5305799.99949  -4114786.90145  24422038.365    24422060.904
       209.000         146.000
  21667556.077     6017960.08449   4693295.49447  21667555.903    21667568.510
       236.000         194.000
  23017879.986    -8067337.27449  -5975430.54546  23017878.934    23017894.411
       217.000         164.000
  22924413.355   -13376586.71749 -10411719.86646  22924412.669    22924426.546
       228.000         170.000
  22141725.846    -9680266.78849  -7531400.88446  22141725.852    22141737.881
       231.000         180.000
  21880486.821   -18579367.19549 -14273783.70846  21880485.415    21880498.156
       230.000         182.000
  21253365.706   -12116816.31449  -9435012.79847  21253364.622    21253375.736
       239.000         207.000
  20241801.082    -9456439.03049  -7361737.04848  20241801.103    20241809.716
       240.000         213.000
 01  9 24 23 33 30.0000000  0  8G 2G 1G 3G28G 8G31G27G13
  24405969.923    -5390249.11249  -4180590.94545  24405967.600    24405989.647
       209.000         147.000
  21680877.845     6087965.88949   4747845.36047  21680877.421    21680890.309
       236.000         193.000
  23022771.083    -8041634.16749  -5955402.14346  23022770.378    23022785.250
       221.000         164.000
  22907897.614   -13463376.77949 -10479348.25546  22907896.653    22907910.763
       228.000         171.000
  22129756.349    -9743167.80849  -7580414.57746  22129755.319    22129767.221
       228.000         181.000
  21872272.313   -18622534.00549 -14307420.06746  21872271.282    21872283.692
       231.000         182.000
  21247020.521   -12150160.10349  -9460994.92847  21247020.324    21247030.819
       241.000         208.000
  20243398.304    -9448045.47449  -7355196.62348  20243398.517    20243406.732
       241.000         213.000
 01  9 24 23 34  0.0000000  0  8G 2G 1G 3G28G 8G31G27G13
  24389933.417    -5474519.63249  -4246255.76945  24389931.252    24389952.927
       209.000         148.000
  21694270.198     6158342.93349   4802684.50647  21694269.869    21694282.700
       235.000         193.000
  23027765.729    -8015386.74349  -5934949.60146  23027765.700    23027779.942
       220.000         164.000
  22891432.688   -13549899.60349 -10546768.36346  22891431.692    22891445.603
       225.000         170.000
  22117809.177    -9805949.41749  -7629335.17846  22117807.840    22117821.164
       226.000         179.000
  21864157.622   -18665176.52149 -14340647.87446  21864156.020    21864168.832
       229.000         182.000
  21240699.580   -12183376.66349  -9486877.91147  21240698.900    21240709.044
       241.000         207.000
  20245089.609    -9439157.83349  -7348271.19848  20245089.646    20245098.010
       241.000         213.000
 01  9 24 23 34 30.0000000  0  8G 2G 1G 3G28G 8G31G27G13
  24373931.082    -5558610.39949  -4311780.55145  24373929.410    24373950.248
       213.000         146.000
  21707733.073     6229090.36749   4857812.26147  21707732.679    21707745.851
       235.000         193.000
  23032863.956    -7988595.70149  -5914073.48246  23032863.910    23032878.187
       219.000         164.000
  22875018.873   -13636153.46249 -10613978.90846  22875018.234    22875030.600
       225.000         169.000
  22105884.800    -9868611.25949  -7678162.43246  22105884.435    22105896.831
       228.000         180.000
  21856143.156   -18707292.47249 -14373465.38346  21856142.028    21856154.684
       231.000         182.000
  21234402.996   -12216465.67649  -9512661.52347  21234402.449    21234412.854
       241.000         207.000
  20246875.033    -9429775.52449  -7340960.31248  20246875.090    20246883.425
       242.000         213.000
 01  9 24 23 35  0.0000000  0  8G 2G 1G 3G28G 8G31G27G13
  24357963.061    -5642520.85949  -4377164.94145  24357960.785    24357981.963
       205.000         141.000
  21721266.185     6300206.84049   4913227.57447  21721266.090    21721278.622
       236.000         193.000
  23038065.408    -7961261.49649  -5892774.11146  23038064.800    23038080.302
       219.000         165.000
  22858656.560   -13722137.75349 -10680979.42346  22858655.292    22858669.951
       223.000         169.000
  22093983.600    -9931153.32149  -7726896.43546  22093982.914    22093993.992
       231.000         178.000
  21848229.235   -18748879.87849 -14405871.04246  21848228.016    21848240.715
       232.000         182.000
  21228130.666   -12249427.07249  -9538345.69747  21228130.131    21228140.445
       241.000         207.000
  20248754.757    -9419897.78649  -7333263.38148  20248754.849    20248763.016
       242.000         213.000
 01  9 24 23 35 30.0000000  0  8G 2G 1G 3G28G 8G31G27G13
  24342029.533    -5726249.78549  -4442407.75945  24342026.905    24342049.028
       209.000         143.000
  21734869.380     6371691.58549   4968929.86147  21734869.473    21734882.370
       235.000         193.000
  23043370.192    -7933384.66149  -5871051.91246  23043369.987    23043384.284
       221.000         164.000
  22842345.535   -13807850.86849 -10747768.62046  22842343.914    22842356.866
       225.000         168.000
  22082104.987    -9993575.46249  -7775536.96046  22082103.788    22082116.569
       229.000         179.000
  21840416.357   -18789936.41649 -14437863.03246  21840415.215    21840427.804
       232.000         183.000
  21221882.420   -12282260.55349  -9563930.17247  21221881.767    21221892.272
       241.000         207.000
  20250728.789    -9409524.31849  -7325180.16948  20250728.982    20250737.307
       242.000         214.000
 01  9 24 23 36  0.0000000  0  8G 2G 1G 3G28G 8G31G27G13
  24326130.842    -5809796.09549  -4507508.34045  24326129.031    24326149.435
       209.000         144.000
  21748542.442     6443543.55249   5024918.30547  21748541.838    21748555.204
       234.000         192.000
  23048778.214    -7904965.64649  -5848907.22846  23048777.523    23048792.494
       219.000         164.000
  22826086.579   -13893291.39949 -10814345.40746  22826084.790    22826098.897
       227.000         169.000
  22070249.098   -10055877.33749  -7824083.74346  22070247.925    22070260.706
       229.000         180.000
  21832704.863   -18830459.70349 -14469439.52246  21832703.654    21832716.888
       231.000         183.000
  21215659.026   -12314965.31849  -9589414.38847  21215659.125    21215668.873
       242.000         207.000
  20252797.390    -9398653.95749  -7316709.76748  20252797.340    20252805.741
       242.000         213.000
 01  9 24 23 36 30.0000000  0  8G 2G 1G 3G28G 8G31G27G13
  24310267.133    -5893158.84649  -4572465.87645  24310265.064    24310286.956
       211.000         146.000
  21762285.106     6515761.91549   5081192.24747  21762284.234    21762298.000
       235.000         191.000
  23054289.228    -7876004.98249  -5826340.49446  23054289.028    23054302.739
       221.000         164.000
  22809879.773   -13978457.99949 -10880708.74746  22809878.520    22809892.602
       224.000         170.000
  22058416.405   -10118058.56749  -7872536.55146  22058416.556    22058427.829
       234.000         183.000
  21825095.401   -18870447.55249 -14500598.77146  21825094.651    21825106.866
       233.000         184.000
  21209460.008   -12347541.10349  -9614798.08047  21209458.997    21209469.970
       239.000         207.000
  20254960.625    -9387286.14849  -7307851.74448  20254960.493    20254968.897
       242.000         214.000
 01  9 24 23 37  0.0000000  0  8G 2G 1G 3G28G 8G31G27G13
  24294438.438    -5976338.01949  -4637280.43145  24294436.412    24294457.479
       206.000         144.000
  21776097.288     6588344.77049   5137750.21847  21776096.902    21776109.821
       234.000         190.000
  23059903.107    -7846504.26849  -5803352.91546  23059902.402    23059916.713
       216.000         163.000
  22793725.066   -14063350.30249 -10946858.34146  22793723.274    22793737.942
       226.000         169.000
  22046606.711   -10180120.03349  -7920896.04846  22046605.932    22046617.954
       233.000         184.000
  21817588.075   -18909898.69549 -14531339.80946  21817587.309    21817599.576
       232.000         184.000
  21203285.283   -12379988.40849  -9640081.65247  21203285.191    21203295.758
       241.000         207.000
  20257218.398    -9375421.28049  -7298606.39448  20257218.589    20257226.798
       244.000         214.000
 01  9 24 23 37 30.0000000  0  8G 2G 1G 3G28G 8G31G27G13
  24278644.842    -6059331.63349  -4701950.34145  24278643.075    24278664.232
       206.000         144.000
  21789978.674     6661292.09349   5194592.18947  21789978.282    21789991.498
       234.000         190.000
  23065619.561    -7816463.25649  -5779944.36146  23065619.864    23065633.590
       220.000         163.000
  22777623.059   -14147966.24949 -11012792.63646  22777621.751    22777636.002
       227.000         169.000
  22034819.743   -10242060.49049  -7969161.22746  22034817.313    22034831.247
       230.000         182.000
  21810183.446   -18948810.11749 -14561660.28446  21810182.525    21810194.627
       232.000         185.000
  21197135.505   -12412305.93149  -9665264.11147  21197135.309    21197145.200
       242.000         207.000
  20259571.169    -9363057.67749  -7288972.41948  20259571.151    20259579.389
       243.000         213.000
 01  9 24 23 38  0.0000000  0  8G 2G 1G 3G28G 8G31G27G13
  24262886.737    -6142138.42049  -4766474.68145  24262884.694    24262905.064
       207.000         143.000
  21803929.357     6734602.97449   5251717.43547  21803929.154    21803942.160
       235.000         190.000
  23071438.885    -7785882.54649  -5756115.22946  23071438.056    23071453.083
       218.000         163.000
  22761573.852   -14232304.49349 -11078510.51946  22761572.571    22761585.599
       226.000         170.000
  22023055.598   -10303879.37349  -8017331.69646  22023054.507    22023066.427
       231.000         183.000
  21802881.932   -18987179.49049 -14591558.39146  21802881.109    21802893.081
       232.000         185.000
  21191010.606   -12444493.18049  -9690345.05347  21191010.339    21191019.527
       242.000         207.000
  20262018.916    -9350194.68149  -7278949.31148  20262018.836    20262027.374
       243.000         213.000
 01  9 24 23 38 30.0000000  0  8G 2G 1G 3G28G 8G31G27G13
  24247164.448    -6224757.46349  -4830852.77245  24247162.619    24247182.956
       208.000         145.000
  21817949.018     6808276.31349   5309125.13047  21817949.248    21817962.056
       235.000         190.000
  23077360.740    -7754762.71249  -5731866.02846  23077359.826    23077375.181
       217.000         163.000
  22745577.697   -14316363.89349 -11144011.11346  22745576.545    22745590.088
       225.000         171.000
  22011314.804   -10365576.96949  -8065407.64046  22011313.435    22011326.101
       231.000         182.000
  21795683.909   -19025005.08649 -14621032.77646  21795682.973    21795695.163
       232.000         185.000
  21184910.465   -12476549.78049  -9715324.19347  21184909.262    21184920.605
       241.000         207.000
  20264561.742    -9336832.01949  -7268536.86148  20264561.856    20264570.188
       243.000         213.000
 01  9 24 23 39  0.0000000  0  8G 2G 1G 3G28G 8G31G27G13
  24231477.996    -6307188.50549  -4895084.27745  24231475.828    24231496.012
       207.000         147.000
  21832037.324     6882310.39649   5366813.91647  21832037.395    21832050.143
       235.000         190.000
  23083384.890    -7723105.10749  -5707197.79145  23083384.875    23083399.296
       220.000         162.000
  22729634.775   -14400143.64149 -11209293.81346  22729633.012    22729646.768
       225.000         172.000
  21999597.253   -10427153.37249  -8113389.17846  21999596.196    21999608.859
       233.000         183.000
  21788589.561   -19062285.39849 -14650082.26546  21788588.054    21788600.562
       233.000         185.000
  21178834.906   -12508475.85349  -9740201.62447  21178834.628    21178845.059
       241.000         207.000
  20267199.644    -9322969.56349  -7257734.95548  20267199.790    20267208.179
       243.000         213.000
 01  9 24 23 39 30.0000000  0  8G 2G 1G 3G28G 8G31G27G13
  24215827.557    -6389430.33549  -4959168.45045  24215825.553    24215846.845
       208.000         147.000
  21846194.155     6956704.31649   5424783.11047  21846193.715    21846207.401
       234.000         190.000
  23089511.527    -7690910.46649  -5682111.07046  23089511.014    23089525.703
       218.000         163.000
  22713745.172   -14483642.80049 -11274357.87546  22713743.652    22713757.017
       225.000         173.000
  21987902.708   -10488608.49749  -8161276.21746  21987902.342    21987913.867
       235.000         185.000
  21781599.399   -19099018.25449 -14678705.15446  21781598.333    21781610.767
       232.000         185.000
  21172784.631   -12540270.91849  -9764976.97447  21172784.306    21172794.532
       242.000         208.000
  20269932.827    -9308606.61449  -7246543.05848  20269932.877    20269941.169
       243.000         213.000
 01  9 24 23 40  0.0000000  0  8G 2G 1G 3G28G 8G31G27G13
  24200213.303    -6471481.97249  -5023104.37145  24200211.882    24200232.401
       214.000         149.000
  21860419.246     7031457.43649   5483032.19647  21860418.837    21860432.385
       233.000         189.000
  23095739.993    -7658179.07449  -5656606.11946  23095740.252    23095754.751
       219.000         164.000
  22697909.296   -14566859.41949 -11339201.75946  22697907.805    22697921.586
       228.000         172.000
  21976231.535   -10549941.40549  -8209068.02546  21976230.972    21976242.424
       233.000         186.000
  21774713.957   -19135201.28049 -14706899.59146  21774712.670    21774725.467
       233.000         186.000
  21166759.317   -12571934.17149  -9789649.61747  21166758.598    21166768.561
       241.000         208.000
  20272761.414    -9293742.18949  -7234960.39648  20272761.569    20272769.716
       243.000         213.000
 01  9 24 23 40 30.0000000  0  8G 2G 1G 3G28G 8G31G27G13
  24184635.487    -6553342.77249  -5086891.60545  24184633.437    24184653.784
       209.000         149.000
  21874712.384     7106568.13649   5541559.90847  21874712.162    21874725.553
       234.000         189.000
  23102070.571    -7624911.96149  -5630683.71246  23102070.160    23102084.768
       218.000         163.000
  22682127.511   -14649792.60849 -11403824.84146  22682125.681    22682138.408
       227.000         174.000
  21964583.354   -10611152.21249  -8256764.68146  21964581.876    21964594.561
       230.000         184.000
  21767933.340   -19170832.81549 -14734664.31546  21767932.114    21767944.862
       232.000         186.000
  21160758.996   -12603465.58149  -9814219.51647  21160757.502    21160768.300
       240.000         207.000
  20275685.460    -9278376.19849  -7222986.89748  20275685.565    20275694.090
       243.000         213.000
 01  9 24 23 41  0.0000000  0  8G 2G 1G 3G28G 8G31G27G13
  24169094.176    -6635011.40449  -5150529.09245  24169092.675    24169112.037
       208.000         149.000
  21889073.516     7182035.72849   5600365.71747  21889073.240    21889086.066
       234.000         188.000
  23108503.057    -7591109.44649  -5604344.12046  23108502.297    23108517.212
       218.000         164.000
  22666399.778   -14732441.04849 -11468225.99546  22666397.909    22666412.615
       228.000         174.000
  21952958.368   -10672240.63149  -8304365.97046  21952957.064    21952969.526
       230.000         185.000
  21761258.161   -19205910.27049 -14761997.29846  21761257.235    21761269.442
       233.000         186.000
  21154783.906   -12634864.19049  -9838685.94547  21154784.437    21154793.903
       243.000         208.000
  20278705.001    -9262508.12649  -7210622.18048  20278705.105    20278713.561
       243.000         213.000
 01  9 24 23 41 30.0000000  0  8G 2G 1G 3G28G 8G31G27G13
  24153589.484    -6716487.12249  -5214016.25645  24153588.369    24153607.765
       212.000         151.000
  21903502.189     7257858.87649   5659448.58247  21903501.801    21903515.135
       234.000         188.000
  23115037.145    -7556772.54349  -5577588.10446  23115035.674    23115051.654
       218.000         164.000
  22650726.578   -14814803.65249 -11532404.44946  22650726.199    22650738.987
       228.000         175.000
  21941356.698   -10733206.41849  -8351871.65846  21941355.636    21941368.669
       231.000         185.000
  21754688.852   -19240431.85549 -14788897.13146  21754688.572    21754699.954
       233.000         186.000
  21148834.184   -12666129.82149  -9863048.72947  21148833.108    21148844.689
       240.000         208.000
  20281820.240    -9246137.48949  -7197865.84248  20281820.098    20281828.728
       242.000         213.000
 01  9 24 23 42  0.0000000  0  8G 2G 1G 3G28G 8G31G27G13
  24138121.640    -6797769.61849  -5277352.86845  24138119.438    24138139.055
       211.000         150.000
  21917998.336     7334036.18249   5718807.42847  21917998.236    21918011.599
       234.000         188.000
  23121672.688    -7521902.71849  -5550416.85246  23121672.329    23121686.592
       220.000         164.000
  22635107.784   -14896879.72249 -11596359.63546  22635107.521    22635119.644
       228.000         174.000
  21929778.856   -10794049.51649  -8399281.82346  21929778.310    21929789.759
       235.000         185.000
  21748225.684   -19274396.09249 -14815362.65046  21748225.107    21748236.721
       232.000         186.000
  21142909.674   -12697262.54949  -9887307.97447  21142909.808    21142918.999
       242.000         207.000
  20285031.078    -9229264.35749  -7184717.95948  20285031.085    20285039.594
       241.000         213.000
 01  9 24 23 42 30.0000000  0  8G 2G 1G 3G28G 8G31G27G13
  24122690.811    -6878857.71749  -5340538.02345  24122689.390    24122708.262
       215.000         151.000
  21932561.693     7410566.49249   5778441.32646  21932561.404    21932574.426
       234.000         187.000
  23128409.636    -7486500.67249  -5522830.87446  23128409.535    23128424.907
       217.000         164.000
  22619543.849   -14978668.18449 -11660090.73046  22619542.866    22619555.933
       227.000         174.000
  21918224.296   -10854769.93749  -8446596.37546  21918223.200    21918234.768
       233.000         184.000
  21741868.819   -19307801.20049 -14841392.49346  21741867.978    21741879.967
       233.000         187.000
  21137010.930   -12728261.76649  -9911463.17847  21137009.923    21137021.168
       241.000         208.000
  20288337.631    -9211888.32649  -7171178.21148  20288337.826    20288346.164
       243.000         213.000
 01  9 24 23 43  0.0000000  0  8G 2G 1G 3G28G 8G31G27G13
  24107297.266    -6959750.33849  -5403570.83245  24107295.257    24107314.709
       216.000         151.000
  21947191.905     7487448.74449   5838349.47846  21947191.815    21947204.951
       234.000         187.000
  23135247.463    -7450567.30149  -5494830.89046  23135246.602    23135261.790
       218.000         163.000
  22604034.820   -15060167.60749 -11723596.60646  22604033.403    22604046.290
       230.000         174.000
  21906692.968   -10915367.23949  -8493815.00346  21906692.133    21906702.613
       233.000         183.000
  21735618.763   -19340644.95549 -14866984.92546  21735617.785    21735629.983
       233.000         187.000
  21131137.491   -12759126.89449  -9935513.88747  21131137.168    21131147.221
       242.000         209.000
  20291740.068    -9194008.51949  -7157245.90648  20291739.781    20291748.259
       243.000         213.000
 01  9 24 23 43 30.0000000  0  8G 2G 1G 3G28G 8G31G27G13
  24091941.151    -7040446.22649  -5466450.39045  24091939.407    24091958.360
       212.000         152.000
  21961889.089     7564682.26749   5898531.34246  21961888.511    21961902.232
       233.000         187.000
  23142186.621    -7414103.04849  -5466417.21846  23142186.348    23142200.669
       219.000         164.000
  22588581.203   -15141376.17749 -11786875.82246  22588579.852    22588593.596
       228.000         176.000
  21895185.128   -10975840.57849  -8540937.01146  21895183.610    21895196.590
       232.000         183.000
  21729475.914   -19372925.06649 -14892138.15446  21729474.948    21729486.949
       233.000         186.000
  21125289.802   -12789857.03549  -9959459.41847  21125289.416    21125299.415
       242.000         209.000
  20295238.491    -9175624.15949  -7142920.45148  20295238.509    20295247.106
       243.000         213.000
 01  9 24 23 44  0.0000000  0  8G 2G 1G 3G28G 8G31G27G13
  24076622.413    -7120944.82249  -5529176.12645  24076621.722    24076640.710
       217.000         152.000
  21976652.819     7642265.72949   5958985.88146  21976652.270    21976666.520
       233.000         187.000
  23149226.235    -7377109.07749  -5437590.78046  23149225.804    23149240.874
       220.000         163.000
  22573183.013   -15222293.16249 -11849927.84046  22573182.391    22573194.493
       228.000         176.000
  21883700.877   -11036189.87149  -8587962.34046  21883700.120    21883712.657
       233.000         186.000
  21723440.594   -19404640.14149 -14916851.10346  21723439.316    21723451.978
       232.000         186.000
  21119467.639   -12820451.93649  -9983299.55447  21119467.207    21119477.162
       242.000         208.000
  20298832.952    -9156735.36449  -7128201.92648  20298832.990    20298841.446
       243.000         213.000
 01  9 24 23 44 30.0000000  0  8G 2G 1G 3G28G 8G31G27G13
  24061341.629    -7201245.13949  -5591747.43445  24061339.291    24061359.104
       218.000         153.000
  21991482.892     7720198.01349   6019712.22646  21991482.583    21991496.072
       232.000         187.000
  23156366.645    -7339586.07649  -5408352.10946  23156365.722    23156380.660
       218.000         163.000
  22557840.549   -15302917.31149 -11912751.68346  22557839.433    22557851.273
       228.000         174.000
  21872240.434   -11096414.75049  -8634890.75247  21872239.923    21872251.041
       236.000         188.000
  21717513.190   -19435788.08749 -14941122.14046  21717512.269    21717524.635
       231.000         186.000
  21113671.424   -12850910.94849 -10007033.80447  21113671.409    21113681.179
       243.000         209.000
  20302523.470    -9137341.67949  -7113089.98048  20302523.495    20302531.750
       243.000         213.000
 01  9 24 23 45  0.0000000  0  8G 2G 1G 3G28G 8G31G27G13
  24046098.619    -7281346.78849  -5654163.92745  24046096.524    24046116.183
       216.000         156.000
  22006378.967     7798477.47649   6080709.10746  22006378.911    22006392.670
       232.000         186.000
  23163607.596    -7301535.61649  -5378702.43946  23163607.508    23163622.043
       220.000         164.000
  22542554.023   -15383248.04549 -11975346.89546  22542553.495    22542566.064
       228.000         177.000
  21860803.745   -11156515.39849  -8681722.34546  21860802.182    21860814.150
       228.000         185.000
  21711693.949   -19466367.66349 -14964950.31246  21711693.118    21711705.379
       231.000         186.000
  21107901.209   -12881234.07649 -10030662.17647  21107900.405    21107910.942
       242.000         209.000
  20306310.035    -9117443.10349  -7097584.62348  20306310.054    20306318.644
       243.000         213.000
 01  9 24 23 45 30.0000000  0  8G 2G 1G 3G28G 8G31G27G13
  24030893.417    -7361248.71849  -5716424.77045  24030890.151    24030911.147
       213.000         152.000
  22021341.017     7877102.80249   6141975.48246  22021340.563    22021354.435
       231.000         186.000
  23170948.539    -7262958.53349  -5348642.39546  23170947.867    23170963.026
       220.000         164.000
  22527323.505   -15463284.31649 -12037712.63346  22527323.049    22527335.826
       229.000         177.000
  21849390.284   -11216491.54149  -8728456.91346  21849389.532    21849400.716
       232.000         183.000
  21705983.348   -19496376.98649 -14988334.10846  21705982.011    21705994.868
       231.000         186.000
  21102156.759   -12911420.83149 -10054184.28347  21102155.991    21102166.011
       242.000         209.000
  20310192.705    -9097039.32549  -7081685.59548  20310192.906    20310201.138
       244.000         213.000
 01  9 24 23 46  0.0000000  0  8G 2G 1G 3G28G 8G31G27G13
  24015726.411    -7440949.67349  -5778529.00445  24015725.329    24015744.717
       215.000         154.000
  22036368.665     7956073.41849   6203510.92046  22036368.230    22036381.879
       231.000         186.000
  23178389.765    -7223855.27649  -5318172.37246  23178388.925    23178402.944
       219.000         164.000
  22512149.338   -15543024.26349 -12099847.47646  22512148.424    22512161.837
       228.000         177.000
  21838001.054   -11276342.23549  -8775093.72546  21838000.477    21838011.408
       233.000         184.000
  21700381.705   -19525813.51349 -15011271.56846  21700380.809    21700392.916
       232.000         186.000
  21096438.528   -12941470.03649 -10077599.21647  21096438.020    21096448.307
       241.000         209.000
  20314171.762    -9076129.32749  -7065392.10947  20314171.692    20314180.318
       243.000         212.000
 01  9 24 23 46 30.0000000  0  8G 2G 1G 3G28G 8G31G27G13
  24000597.735    -7520449.39949  -5840476.42345  24000595.913    24000614.059
       215.000         155.000
  22051461.656     8035387.28649   6265313.83246  22051461.491    22051475.178
       232.000         186.000
  23185930.684    -7184227.58549  -5287293.66746  23185929.785    23185944.455
       218.000         164.000
  22497031.612   -15622467.75049 -12161751.34046  22497030.850    22497042.635
       229.000         176.000
  21826635.708   -11336067.80149  -8821633.04846  21826634.985    21826646.453
       236.000         187.000
  21694889.195   -19554676.36349 -15033762.01446  21694888.341    21694900.484
       231.000         186.000
  21090746.391   -12971381.87049 -10100907.10247  21090746.070    21090756.233
       241.000         209.000
  20318247.092    -9054713.58749  -7048704.54048  20318247.070    20318255.500
       243.000         213.000
 01  9 24 23 47  0.0000000  0  8G 2G 1G 3G28G 8G31G27G13
  23985507.676    -7599746.85849  -5902266.24945  23985507.389    23985524.853
       218.000         156.000
  22066619.842     8115043.55049   6327383.54846  22066619.267    22066632.827
       232.000         186.000
  23193571.314    -7144076.16249  -5256006.86746  23193570.325    23193586.045
       218.000         164.000
  22481970.750   -15701613.02449 -12223422.81146  22481969.247    22481982.462
       228.000         177.000
  21815294.203   -11395667.89849  -8868074.58147  21815293.237    21815305.711
       233.000         189.000
  21689506.183   -19582963.59749 -15055803.92046  21689505.268    21689517.098
       231.000         186.000
  21085080.578   -13001155.64249 -10124107.39347  21085079.963    21085091.038
       241.000         209.000
  20322418.677    -9032791.74049  -7031622.59347  20322418.622    20322427.038
       243.000         212.000
 01  9 24 23 47 30.0000000  0  8G 2G 1G 3G28G 8G31G27G13
  23970456.213    -7678841.52949  -5963898.07545  23970454.510    23970472.349
       215.000         154.000
  22081842.852     8195040.71249   6389718.88946  22081842.549    22081856.259
       231.000         186.000
  23201311.187    -7103402.36849  -5224313.02946  23201309.797    23201325.439
       219.000         163.000
  22466966.548   -15780459.60649 -12284861.55046  22466965.803    22466977.821
       231.000         177.000
  21803976.538   -11455142.27549  -8914418.16746  21803975.232    21803987.283
       233.000         187.000
  21684233.153   -19610673.49049 -15077395.94646  21684232.188    21684244.323
       231.000         186.000
  21079441.205   -13030790.84149 -10147199.72147  21079441.526    21079450.631
       243.000         209.000
  20326686.597    -9010363.50549  -7014146.06848  20326686.798    20326695.200
       244.000         213.000
 01  9 24 23 48  0.0000000  0  8G 2G 1G 3G28G 8G31G27G13
  23955443.510    -7757732.06049  -6025370.84345  23955441.383    23955460.311
       217.000         153.000
  22097130.637     8275377.99449   6452319.25546  22097130.405    22097143.902
       231.000         185.000
  23209150.541    -7062206.90349  -5192212.68846  23209149.220    23209164.028
       218.000         164.000
  22452019.621   -15859005.73849 -12346066.13546  22452018.751    22452031.390
       227.000         178.000
  21792682.859   -11514490.02049  -8960663.06746  21792681.361    21792693.340
       233.000         186.000
  21679070.254   -19637804.18449 -15098536.63846  21679069.552    21679081.108
       232.000         186.000
  21073828.445   -13060286.53149 -10170183.35247  21073827.823    21073837.844
       242.000         209.000
  20331051.028    -8987428.36749  -6996274.55148  20331050.846    20331059.625
       243.000         213.000
 01  9 24 23 48 30.0000000  0  8G 2G 1G 3G28G 8G31G27G13
  23940469.791    -7836417.87749  -6086684.07745  23940468.638    23940485.150
       218.000         157.000
  22112482.832     8356053.70949   6515183.34946  22112482.057    22112496.003
       230.000         184.000
  23217088.572    -7020491.21149  -5159706.97146  23217088.714    23217103.192
       219.000         163.000
  22437129.820   -15937250.86049 -12407036.20546  22437129.199    22437141.384
       230.000         176.000
  21781413.221   -11573711.32149  -9006809.43846  21781411.682    21781424.880
       232.000         187.000
  21674017.848   -19664354.38849 -15119225.02546  21674016.790    21674029.003
       232.000         186.000
  21068242.152   -13089642.37849 -10193058.01147  21068241.220    21068252.123
       241.000         209.000
  20335511.865    -8963986.34049  -6978008.04847  20335511.878    20335520.082
       243.000         212.000
 01  9 24 23 49  0.0000000  0  8G 2G 1G 3G28G 8G31G27G13
  23925535.249    -7914897.82149  -6147836.89445  23925533.848    23925551.410
       218.000         155.000
  22127899.088     8437066.96949   6578310.44646  22127898.345    22127912.642
       230.000         183.000
  23225125.829    -6978255.73549  -5126796.23045  23225124.861    23225140.098
       218.000         162.000
  22422297.754   -16015193.53649 -12467770.58046  22422296.787    22422308.908
       231.000         177.000
  21770167.819   -11632805.33149  -9052856.59047  21770166.437    21770179.498
       230.000         188.000
  21669076.290   -19690322.02649 -15139459.47846  21669075.431    21669087.150
       232.000         187.000
  21062682.582   -13118857.60749 -10215823.11047  21062681.779    21062691.593
       241.000         208.000
  20340069.314    -8940036.81649  -6959346.09748  20340069.233    20340078.213
       243.000         213.000
 01  9 24 23 49 30.0000000  0  8G 2G 1G 3G28G 8G31G27G13
  23910639.927    -7993171.81449  -6208829.23945  23910637.580    23910655.760
       215.000         155.000
  22143379.405     8518416.05149   6641699.21946  22143378.698    22143393.275
       230.000         183.000
  23233261.407    -6935502.24549  -5093481.84145  23233260.389    23233276.360
       217.000         162.000
  22407523.242   -16092833.31049 -12528268.90746  22407521.516    22407534.948
       229.000         177.000
  21758946.533   -11691772.32649  -9098804.79546  21758946.345    21758957.276
       233.000         186.000
  21664245.768   -19715706.08049 -15159239.19546  21664244.755    21664257.323
       232.000         187.000
  21057149.853   -13147932.01649 -10238478.47047  21057149.469    21057159.989
       241.000         208.000
  20344723.225    -8915580.37649  -6940289.15548  20344723.661    20344731.607
       244.000         213.000
 01  9 24 23 50  0.0000000  0  8G 2G 1G 3G28G 8G31G27G13
  23895783.822    -8071238.88449  -6269660.33145  23895782.084    23895800.214
       215.000         154.000
  22158923.316     8600099.72449   6705348.71746  22158923.027    22158936.920
       228.000         182.000
  23241495.465    -6892232.08049  -5059764.83745  23241494.878    23241509.689
       219.000         162.000
  22392806.586   -16170168.91249 -12588530.23546  22392805.783    22392818.335
       229.000         177.000
  21747749.819   -11750611.87849  -9144653.74146  21747749.726    21747760.353
       236.000         187.000
  21659526.712   -19740504.82449 -15178562.81547  21659525.752    21659538.029
       231.000         188.000
  21051644.055   -13176865.06149 -10261023.68147  21051643.690    21051652.996
       241.000         208.000
  20349473.668    -8890616.74949  -6920836.99348  20349473.543    20349482.452
       243.000         213.000
 01  9 24 23 50 30.0000000  0  8G 2G 1G 3G28G 8G31G27G13
  23880967.317    -8149098.45849  -6330329.77445  23880966.131    23880982.887
       217.000         154.000
  22174530.632     8682116.45749   6769257.73546  22174530.492    22174544.113
       228.000         182.000
  23249827.498    -6848446.49649  -5025646.24045  23249827.130    23249841.325
       218.000         161.000
  22378148.010   -16247199.52449 -12648553.91146  22378147.101    22378159.317
       229.000         176.000
  21736577.397   -11809323.76049  -9190403.18747  21736576.251    21736587.354
       233.000         189.000
  21654919.141   -19764717.05749 -15197429.41347  21654918.212    21654930.694
       231.000         188.000
  21046165.270   -13205656.22649 -10283458.33647  21046165.073    21046175.454
       242.000         208.000
  20354320.579    -8865145.88549  -6900989.59348  20354320.857    20354329.404
       244.000         213.000
 01  9 24 23 51  0.0000000  0  8G 2G 1G 3G28G 8G31G27G13
  23866190.576    -8226749.74849  -6390836.97345  23866188.402    23866206.258
       215.000         153.000
  22190201.156     8764465.02249   6833425.31846  22190201.033    22190215.215
       230.000         182.000
  23258257.576    -6804146.33849  -4991126.66245  23258256.544    23258271.927
       218.000         161.000
  22363547.572   -16323924.18349 -12708339.15646  22363545.979    22363559.469
       228.000         177.000
  21725429.036   -11867907.61049  -9236052.82247  21725427.629    21725440.710
       234.000         189.000
  21650423.585   -19788341.04749 -15215837.64047  21650422.554    21650434.693
       231.000         188.000
  21040713.701   -13234304.83049 -10305781.90247  21040713.017    21040722.811
       241.000         208.000
  20359264.140    -8839167.51249  -6880746.72748  20359263.955    20359272.862
       243.000         213.000
 01  9 24 23 51 30.0000000  0  8G 2G 1G 3G28G 8G31G27G13
  23851453.445    -8304191.90949  -6451181.15245  23851452.163    23851469.671
       216.000         156.000
  22205934.519     8847144.04549   6897850.41346  22205934.501    22205948.006
       227.000         181.000
  23266785.171    -6759332.97949  -4956207.20245  23266784.950    23266798.891
       218.000         161.000
  22349005.661   -16400341.71749 -12767885.08246  22349004.786    22349016.832
       229.000         178.000
  21714305.129   -11926363.08749  -9281602.45447  21714304.070    21714316.559
       232.000         188.000
  21646040.194   -19811375.45149 -15233786.46047  21646039.739    21646051.451
       233.000         189.000
  21035289.263   -13262810.36449 -10327993.99347  21035288.753    21035299.370
       242.000         209.000
  20364304.226    -8812681.47749  -6860108.28547  20364304.216    20364312.956
       243.000         212.000
 01  9 24 23 52  0.0000000  0  8G 2G 1G 3G28G 8G31G27G13
  23836756.515    -8381423.82949  -6511361.53945  23836754.658    23836772.484
       216.000         156.000
  22221730.593     8930152.46949   6962532.17546  22221730.806    22221744.951
       229.000         181.000
  23275410.495    -6714007.27449  -4920888.51945  23275410.039    23275424.434
       217.000         160.000
  22334522.390   -16476450.95649 -12827190.80846  22334521.333    22334533.415
       229.000         178.000
  21703206.026   -11984689.28849  -9327051.37947  21703205.663    21703216.753
       233.000         188.000
  21641769.396   -19833818.47849 -15251274.46947  21641768.775    21641780.847
       232.000         189.000
  21029892.184   -13291171.97949 -10350093.94247  21029892.009    21029901.354
       241.000         209.000
  20369440.989    -8785687.53849  -6839074.06947  20369441.069    20369449.833
       243.000         212.000
 01  9 24 23 52 30.0000000  0  8G 2G 1G 3G28G 8G31G27G13
  23822099.343    -8458445.88049  -6571378.41245  23822097.505    23822116.041
       215.000         153.000
  22237588.919     9013487.94149   7027468.79746  22237588.778    22237603.025
       229.000         181.000
  23284132.655    -6668171.63049  -4885172.46445  23284132.590    23284147.259
       217.000         159.000
  22320097.799   -16552252.10249 -12886256.43646  22320096.339    22320108.576
       229.000         178.000
  21692131.394   -12042886.97849  -9372400.16647  21692130.670    21692141.679
       235.000         188.000
  21637611.270   -19855669.51749 -15268301.17147  21637610.384    21637622.179
       232.000         189.000
  21024522.397   -13319390.17949 -10372082.11947  21024521.587    21024532.053
       242.000         209.000
  20374674.179    -8758186.93349  -6817645.05847  20374674.456    20374683.184
       243.000         212.000
 01  9 24 23 53  0.0000000  0  8G 2G 1G 3G28G 8G31G27G13
  23807482.563    -8535256.78649  -6631230.75945  23807481.484    23807498.167
       219.000         155.000
  22253509.374     9097149.65749   7092659.61146  22253509.076    22253523.409
       228.000         181.000
  23292951.728    -6621826.89349  -4849059.71245  23292951.555    23292967.122
       219.000         160.000
  22305732.106   -16627743.45549 -12945080.67246  22305731.214    22305743.586
       230.000         179.000
  21681081.307   -12100955.32149  -9417648.15046  21681080.950    21681091.473
       235.000         187.000
  21633566.060   -19876926.70049 -15284865.15047  21633565.254    21633577.106
       231.000         189.000
  21019180.192   -13347463.63349 -10393957.51447  21019179.825    21019189.935
       243.000         209.000
  20380003.942    -8730178.83349  -6795820.58847  20380004.107    20380012.790
       244.000         212.000
 01  9 24 23 53 30.0000000  0  8G 2G 1G 3G28G 8G31G27G13
  23792906.088    -8611855.75149  -6690917.96445  23792904.015    23792921.419
       217.000         157.000
  22269491.492     9181136.11849   7158103.47146  22269491.402    22269505.698
       228.000         181.000
  23301867.462    -6574974.28749  -4812551.22945  23301866.424    23301881.805
       217.000         159.000
  22291425.484   -16702924.26049 -13003662.94246  22291425.237    22291436.170
       232.000         180.000
  21670055.998   -12158893.87749  -9462795.00247  21670054.973    21670066.700
       233.000         188.000
  21629634.147   -19897588.63549 -15300965.29847  21629633.596    21629645.407
       232.000         189.000
  21013865.560   -13375391.80749 -10415719.69447  21013864.864    21013875.318
       241.000         210.000
  20385430.318    -8701663.09249  -6773600.56347  20385430.350    20385439.291
       243.000         212.000
 01  9 24 23 54  0.0000000  0  8G 2G 1G 3G28G 8G31G27G13
  23778369.980    -8688242.18849  -6750439.59545  23778368.998    23778385.419
       219.000         156.000
  22285535.176     9265445.86149   7223799.24546  22285535.095    22285548.715
       229.000         181.000
  23310879.582    -6527615.24849  -4775648.14545  23310880.253    23310894.061
       217.000         159.000
  22277178.319   -16777793.53449 -13062002.43146  22277177.271    22277189.558
       229.000         179.000
  21659055.523   -12216702.19549  -9507840.35047  21659053.969    21659066.415
       233.000         191.000
  21625815.832   -19917654.16749 -15316600.71147  21625815.020    21625827.111
       232.000         190.000
  21008578.662   -13403174.09249 -10437368.20447  21008578.054    21008587.953
       242.000         209.000
  20390953.281    -8672640.01049  -6750985.20847  20390953.307    20390962.407
       243.000         212.000
 01  9 24 23 54 30.0000000  0  8G 2G 1G 3G28G 8G31G27G13
  23763874.570    -8764415.49449  -6809795.12545  23763873.673    23763890.224
       218.000         158.000
  22301640.148     9350077.51249   7289745.85846  22301640.246    22301653.993
       229.000         181.000
  23319987.889    -6479751.03049  -4738351.37345  23319988.788    23320002.358
       219.000         160.000
  22262990.504   -16852350.43149 -13120098.52946  22262989.623    22263001.938
       232.000         180.000
  21648079.781   -12274380.12049  -9552784.13547  21648079.317    21648091.036
       237.000         194.000
  21622111.184   -19937122.02449 -15331770.40847  21622110.574    21622122.198
       234.000         190.000
  21003319.857   -13430809.80949 -10458902.50547  21003319.664    21003330.103
       243.000         210.000
  20396572.689    -8643109.58649  -6727974.52047  20396572.916    20396581.507
       244.000         212.000
 01  9 24 23 55  0.0000000  0  8G 2G 1G 3G28G 8G31G27G13
  23749419.685    -8840375.13049  -6868984.19345  23749418.250    23749435.508
       217.000         158.000
  22317806.094     9435029.58449   7355942.15646  22317805.805    22317820.629
       229.000         181.000
  23329192.146    -6431383.10149  -4700662.13445  23329191.487    23329205.955
       218.000         160.000
  22248862.287   -16926594.10449 -13177950.55246  22248861.094    22248873.677
       230.000         181.000
  21637128.845   -12331927.23949  -9597625.99047  21637127.478    21637138.406
       233.000         190.000
  21618520.546   -19955991.04249 -15346473.48747  21618520.200    21618532.112
       234.000         190.000
  20998088.913   -13458298.37849 -10480322.12047  20998088.886    20998098.351
       243.000         210.000
  20402288.783    -8613071.79549  -6704568.47247  20402288.879    20402297.874
       243.000         212.000
 01  9 24 23 55 30.0000000  0  8G 2G 1G 3G28G 8G31G27G13
  23735005.793    -8916119.70649  -6928005.70945  23735003.419    23735020.384
       218.000         157.000
  22334032.825     9520301.01849   7422387.29646  22334032.581    22334046.536
       227.000         180.000
  23338492.065    -6382512.32749  -4662581.03445  23338492.338    23338505.772
       220.000         159.000
  22234793.927   -17000523.18249 -13235557.46246  22234792.224    22234805.694
       229.000         180.000
  21626202.597   -12389342.78649  -9642365.30346  21626200.883    21626213.101
       229.000         185.000
  21615044.178   -19974259.49249 -15360708.59547  21615043.567    21615055.500
       234.000         190.000
  20992886.245   -13485638.66949 -10501626.19747  20992885.568    20992896.059
       242.000         210.000
  20408101.336    -8582526.49349  -6680766.97847  20408101.585    20408110.160
       244.000         212.000
 01  9 24 23 56  0.0000000  0  8G 2G 1G 3G28G 8G31G27G13
  23720632.884    -8991648.87349  -6986859.36045  23720630.949    23720648.866
       218.000         156.000
  22350319.974     9605889.99349   7489079.86946  22350320.095    22350334.188
       228.000         180.000
  23347887.517    -6333140.34849  -4624109.39345  23347886.185    23347900.845
       218.000         159.000
  22220785.550   -17074137.07949 -13292918.76146  22220784.121    22220796.544
       232.000         182.000
  21615301.558   -12446626.67249  -9687002.04747  21615301.298    21615312.284
       236.000         188.000
  21611682.230   -19991926.35249 -15374474.91647  21611681.514    21611693.544
       234.000         190.000
  20987711.818   -13512830.38249 -10522814.50147  20987711.779    20987721.178
       242.000         210.000
  20414010.540    -8551473.86749  -6656570.14847  20414010.435    20414019.502
       243.000         212.000
 01  9 24 23 56 30.0000000  0  8G 2G 1G 3G28G 8G31G27G13
  23706301.012    -9066962.25949  -7045544.83645  23706298.981    23706316.640
       217.000         157.000
  22366667.288     9691794.87149   7556018.60846  22366666.609    22366681.616
       228.000         180.000
  23357377.756    -6283269.00149  -4585248.61145  23357377.674    23357391.947
       218.000         159.000
  22206837.222   -17147435.19049 -13350033.99846  22206836.457    22206848.134
       231.000         182.000
  21604426.122   -12503778.43849  -9731535.83047  21604425.817    21604436.803
       237.000         191.000
  21608435.081   -20008990.43149 -15387771.54447  21608434.642    21608445.984
       234.000         190.000
  20982565.813   -13539872.89649 -10543886.54747  20982564.973    20982575.369
       242.000         210.000
  20420016.134    -8519914.07249  -6631978.13047  20420016.417    20420025.112
       244.000         212.000
 01  9 24 23 57  0.0000000  0  8G 2G 1G 3G28G 8G31G27G13
  23692010.299    -9142059.25749  -7104061.76745  23692008.504    23692025.782
       218.000         158.000
  22383074.401     9778014.30049   7623202.42946  22383074.280    22383088.652
       227.000         180.000
  23366962.717    -6232899.45749  -4545999.65345  23366963.178    23366976.589
       219.000         158.000
  22192949.173   -17220416.52149 -13406902.40046  22192948.931    22192960.037
       232.000         182.000
  21593575.744   -12560797.93449  -9775966.56747  21593574.889    21593586.383
       233.000         191.000
  21605302.753   -20025450.68449 -15400597.66447  21605302.410    21605313.640
       234.000         190.000
  20977448.272   -13566765.76949 -10564841.99347  20977447.755    20977458.159
       242.000         209.000
  20426118.230    -8487847.62149  -6606991.32147  20426118.422    20426127.259
       244.000         212.000
 01  9 24 23 57 30.0000000  0  8G 2G 1G 3G28G 8G31G27G13
  23677761.024    -9216938.90749  -7162409.30745  23677759.368    23677777.146
       216.000         157.000
  22399541.093     9864547.22449   7690630.55046  22399540.771    22399556.198
       227.000         179.000
  23376642.360    -6182033.14149  -4506363.58645  23376642.397    23376656.244
       220.000         158.000
  22179121.639   -17293079.85449 -13463523.00646  22179120.554    22179132.943
       229.000         182.000
  21582750.396   -12617684.25149  -9820293.47447  21582749.773    21582761.226
       236.000         190.000
  21602285.692   -20041305.54549 -15412952.05147  21602285.059    21602296.554
       234.000         190.000
  20972359.320   -13593508.04349 -10585680.08347  20972357.669    20972368.628
       240.000         209.000
  20432316.795    -8455273.93149  -6581609.26247  20432317.171    20432325.607
       244.000         212.000
 01  9 24 23 58  0.0000000  0  8G 2G 1G 3G28G 8G31G27G13
  23663553.062    -9291601.07649  -7220587.40345  23663551.814    23663568.091
       215.000         156.000
  22416067.222     9951391.76049   7758301.48046  22416067.280    22416081.381
       227.000         178.000
  23386416.239    -6130671.88549  -4466341.86545  23386416.171    23386430.202
       218.000         158.000
  22165354.672   -17365425.04149 -13519895.72346  22165353.575    22165366.162
       231.000         182.000
  21571950.788   -12674437.27749  -9864516.56147  21571950.559    21571960.651
       236.000         191.000
  21599383.968   -20056554.40849 -15424834.22947  21599383.368    21599394.336
       234.000         190.000
  20967298.895   -13620099.36649 -10606400.54847  20967298.821    20967308.439
       241.000         209.000
  20438611.810    -8422193.93149  -6555832.65947  20438611.973    20438620.688
       243.000         212.000
 01  9 24 23 58 30.0000000  0  8G 2G 1G 3G28G 8G31G27G13
  23649386.584    -9366044.75849  -7278595.23445  23649385.661    23649403.004
       217.000         157.000
  22432652.431    10038546.71449   7826214.28946  22432652.878    22432667.240
       228.000         177.000
  23396283.791    -6078816.78049  -4425935.32245  23396283.180    23396297.994
       218.000         157.000
  22151648.549   -17437450.65249 -13576019.42446  22151647.214    22151659.075
       230.000         182.000
  21561176.627   -12731056.38149  -9908635.31247  21561175.179    21561186.326
       233.000         189.000
  21596597.761   -20071195.74049 -15436243.01047  21596596.857    21596608.642
       232.000         189.000
  20962267.758   -13646538.69049 -10627002.59547  20962266.985    20962277.342
       241.000         209.000
  20445003.174    -8388607.25349  -6529661.26847  20445003.189    20445011.935
       243.000         212.000
 01  9 24 23 59  0.0000000  0  8G 2G 1G 3G28G 8G31G27G13
  23635261.951    -9440269.28549  -7336432.29845  23635260.400    23635277.625
       217.000         158.000
  22449296.343    10126010.37849   7894367.67246  22449295.406    22449310.488
       227.000         177.000
  23406245.213    -6026469.33949  -4385145.16345  23406245.913    23406260.244
       217.000         157.000
  22138003.311   -17509156.04849 -13631893.58246  22138002.670    22138014.473
       231.000         182.000
  21550427.709   -12787541.23849  -9952649.39847  21550426.750    21550438.297
       236.000         189.000
  21593927.318   -20085228.52849 -15447177.59347  21593926.246    21593937.971
       233.000         189.000
  20957265.565   -13672825.44749 -10647485.74547  20957265.157    20957274.764
       242.000         210.000
  20451490.911    -8354514.13349  -6503095.23947  20451491.447    20451499.749
       245.000         212.000
